<?xml version='1.0' encoding='UTF-8'?><gpx version="1.1" creator="JPX - https://github.com/jenetics/jpx" xmlns="http://www.topografix.com/GPX/1/1"><trk><trkseg><trkpt lat="43.68659678823405" lon="11.133514993254245"><ele>92.0</ele><time>2026-04-27T16:02:12Z</time></trkpt><trkpt lat="43.68666053021172" lon="11.133537333259206"><ele>92.0</ele><time>2026-04-27T16:02:14Z</time></trkpt><trkpt lat="43.686723125608154" lon="11.133520283695432"><ele>92.0</ele><time>2026-04-27T16:02:17Z</time></trkpt><trkpt lat="43.68677625296747" lon="11.13346038514525"><ele>92.0</ele><time>2026-04-27T16:02:19Z</time></trkpt><trkpt lat="43.686843591253904" lon="11.133417952255588"><ele>92.0</ele><time>2026-04-27T16:02:23Z</time></trkpt><trkpt lat="43.68688677218327" lon="11.133504754811142"><ele>92.0</ele><time>2026-04-27T16:02:27Z</time></trkpt><trkpt lat="43.68687911976335" lon="11.13341307134075"><ele>92.0</ele><time>2026-04-27T16:02:39Z</time></trkpt><trkpt lat="43.68686881826665" lon="11.133316230412998"><ele>92.0</ele><time>2026-04-27T16:02:46Z</time></trkpt><trkpt lat="43.686845579568484" lon="11.133228482563787"><ele>92.0</ele><time>2026-04-27T16:02:55Z</time></trkpt><trkpt lat="43.68680448011433" lon="11.133111294422536"><ele>92.0</ele><time>2026-04-27T16:02:58Z</time></trkpt><trkpt lat="43.68676376868962" lon="11.133008280526214"><ele>92.0</ele><time>2026-04-27T16:03:01Z</time></trkpt><trkpt lat="43.686729166706485" lon="11.132911610983237"><ele>92.0</ele><time>2026-04-27T16:03:04Z</time></trkpt><trkpt lat="43.68668968721508" lon="11.13280175895463"><ele>92.0</ele><time>2026-04-27T16:03:07Z</time></trkpt><trkpt lat="43.68663020379533" lon="11.132766675595946"><ele>92.0</ele><time>2026-04-27T16:03:10Z</time></trkpt><trkpt lat="43.68656581179504" lon="11.13278919600771"><ele>92.0</ele><time>2026-04-27T16:03:12Z</time></trkpt><trkpt lat="43.686511334447566" lon="11.132833181522756"><ele>92.0</ele><time>2026-04-27T16:03:14Z</time></trkpt><trkpt lat="43.686430650811246" lon="11.132895777362425"><ele>92.0</ele><time>2026-04-27T16:03:16Z</time></trkpt><trkpt lat="43.686354659143404" lon="11.132952568911417"><ele>92.0</ele><time>2026-04-27T16:03:18Z</time></trkpt><trkpt lat="43.68629665064239" lon="11.132995793474262"><ele>92.0</ele><time>2026-04-27T16:03:20Z</time></trkpt><trkpt lat="43.68622829146478" lon="11.133033047072574"><ele>92.0</ele><time>2026-04-27T16:03:22Z</time></trkpt><trkpt lat="43.68615954025932" lon="11.133067304810831"><ele>92.0</ele><time>2026-04-27T16:03:24Z</time></trkpt><trkpt lat="43.68609849912774" lon="11.133098427295451"><ele>92.0</ele><time>2026-04-27T16:03:26Z</time></trkpt><trkpt lat="43.68603741857984" lon="11.133154069065824"><ele>92.0</ele><time>2026-04-27T16:03:28Z</time></trkpt><trkpt lat="43.685961493684786" lon="11.13318874861729"><ele>92.0</ele><time>2026-04-27T16:03:31Z</time></trkpt><trkpt lat="43.68589309131537" lon="11.133167316911425"><ele>92.0</ele><time>2026-04-27T16:03:33Z</time></trkpt><trkpt lat="43.68584588792532" lon="11.133077323394222"><ele>92.0</ele><time>2026-04-27T16:03:35Z</time></trkpt><trkpt lat="43.68580888293538" lon="11.132973823331803"><ele>91.39999999999999</ele><time>2026-04-27T16:03:37Z</time></trkpt><trkpt lat="43.68576785781911" lon="11.132863132484427"><ele>90.8</ele><time>2026-04-27T16:03:39Z</time></trkpt><trkpt lat="43.685730128516475" lon="11.13275086161875"><ele>90.2</ele><time>2026-04-27T16:03:41Z</time></trkpt><trkpt lat="43.68568099489915" lon="11.132639394749114"><ele>89.6</ele><time>2026-04-27T16:03:43Z</time></trkpt><trkpt lat="43.685632143685176" lon="11.132513418270687"><ele>89.0</ele><time>2026-04-27T16:03:45Z</time></trkpt><trkpt lat="43.68559142341896" lon="11.13237968457827"><ele>89.0</ele><time>2026-04-27T16:03:47Z</time></trkpt><trkpt lat="43.68553805390879" lon="11.132262248661645"><ele>89.0</ele><time>2026-04-27T16:03:49Z</time></trkpt><trkpt lat="43.685474740393" lon="11.132160102869834"><ele>89.0</ele><time>2026-04-27T16:03:51Z</time></trkpt><trkpt lat="43.68541238029705" lon="11.13205800145175"><ele>89.0</ele><time>2026-04-27T16:03:53Z</time></trkpt><trkpt lat="43.68534432229063" lon="11.131971448167072"><ele>89.0</ele><time>2026-04-27T16:03:55Z</time></trkpt><trkpt lat="43.685280369019" lon="11.131882501083673"><ele>88.16666666666667</ele><time>2026-04-27T16:03:57Z</time></trkpt><trkpt lat="43.68522011062376" lon="11.13179911521327"><ele>87.33333333333334</ele><time>2026-04-27T16:03:59Z</time></trkpt><trkpt lat="43.68518176972174" lon="11.131676187050525"><ele>86.5</ele><time>2026-04-27T16:04:02Z</time></trkpt><trkpt lat="43.685201089532676" lon="11.13155311091574"><ele>85.66666666666667</ele><time>2026-04-27T16:04:05Z</time></trkpt><trkpt lat="43.68520217694106" lon="11.131455103991458"><ele>84.83333333333333</ele><time>2026-04-27T16:04:07Z</time></trkpt><trkpt lat="43.68516288353439" lon="11.13135671027186"><ele>84.0</ele><time>2026-04-27T16:04:09Z</time></trkpt><trkpt lat="43.685116994031276" lon="11.13123484394636"><ele>84.0</ele><time>2026-04-27T16:04:11Z</time></trkpt><trkpt lat="43.68506448635452" lon="11.131120429553372"><ele>84.0</ele><time>2026-04-27T16:04:13Z</time></trkpt><trkpt lat="43.685012069047076" lon="11.131004825487368"><ele>84.0</ele><time>2026-04-27T16:04:15Z</time></trkpt><trkpt lat="43.68496682056163" lon="11.130875275220648"><ele>84.0</ele><time>2026-04-27T16:04:17Z</time></trkpt><trkpt lat="43.68492048977593" lon="11.130732478780919"><ele>84.0</ele><time>2026-04-27T16:04:19Z</time></trkpt><trkpt lat="43.684881764126445" lon="11.130580867874274"><ele>84.0</ele><time>2026-04-27T16:04:21Z</time></trkpt><trkpt lat="43.68483879552307" lon="11.130451129547328"><ele>84.0</ele><time>2026-04-27T16:04:23Z</time></trkpt><trkpt lat="43.68478688529181" lon="11.130314933517976"><ele>84.0</ele><time>2026-04-27T16:04:25Z</time></trkpt><trkpt lat="43.6847472895818" lon="11.130188164981321"><ele>84.0</ele><time>2026-04-27T16:04:27Z</time></trkpt><trkpt lat="43.68469620759557" lon="11.13006236572472"><ele>84.0</ele><time>2026-04-27T16:04:29Z</time></trkpt><trkpt lat="43.68465254769231" lon="11.129943956578414"><ele>84.2</ele><time>2026-04-27T16:04:31Z</time></trkpt><trkpt lat="43.68460927243135" lon="11.129824450813267"><ele>84.4</ele><time>2026-04-27T16:04:33Z</time></trkpt><trkpt lat="43.684567865461574" lon="11.1296958766219"><ele>84.6</ele><time>2026-04-27T16:04:35Z</time></trkpt><trkpt lat="43.68452627491179" lon="11.12957441251156"><ele>84.8</ele><time>2026-04-27T16:04:37Z</time></trkpt><trkpt lat="43.68448979167666" lon="11.129448411945825"><ele>85.0</ele><time>2026-04-27T16:04:39Z</time></trkpt><trkpt lat="43.684438450962986" lon="11.129331271598602"><ele>84.4</ele><time>2026-04-27T16:04:41Z</time></trkpt><trkpt lat="43.68438134636916" lon="11.129202657612021"><ele>83.8</ele><time>2026-04-27T16:04:43Z</time></trkpt><trkpt lat="43.684333751626156" lon="11.129069375233557"><ele>83.19999999999999</ele><time>2026-04-27T16:04:45Z</time></trkpt><trkpt lat="43.684263861970784" lon="11.128958114849075"><ele>82.6</ele><time>2026-04-27T16:04:47Z</time></trkpt><trkpt lat="43.68421680257375" lon="11.128876497631842"><ele>82.0</ele><time>2026-04-27T16:04:49Z</time></trkpt><trkpt lat="43.684157738261135" lon="11.128823892283625"><ele>81.99999999999999</ele><time>2026-04-27T16:04:51Z</time></trkpt><trkpt lat="43.68409517210428" lon="11.128791677539683"><ele>82.0</ele><time>2026-04-27T16:04:54Z</time></trkpt><trkpt lat="43.684034044696894" lon="11.128856783730704"><ele>82.0</ele><time>2026-04-27T16:04:58Z</time></trkpt><trkpt lat="43.68396855796542" lon="11.128911926792155"><ele>82.0</ele><time>2026-04-27T16:05:01Z</time></trkpt><trkpt lat="43.68390776818088" lon="11.12896507494429"><ele>82.0</ele><time>2026-04-27T16:05:04Z</time></trkpt><trkpt lat="43.68385381682391" lon="11.12901616781213"><ele>81.99999999999999</ele><time>2026-04-27T16:05:07Z</time></trkpt><trkpt lat="43.683788161919495" lon="11.129041893462956"><ele>82.0</ele><time>2026-04-27T16:05:10Z</time></trkpt><trkpt lat="43.683694776879996" lon="11.129049352954537"><ele>81.99999999999999</ele><time>2026-04-27T16:05:13Z</time></trkpt><trkpt lat="43.68363656952639" lon="11.129100173795871"><ele>82.0</ele><time>2026-04-27T16:05:15Z</time></trkpt><trkpt lat="43.68357585463501" lon="11.129138159536026"><ele>82.0</ele><time>2026-04-27T16:05:17Z</time></trkpt><trkpt lat="43.68352084779005" lon="11.129189038745558"><ele>82.0</ele><time>2026-04-27T16:05:19Z</time></trkpt><trkpt lat="43.68346541910297" lon="11.129234646932641"><ele>82.0</ele><time>2026-04-27T16:05:21Z</time></trkpt><trkpt lat="43.683389106272" lon="11.129305062463306"><ele>81.99999999999999</ele><time>2026-04-27T16:05:24Z</time></trkpt><trkpt lat="43.68333444507144" lon="11.129357574181972"><ele>82.0</ele><time>2026-04-27T16:05:26Z</time></trkpt><trkpt lat="43.683270405191784" lon="11.129387177598135"><ele>82.0</ele><time>2026-04-27T16:05:28.001Z</time></trkpt><trkpt lat="43.683197558174136" lon="11.129427627874378"><ele>82.0</ele><time>2026-04-27T16:05:31.001Z</time></trkpt><trkpt lat="43.683138686486764" lon="11.129478367495702"><ele>82.0</ele><time>2026-04-27T16:05:34.001Z</time></trkpt><trkpt lat="43.683084635942826" lon="11.129540482050677"><ele>82.0</ele><time>2026-04-27T16:05:37.001Z</time></trkpt><trkpt lat="43.68301699143296" lon="11.129471900390488"><ele>82.0</ele><time>2026-04-27T16:05:42.001Z</time></trkpt><trkpt lat="43.68297514065618" lon="11.129376996261037"><ele>82.0</ele><time>2026-04-27T16:05:45.001Z</time></trkpt><trkpt lat="43.68293503879547" lon="11.129284621926812"><ele>82.0</ele><time>2026-04-27T16:05:47.001Z</time></trkpt><trkpt lat="43.68287441359985" lon="11.129182003701048"><ele>82.0</ele><time>2026-04-27T16:05:49.001Z</time></trkpt><trkpt lat="43.682797317570596" lon="11.129073131349408"><ele>82.0</ele><time>2026-04-27T16:05:51.001Z</time></trkpt><trkpt lat="43.68269875533049" lon="11.128959862094526"><ele>82.0</ele><time>2026-04-27T16:05:53.001Z</time></trkpt><trkpt lat="43.682615373609565" lon="11.128824105682051"><ele>81.0</ele><time>2026-04-27T16:05:55.001Z</time></trkpt><trkpt lat="43.68254392868391" lon="11.128695773510294"><ele>80.0</ele><time>2026-04-27T16:05:57.001Z</time></trkpt><trkpt lat="43.68248236687235" lon="11.128566713113797"><ele>79.0</ele><time>2026-04-27T16:05:59.001Z</time></trkpt><trkpt lat="43.68242331188597" lon="11.12844969688449"><ele>78.0</ele><time>2026-04-27T16:06:01.001Z</time></trkpt><trkpt lat="43.68236942112999" lon="11.128338140716789"><ele>77.0</ele><time>2026-04-27T16:06:03.001Z</time></trkpt><trkpt lat="43.68231428897853" lon="11.128230464469024"><ele>77.33333333333334</ele><time>2026-04-27T16:06:05.001Z</time></trkpt><trkpt lat="43.682268782598044" lon="11.128136908554627"><ele>77.66666666666667</ele><time>2026-04-27T16:06:07.001Z</time></trkpt><trkpt lat="43.68220790349285" lon="11.12806327048985"><ele>78.0</ele><time>2026-04-27T16:06:09.001Z</time></trkpt><trkpt lat="43.682167537225936" lon="11.127993006626138"><ele>78.33333333333333</ele><time>2026-04-27T16:06:11.001Z</time></trkpt><trkpt lat="43.68213471202576" lon="11.127915089879517"><ele>78.66666666666666</ele><time>2026-04-27T16:06:13.001Z</time></trkpt><trkpt lat="43.682095160595715" lon="11.127812629811027"><ele>79.0</ele><time>2026-04-27T16:06:16.001Z</time></trkpt><trkpt lat="43.682056507758944" lon="11.127726803573053"><ele>79.0</ele><time>2026-04-27T16:06:20.001Z</time></trkpt><trkpt lat="43.68204649658764" lon="11.127628798481036"><ele>79.0</ele><time>2026-04-27T16:06:24.001Z</time></trkpt><trkpt lat="43.68196478195674" lon="11.127590599317122"><ele>79.0</ele><time>2026-04-27T16:06:28.001Z</time></trkpt><trkpt lat="43.681891593069764" lon="11.127596888884785"><ele>79.0</ele><time>2026-04-27T16:06:30.001Z</time></trkpt><trkpt lat="43.681802913608095" lon="11.127620389338285"><ele>79.0</ele><time>2026-04-27T16:06:32.001Z</time></trkpt><trkpt lat="43.681730519764066" lon="11.127656637053958"><ele>79.0</ele><time>2026-04-27T16:06:34.001Z</time></trkpt><trkpt lat="43.681657767655174" lon="11.127681032369738"><ele>78.83333333333333</ele><time>2026-04-27T16:06:36.001Z</time></trkpt><trkpt lat="43.681590139567945" lon="11.127720143992736"><ele>78.66666666666666</ele><time>2026-04-27T16:06:38.001Z</time></trkpt><trkpt lat="43.68150111428576" lon="11.127760575113752"><ele>78.5</ele><time>2026-04-27T16:06:41.001Z</time></trkpt><trkpt lat="43.68143527252442" lon="11.127791125551726"><ele>78.33333333333333</ele><time>2026-04-27T16:06:44.001Z</time></trkpt><trkpt lat="43.681355665687825" lon="11.127825156209157"><ele>78.16666666666667</ele><time>2026-04-27T16:06:47.001Z</time></trkpt><trkpt lat="43.68128656427904" lon="11.127863343833225"><ele>78.0</ele><time>2026-04-27T16:06:50.001Z</time></trkpt><trkpt lat="43.68122670702727" lon="11.127897756870958"><ele>78.0</ele><time>2026-04-27T16:06:52.001Z</time></trkpt><trkpt lat="43.681146780959956" lon="11.127944733016085"><ele>78.0</ele><time>2026-04-27T16:06:55.001Z</time></trkpt><trkpt lat="43.68108781121257" lon="11.12798251059619"><ele>78.0</ele><time>2026-04-27T16:06:57.001Z</time></trkpt><trkpt lat="43.68102954041128" lon="11.12802433360139"><ele>78.0</ele><time>2026-04-27T16:06:59.001Z</time></trkpt><trkpt lat="43.68095147926644" lon="11.128079834661433"><ele>78.0</ele><time>2026-04-27T16:07:02.001Z</time></trkpt><trkpt lat="43.68087341739215" lon="11.128140253925068"><ele>78.0</ele><time>2026-04-27T16:07:05.001Z</time></trkpt><trkpt lat="43.68079966600508" lon="11.128203337228634"><ele>78.33333333333333</ele><time>2026-04-27T16:07:08.001Z</time></trkpt><trkpt lat="43.680724581522504" lon="11.128269011436494"><ele>78.66666666666667</ele><time>2026-04-27T16:07:11.001Z</time></trkpt><trkpt lat="43.680650353079905" lon="11.128327890432173"><ele>79.0</ele><time>2026-04-27T16:07:14.001Z</time></trkpt><trkpt lat="43.680593445121445" lon="11.128368018684712"><ele>79.33333333333334</ele><time>2026-04-27T16:07:16.001Z</time></trkpt><trkpt lat="43.68052597971339" lon="11.128426614493032"><ele>79.66666666666667</ele><time>2026-04-27T16:07:19.001Z</time></trkpt><trkpt lat="43.68046322553844" lon="11.128495403842258"><ele>80.0</ele><time>2026-04-27T16:07:22.001Z</time></trkpt><trkpt lat="43.680392427899264" lon="11.1285503696802"><ele>80.0</ele><time>2026-04-27T16:07:25.001Z</time></trkpt><trkpt lat="43.68032463124066" lon="11.128609385960209"><ele>80.0</ele><time>2026-04-27T16:07:28.001Z</time></trkpt><trkpt lat="43.680250720776975" lon="11.128677992517629"><ele>80.0</ele><time>2026-04-27T16:07:31.001Z</time></trkpt><trkpt lat="43.680183731499085" lon="11.128748122795008"><ele>80.0</ele><time>2026-04-27T16:07:34.001Z</time></trkpt><trkpt lat="43.68011860840992" lon="11.128819303927354"><ele>80.0</ele><time>2026-04-27T16:07:37.001Z</time></trkpt><trkpt lat="43.68004319201515" lon="11.128876635486323"><ele>80.0</ele><time>2026-04-27T16:07:40.001Z</time></trkpt><trkpt lat="43.67996592602476" lon="11.128918920773296"><ele>80.0</ele><time>2026-04-27T16:07:43.001Z</time></trkpt><trkpt lat="43.67988841461522" lon="11.12895547285701"><ele>80.0</ele><time>2026-04-27T16:07:46.001Z</time></trkpt><trkpt lat="43.67981186816217" lon="11.129004102551084"><ele>80.0</ele><time>2026-04-27T16:07:49.001Z</time></trkpt><trkpt lat="43.67974061691959" lon="11.12906137815028"><ele>80.0</ele><time>2026-04-27T16:07:53.001Z</time></trkpt><trkpt lat="43.679674158464515" lon="11.129110121119117"><ele>80.0</ele><time>2026-04-27T16:07:56.001Z</time></trkpt><trkpt lat="43.67960141146615" lon="11.129136741874545"><ele>80.0</ele><time>2026-04-27T16:08:00.001Z</time></trkpt><trkpt lat="43.67953544798661" lon="11.129156996371163"><ele>80.0</ele><time>2026-04-27T16:08:05.001Z</time></trkpt><trkpt lat="43.67946602379627" lon="11.129189391120496"><ele>80.0</ele><time>2026-04-27T16:08:09.001Z</time></trkpt><trkpt lat="43.67938593009663" lon="11.129221918908085"><ele>80.0</ele><time>2026-04-27T16:08:13.001Z</time></trkpt><trkpt lat="43.67932087754248" lon="11.129254986887094"><ele>80.0</ele><time>2026-04-27T16:08:17.002Z</time></trkpt><trkpt lat="43.679245294502685" lon="11.129292950429463"><ele>80.0</ele><time>2026-04-27T16:08:22.002Z</time></trkpt><trkpt lat="43.679180158587435" lon="11.12934370462321"><ele>80.0</ele><time>2026-04-27T16:08:25.002Z</time></trkpt><trkpt lat="43.679119022114214" lon="11.12937168385139"><ele>80.0</ele><time>2026-04-27T16:08:28.002Z</time></trkpt><trkpt lat="43.67905382016935" lon="11.129413740625091"><ele>80.14285714285714</ele><time>2026-04-27T16:08:31.002Z</time></trkpt><trkpt lat="43.67899255331995" lon="11.129453386464444"><ele>80.28571428571429</ele><time>2026-04-27T16:08:34.002Z</time></trkpt><trkpt lat="43.678922990709104" lon="11.129505578111567"><ele>80.42857142857143</ele><time>2026-04-27T16:08:38.002Z</time></trkpt><trkpt lat="43.67885758315791" lon="11.129531374779592"><ele>80.57142857142857</ele><time>2026-04-27T16:08:42.002Z</time></trkpt><trkpt lat="43.678799854589215" lon="11.129568445761771"><ele>80.71428571428571</ele><time>2026-04-27T16:08:46.002Z</time></trkpt><trkpt lat="43.678738902362426" lon="11.129602526519346"><ele>80.85714285714286</ele><time>2026-04-27T16:08:50.002Z</time></trkpt><trkpt lat="43.67866302113364" lon="11.129650070494593"><ele>81.0</ele><time>2026-04-27T16:08:54.002Z</time></trkpt><trkpt lat="43.6785909783091" lon="11.129684302809466"><ele>81.28571428571429</ele><time>2026-04-27T16:08:58.002Z</time></trkpt><trkpt lat="43.67852500134659" lon="11.129729313570072"><ele>81.57142857142857</ele><time>2026-04-27T16:09:01.002Z</time></trkpt><trkpt lat="43.678450421029176" lon="11.129763195728483"><ele>81.85714285714286</ele><time>2026-04-27T16:09:04.002Z</time></trkpt><trkpt lat="43.67838197207219" lon="11.129798257907414"><ele>82.14285714285714</ele><time>2026-04-27T16:09:07.002Z</time></trkpt><trkpt lat="43.67832086711699" lon="11.129833902258863"><ele>82.42857142857143</ele><time>2026-04-27T16:09:10.002Z</time></trkpt><trkpt lat="43.67826010782201" lon="11.129860891051923"><ele>82.71428571428571</ele><time>2026-04-27T16:09:13.002Z</time></trkpt><trkpt lat="43.6781945342053" lon="11.129879959793826"><ele>83.0</ele><time>2026-04-27T16:09:16.002Z</time></trkpt><trkpt lat="43.67811214831957" lon="11.12989108668454"><ele>83.0</ele><time>2026-04-27T16:09:19.002Z</time></trkpt><trkpt lat="43.67804420708894" lon="11.12990782286864"><ele>83.0</ele><time>2026-04-27T16:09:22.002Z</time></trkpt><trkpt lat="43.67797656637615" lon="11.129931049641096"><ele>83.0</ele><time>2026-04-27T16:09:25.002Z</time></trkpt><trkpt lat="43.67789482495748" lon="11.129957677017055"><ele>83.0</ele><time>2026-04-27T16:09:29.002Z</time></trkpt><trkpt lat="43.67782916686226" lon="11.129970743005112"><ele>83.0</ele><time>2026-04-27T16:09:32.002Z</time></trkpt><trkpt lat="43.677759904412255" lon="11.130001589626882"><ele>83.0</ele><time>2026-04-27T16:09:35.002Z</time></trkpt><trkpt lat="43.67769303232231" lon="11.130033932157547"><ele>83.0</ele><time>2026-04-27T16:09:38.002Z</time></trkpt><trkpt lat="43.67761295034791" lon="11.13006118359575"><ele>83.16666666666667</ele><time>2026-04-27T16:09:41.002Z</time></trkpt><trkpt lat="43.67753594244735" lon="11.130092137162347"><ele>83.33333333333334</ele><time>2026-04-27T16:09:44.002Z</time></trkpt><trkpt lat="43.67745454814584" lon="11.130136573705542"><ele>83.5</ele><time>2026-04-27T16:09:47.002Z</time></trkpt><trkpt lat="43.677380411755806" lon="11.130164720867343"><ele>83.66666666666667</ele><time>2026-04-27T16:09:50.002Z</time></trkpt><trkpt lat="43.6773088844885" lon="11.130220007090628"><ele>83.83333333333333</ele><time>2026-04-27T16:09:53.002Z</time></trkpt><trkpt lat="43.67724896148591" lon="11.130266649363863"><ele>84.0</ele><time>2026-04-27T16:09:56.002Z</time></trkpt><trkpt lat="43.67717073377344" lon="11.130332815255947"><ele>84.0</ele><time>2026-04-27T16:09:59.002Z</time></trkpt><trkpt lat="43.67709778355161" lon="11.13039001732206"><ele>84.0</ele><time>2026-04-27T16:10:02.002Z</time></trkpt><trkpt lat="43.67702224516541" lon="11.130452026548795"><ele>84.0</ele><time>2026-04-27T16:10:05.002Z</time></trkpt><trkpt lat="43.676943048928095" lon="11.130502287187998"><ele>84.0</ele><time>2026-04-27T16:10:08.002Z</time></trkpt><trkpt lat="43.67688322913805" lon="11.130549732453943"><ele>84.0</ele><time>2026-04-27T16:10:11.002Z</time></trkpt><trkpt lat="43.67681608468722" lon="11.130593940022385"><ele>84.0</ele><time>2026-04-27T16:10:14.002Z</time></trkpt><trkpt lat="43.67674519165833" lon="11.130634562409094"><ele>83.85714285714286</ele><time>2026-04-27T16:10:17.002Z</time></trkpt><trkpt lat="43.676688078583425" lon="11.13067577380117"><ele>83.71428571428572</ele><time>2026-04-27T16:10:19.002Z</time></trkpt><trkpt lat="43.67663138611701" lon="11.130728574699374"><ele>83.57142857142857</ele><time>2026-04-27T16:10:21.002Z</time></trkpt><trkpt lat="43.67656948985698" lon="11.130779901737927"><ele>83.42857142857143</ele><time>2026-04-27T16:10:23.002Z</time></trkpt><trkpt lat="43.67651129288069" lon="11.130819090366469"><ele>83.28571428571429</ele><time>2026-04-27T16:10:25.002Z</time></trkpt><trkpt lat="43.67644796185442" lon="11.13085598572794"><ele>83.14285714285714</ele><time>2026-04-27T16:10:27.002Z</time></trkpt><trkpt lat="43.67636068472496" lon="11.130932459882786"><ele>83.0</ele><time>2026-04-27T16:10:30.002Z</time></trkpt><trkpt lat="43.67629570630008" lon="11.130978610420645"><ele>82.83333333333334</ele><time>2026-04-27T16:10:32.002Z</time></trkpt><trkpt lat="43.676237725473584" lon="11.13102008263026"><ele>82.66666666666667</ele><time>2026-04-27T16:10:34.002Z</time></trkpt><trkpt lat="43.67617676873283" lon="11.131084266595844"><ele>82.5</ele><time>2026-04-27T16:10:36.002Z</time></trkpt><trkpt lat="43.676109894298214" lon="11.131155892627781"><ele>82.33333333333333</ele><time>2026-04-27T16:10:38.002Z</time></trkpt><trkpt lat="43.676035246615214" lon="11.131212291805747"><ele>82.16666666666666</ele><time>2026-04-27T16:10:40.002Z</time></trkpt><trkpt lat="43.67596284048854" lon="11.131278220505246"><ele>82.0</ele><time>2026-04-27T16:10:42.002Z</time></trkpt><trkpt lat="43.675881382122604" lon="11.131340994426218"><ele>82.0</ele><time>2026-04-27T16:10:44.002Z</time></trkpt><trkpt lat="43.67580092133019" lon="11.131391076505759"><ele>82.0</ele><time>2026-04-27T16:10:46.002Z</time></trkpt><trkpt lat="43.675732884448976" lon="11.131445984563685"><ele>82.0</ele><time>2026-04-27T16:10:48.002Z</time></trkpt><trkpt lat="43.6756630796377" lon="11.131474430450922"><ele>82.0</ele><time>2026-04-27T16:10:50.002Z</time></trkpt><trkpt lat="43.67559917807585" lon="11.131520267823484"><ele>82.0</ele><time>2026-04-27T16:10:52.002Z</time></trkpt><trkpt lat="43.67550742718314" lon="11.131570603365837"><ele>82.0</ele><time>2026-04-27T16:10:55.002Z</time></trkpt><trkpt lat="43.675440801514426" lon="11.131610127026676"><ele>81.83333333333333</ele><time>2026-04-27T16:10:57.002Z</time></trkpt><trkpt lat="43.675366918002545" lon="11.131643095494157"><ele>81.66666666666666</ele><time>2026-04-27T16:10:59.002Z</time></trkpt><trkpt lat="43.67526871804438" lon="11.131658047312145"><ele>81.5</ele><time>2026-04-27T16:11:02.002Z</time></trkpt><trkpt lat="43.67520395929704" lon="11.131688438639582"><ele>81.33333333333333</ele><time>2026-04-27T16:11:04.003Z</time></trkpt><trkpt lat="43.67513500490237" lon="11.13172039501935"><ele>81.16666666666667</ele><time>2026-04-27T16:11:06.003Z</time></trkpt><trkpt lat="43.675066268597845" lon="11.131766671231075"><ele>81.0</ele><time>2026-04-27T16:11:08.003Z</time></trkpt><trkpt lat="43.67499372647747" lon="11.131810515290713"><ele>81.0</ele><time>2026-04-27T16:11:10.003Z</time></trkpt><trkpt lat="43.67491980010799" lon="11.131862503239047"><ele>81.0</ele><time>2026-04-27T16:11:12.003Z</time></trkpt><trkpt lat="43.67484863587419" lon="11.13190953762599"><ele>81.0</ele><time>2026-04-27T16:11:14.003Z</time></trkpt><trkpt lat="43.67476699244557" lon="11.131956480280433"><ele>81.0</ele><time>2026-04-27T16:11:16.003Z</time></trkpt><trkpt lat="43.67468117480402" lon="11.131967913790579"><ele>81.0</ele><time>2026-04-27T16:11:18.003Z</time></trkpt><trkpt lat="43.674604939713824" lon="11.131972064991347"><ele>81.0</ele><time>2026-04-27T16:11:20.003Z</time></trkpt><trkpt lat="43.674519173793165" lon="11.131975770282908"><ele>81.0</ele><time>2026-04-27T16:11:22.003Z</time></trkpt><trkpt lat="43.67444186643137" lon="11.131977938672867"><ele>81.0</ele><time>2026-04-27T16:11:24.003Z</time></trkpt><trkpt lat="43.67437171466812" lon="11.131985387652364"><ele>81.0</ele><time>2026-04-27T16:11:26.003Z</time></trkpt><trkpt lat="43.6743021111082" lon="11.131991521983593"><ele>81.0</ele><time>2026-04-27T16:11:28.003Z</time></trkpt><trkpt lat="43.674236577411804" lon="11.13200339035028"><ele>81.0</ele><time>2026-04-27T16:11:30.003Z</time></trkpt><trkpt lat="43.67416903280057" lon="11.132003697062864"><ele>81.0</ele><time>2026-04-27T16:11:32.003Z</time></trkpt><trkpt lat="43.67409637979071" lon="11.132007809228842"><ele>81.0</ele><time>2026-04-27T16:11:34.003Z</time></trkpt><trkpt lat="43.674022177639564" lon="11.132010195419289"><ele>81.0</ele><time>2026-04-27T16:11:36.003Z</time></trkpt><trkpt lat="43.673945909425946" lon="11.13201436179418"><ele>81.0</ele><time>2026-04-27T16:11:38.003Z</time></trkpt><trkpt lat="43.673878313655074" lon="11.132017967760651"><ele>81.0</ele><time>2026-04-27T16:11:40.003Z</time></trkpt><trkpt lat="43.673776127605926" lon="11.132043627036547"><ele>81.0</ele><time>2026-04-27T16:11:43.003Z</time></trkpt><trkpt lat="43.67370357450877" lon="11.132046502433095"><ele>81.0</ele><time>2026-04-27T16:11:45.003Z</time></trkpt><trkpt lat="43.67362248714509" lon="11.132055777464405"><ele>81.0</ele><time>2026-04-27T16:11:47.003Z</time></trkpt><trkpt lat="43.67353991481939" lon="11.132060643090668"><ele>81.16666666666667</ele><time>2026-04-27T16:11:49.003Z</time></trkpt><trkpt lat="43.673462476752476" lon="11.13206914948763"><ele>81.33333333333333</ele><time>2026-04-27T16:11:51.003Z</time></trkpt><trkpt lat="43.67337865328818" lon="11.132053098196087"><ele>81.5</ele><time>2026-04-27T16:11:53.003Z</time></trkpt><trkpt lat="43.67330187143105" lon="11.132053805585915"><ele>81.66666666666666</ele><time>2026-04-27T16:11:55.003Z</time></trkpt><trkpt lat="43.67322088111268" lon="11.1320441424833"><ele>81.83333333333333</ele><time>2026-04-27T16:11:57.003Z</time></trkpt><trkpt lat="43.67313760162983" lon="11.132027770451332"><ele>82.0</ele><time>2026-04-27T16:11:59.003Z</time></trkpt><trkpt lat="43.67307087181345" lon="11.132033655485525"><ele>82.0</ele><time>2026-04-27T16:12:01.003Z</time></trkpt><trkpt lat="43.672989432811754" lon="11.13202475817293"><ele>82.0</ele><time>2026-04-27T16:12:03.003Z</time></trkpt><trkpt lat="43.672908549306776" lon="11.132017838920264"><ele>82.0</ele><time>2026-04-27T16:12:05.003Z</time></trkpt><trkpt lat="43.672825051368996" lon="11.13201621893988"><ele>82.0</ele><time>2026-04-27T16:12:07.003Z</time></trkpt><trkpt lat="43.67274588835414" lon="11.132016201029328"><ele>82.0</ele><time>2026-04-27T16:12:09.003Z</time></trkpt><trkpt lat="43.6726637308555" lon="11.132015791480157"><ele>82.0</ele><time>2026-04-27T16:12:11.003Z</time></trkpt><trkpt lat="43.67258552288558" lon="11.132024665627615"><ele>81.99999999999999</ele><time>2026-04-27T16:12:13.003Z</time></trkpt><trkpt lat="43.67251299985895" lon="11.132039165559485"><ele>82.0</ele><time>2026-04-27T16:12:15.003Z</time></trkpt><trkpt lat="43.67243463951716" lon="11.132042148776321"><ele>82.0</ele><time>2026-04-27T16:12:17.003Z</time></trkpt><trkpt lat="43.672361363302265" lon="11.13205893231019"><ele>82.0</ele><time>2026-04-27T16:12:19.003Z</time></trkpt><trkpt lat="43.672295401781014" lon="11.132072051810601"><ele>82.0</ele><time>2026-04-27T16:12:21.003Z</time></trkpt><trkpt lat="43.67222428073138" lon="11.132079296162983"><ele>81.99999999999999</ele><time>2026-04-27T16:12:23.003Z</time></trkpt><trkpt lat="43.672156769222" lon="11.13208133750127"><ele>82.0</ele><time>2026-04-27T16:12:25.003Z</time></trkpt><trkpt lat="43.672092337948946" lon="11.132107020492395"><ele>82.0</ele><time>2026-04-27T16:12:27.003Z</time></trkpt><trkpt lat="43.672001238839826" lon="11.132123762741362"><ele>82.0</ele><time>2026-04-27T16:12:30.003Z</time></trkpt><trkpt lat="43.671927082482476" lon="11.132148399055449"><ele>82.0</ele><time>2026-04-27T16:12:32.003Z</time></trkpt><trkpt lat="43.67184358262194" lon="11.13216544516958"><ele>82.0</ele><time>2026-04-27T16:12:34.003Z</time></trkpt><trkpt lat="43.67175373869836" lon="11.132200976006338"><ele>82.0</ele><time>2026-04-27T16:12:37.003Z</time></trkpt><trkpt lat="43.671659807373864" lon="11.132236201271786"><ele>82.0</ele><time>2026-04-27T16:12:40.003Z</time></trkpt><trkpt lat="43.67160010640981" lon="11.132275492540746"><ele>82.33333333333333</ele><time>2026-04-27T16:12:42.003Z</time></trkpt><trkpt lat="43.671529008099256" lon="11.132313597188952"><ele>82.66666666666666</ele><time>2026-04-27T16:12:44.003Z</time></trkpt><trkpt lat="43.67146431513668" lon="11.132343031020095"><ele>83.0</ele><time>2026-04-27T16:12:46.003Z</time></trkpt><trkpt lat="43.671406487106445" lon="11.132392932952675"><ele>83.33333333333333</ele><time>2026-04-27T16:12:48.003Z</time></trkpt><trkpt lat="43.67132785844437" lon="11.13244236458993"><ele>83.66666666666667</ele><time>2026-04-27T16:12:50.003Z</time></trkpt><trkpt lat="43.671260131968594" lon="11.132499378345075"><ele>84.0</ele><time>2026-04-27T16:12:52.003Z</time></trkpt><trkpt lat="43.67118656917224" lon="11.132547556375702"><ele>84.16666666666667</ele><time>2026-04-27T16:12:54.003Z</time></trkpt><trkpt lat="43.67112281470836" lon="11.13261233897977"><ele>84.33333333333333</ele><time>2026-04-27T16:12:56.003Z</time></trkpt><trkpt lat="43.67104782772514" lon="11.132676571388705"><ele>84.5</ele><time>2026-04-27T16:12:58.003Z</time></trkpt><trkpt lat="43.670974204947136" lon="11.1327469727062"><ele>84.66666666666666</ele><time>2026-04-27T16:13:00.003Z</time></trkpt><trkpt lat="43.670909994592186" lon="11.132805830369309"><ele>84.83333333333333</ele><time>2026-04-27T16:13:02.003Z</time></trkpt><trkpt lat="43.67084701739244" lon="11.132872821492665"><ele>85.0</ele><time>2026-04-27T16:13:04.003Z</time></trkpt><trkpt lat="43.67078601289869" lon="11.132918190502737"><ele>85.0</ele><time>2026-04-27T16:13:06.003Z</time></trkpt><trkpt lat="43.67071365010409" lon="11.132971183038082"><ele>85.0</ele><time>2026-04-27T16:13:08.003Z</time></trkpt><trkpt lat="43.670645520042285" lon="11.133042754425803"><ele>85.0</ele><time>2026-04-27T16:13:10.003Z</time></trkpt><trkpt lat="43.67056306929692" lon="11.13311547535234"><ele>85.0</ele><time>2026-04-27T16:13:12.003Z</time></trkpt><trkpt lat="43.67049305791997" lon="11.133198687772717"><ele>85.0</ele><time>2026-04-27T16:13:14.003Z</time></trkpt><trkpt lat="43.670427531636015" lon="11.133283659931596"><ele>85.0</ele><time>2026-04-27T16:13:16.003Z</time></trkpt><trkpt lat="43.67034799969965" lon="11.133363926071981"><ele>85.16666666666666</ele><time>2026-04-27T16:13:18.003Z</time></trkpt><trkpt lat="43.670274921217775" lon="11.133430776202937"><ele>85.33333333333333</ele><time>2026-04-27T16:13:20.003Z</time></trkpt><trkpt lat="43.67019444314061" lon="11.133511403665413"><ele>85.5</ele><time>2026-04-27T16:13:22.003Z</time></trkpt><trkpt lat="43.67013848473835" lon="11.133583466816987"><ele>85.66666666666667</ele><time>2026-04-27T16:13:24.003Z</time></trkpt><trkpt lat="43.67008193341822" lon="11.133640145363982"><ele>85.83333333333334</ele><time>2026-04-27T16:13:26.003Z</time></trkpt><trkpt lat="43.67002696250492" lon="11.13370477597366"><ele>86.0</ele><time>2026-04-27T16:13:28.003Z</time></trkpt><trkpt lat="43.66996527154724" lon="11.133774319495492"><ele>86.0</ele><time>2026-04-27T16:13:30.003Z</time></trkpt><trkpt lat="43.66990380341894" lon="11.133846328580589"><ele>86.0</ele><time>2026-04-27T16:13:32.003Z</time></trkpt><trkpt lat="43.669842351635594" lon="11.133909529541915"><ele>86.0</ele><time>2026-04-27T16:13:34.003Z</time></trkpt><trkpt lat="43.6697847154333" lon="11.133972831741426"><ele>86.0</ele><time>2026-04-27T16:13:36.003Z</time></trkpt><trkpt lat="43.66972014960397" lon="11.134033651065074"><ele>86.0</ele><time>2026-04-27T16:13:38.003Z</time></trkpt><trkpt lat="43.6696572305585" lon="11.13409044911306"><ele>86.0</ele><time>2026-04-27T16:13:40.003Z</time></trkpt><trkpt lat="43.669593770289666" lon="11.134167431434019"><ele>86.0</ele><time>2026-04-27T16:13:42.003Z</time></trkpt><trkpt lat="43.66952276574639" lon="11.134232409861198"><ele>86.0</ele><time>2026-04-27T16:13:44.003Z</time></trkpt><trkpt lat="43.669456319718925" lon="11.134298118234835"><ele>86.0</ele><time>2026-04-27T16:13:46.003Z</time></trkpt><trkpt lat="43.66938881817979" lon="11.134373470384935"><ele>86.0</ele><time>2026-04-27T16:13:48.003Z</time></trkpt><trkpt lat="43.669325499994116" lon="11.134421853513905"><ele>86.0</ele><time>2026-04-27T16:13:50.003Z</time></trkpt><trkpt lat="43.66925318301729" lon="11.134477878310129"><ele>86.0</ele><time>2026-04-27T16:13:52.004Z</time></trkpt><trkpt lat="43.669188730689044" lon="11.134540030591165"><ele>86.16666666666667</ele><time>2026-04-27T16:13:54.004Z</time></trkpt><trkpt lat="43.66911119883604" lon="11.13460978389039"><ele>86.33333333333334</ele><time>2026-04-27T16:13:56.004Z</time></trkpt><trkpt lat="43.6690448511398" lon="11.13467495572698"><ele>86.5</ele><time>2026-04-27T16:13:58.004Z</time></trkpt><trkpt lat="43.668978598993064" lon="11.134746789494171"><ele>86.66666666666667</ele><time>2026-04-27T16:14:00.004Z</time></trkpt><trkpt lat="43.6689173049733" lon="11.134808626241105"><ele>86.83333333333333</ele><time>2026-04-27T16:14:02.004Z</time></trkpt><trkpt lat="43.66885302759184" lon="11.13487339645182"><ele>87.0</ele><time>2026-04-27T16:14:04.004Z</time></trkpt><trkpt lat="43.66878366927259" lon="11.134933612758717"><ele>87.0</ele><time>2026-04-27T16:14:06.004Z</time></trkpt><trkpt lat="43.668724600469" lon="11.13500654411159"><ele>87.0</ele><time>2026-04-27T16:14:08.004Z</time></trkpt><trkpt lat="43.66865515807446" lon="11.135068891944588"><ele>87.0</ele><time>2026-04-27T16:14:10.004Z</time></trkpt><trkpt lat="43.66858348404649" lon="11.135140309115247"><ele>87.0</ele><time>2026-04-27T16:14:12.004Z</time></trkpt><trkpt lat="43.66851045585342" lon="11.135202753962355"><ele>87.0</ele><time>2026-04-27T16:14:14.004Z</time></trkpt><trkpt lat="43.66843829725478" lon="11.13527538085692"><ele>87.0</ele><time>2026-04-27T16:14:16.004Z</time></trkpt><trkpt lat="43.66835681506121" lon="11.135321735637723"><ele>87.0</ele><time>2026-04-27T16:14:18.004Z</time></trkpt><trkpt lat="43.66827407425326" lon="11.135357095922288"><ele>87.0</ele><time>2026-04-27T16:14:20.004Z</time></trkpt><trkpt lat="43.66819613010094" lon="11.135401575197706"><ele>87.0</ele><time>2026-04-27T16:14:22.004Z</time></trkpt><trkpt lat="43.66812648793653" lon="11.135416802918305"><ele>87.0</ele><time>2026-04-27T16:14:24.004Z</time></trkpt><trkpt lat="43.66805465576697" lon="11.13545162376258"><ele>87.0</ele><time>2026-04-27T16:14:26.004Z</time></trkpt><trkpt lat="43.66798244409451" lon="11.135485273585804"><ele>87.0</ele><time>2026-04-27T16:14:28.004Z</time></trkpt><trkpt lat="43.66790528839191" lon="11.135503863801098"><ele>87.0</ele><time>2026-04-27T16:14:30.004Z</time></trkpt><trkpt lat="43.66781594156454" lon="11.13551564034881"><ele>87.0</ele><time>2026-04-27T16:14:32.004Z</time></trkpt><trkpt lat="43.66774644970705" lon="11.135518930295454"><ele>87.0</ele><time>2026-04-27T16:14:34.004Z</time></trkpt><trkpt lat="43.667650242406964" lon="11.135519185333914"><ele>87.0</ele><time>2026-04-27T16:14:36.004Z</time></trkpt><trkpt lat="43.66757085273448" lon="11.135530748914308"><ele>87.0</ele><time>2026-04-27T16:14:38.004Z</time></trkpt><trkpt lat="43.6674906300186" lon="11.135524435318855"><ele>87.0</ele><time>2026-04-27T16:14:40.004Z</time></trkpt><trkpt lat="43.667415550293114" lon="11.135524297664167"><ele>87.16666666666667</ele><time>2026-04-27T16:14:42.004Z</time></trkpt><trkpt lat="43.6673419404865" lon="11.135526998471052"><ele>87.33333333333333</ele><time>2026-04-27T16:14:44.004Z</time></trkpt><trkpt lat="43.66725979420136" lon="11.135533119358158"><ele>87.5</ele><time>2026-04-27T16:14:46.004Z</time></trkpt><trkpt lat="43.66717833207336" lon="11.135544469506442"><ele>87.66666666666666</ele><time>2026-04-27T16:14:48.004Z</time></trkpt><trkpt lat="43.667098200104974" lon="11.135558321356541"><ele>87.83333333333333</ele><time>2026-04-27T16:14:50.004Z</time></trkpt><trkpt lat="43.66702209739112" lon="11.135564283656143"><ele>88.0</ele><time>2026-04-27T16:14:52.004Z</time></trkpt><trkpt lat="43.666953782600324" lon="11.135572641903316"><ele>88.0</ele><time>2026-04-27T16:14:54.004Z</time></trkpt><trkpt lat="43.666880986530465" lon="11.135568829022063"><ele>88.0</ele><time>2026-04-27T16:14:56.004Z</time></trkpt><trkpt lat="43.66680535030439" lon="11.135563851855643"><ele>88.0</ele><time>2026-04-27T16:14:58.004Z</time></trkpt><trkpt lat="43.66672694758293" lon="11.13556706148142"><ele>88.0</ele><time>2026-04-27T16:15:00.004Z</time></trkpt><trkpt lat="43.666653230838364" lon="11.135565660780843"><ele>88.0</ele><time>2026-04-27T16:15:02.004Z</time></trkpt><trkpt lat="43.66658354327635" lon="11.135568707652363"><ele>88.0</ele><time>2026-04-27T16:15:04.004Z</time></trkpt><trkpt lat="43.666516414921084" lon="11.135592626836464"><ele>88.0</ele><time>2026-04-27T16:15:06.004Z</time></trkpt><trkpt lat="43.66643467305683" lon="11.135625968835662"><ele>88.0</ele><time>2026-04-27T16:15:09.004Z</time></trkpt><trkpt lat="43.66636921980555" lon="11.135645571370242"><ele>88.0</ele><time>2026-04-27T16:15:11.004Z</time></trkpt><trkpt lat="43.666284597978056" lon="11.135672991228775"><ele>88.0</ele><time>2026-04-27T16:15:14.004Z</time></trkpt><trkpt lat="43.666216092579276" lon="11.135677718332007"><ele>88.0</ele><time>2026-04-27T16:15:16.004Z</time></trkpt><trkpt lat="43.666125454393146" lon="11.135703723244335"><ele>88.0</ele><time>2026-04-27T16:15:19.004Z</time></trkpt><trkpt lat="43.66606101716428" lon="11.135710880359737"><ele>88.0</ele><time>2026-04-27T16:15:21.004Z</time></trkpt><trkpt lat="43.66597502880304" lon="11.135731642233916"><ele>88.5</ele><time>2026-04-27T16:15:24.004Z</time></trkpt><trkpt lat="43.66590449802723" lon="11.135741461888344"><ele>89.0</ele><time>2026-04-27T16:15:26.004Z</time></trkpt><trkpt lat="43.66582754377466" lon="11.13577568522738"><ele>89.5</ele><time>2026-04-27T16:15:28.004Z</time></trkpt><trkpt lat="43.66575083256433" lon="11.135792257468754"><ele>90.0</ele><time>2026-04-27T16:15:30.004Z</time></trkpt><trkpt lat="43.665675140185215" lon="11.13581968112204"><ele>90.5</ele><time>2026-04-27T16:15:32.004Z</time></trkpt><trkpt lat="43.66560438167874" lon="11.13584220955673"><ele>91.0</ele><time>2026-04-27T16:15:34.004Z</time></trkpt><trkpt lat="43.6655278980092" lon="11.135875534342121"><ele>91.0</ele><time>2026-04-27T16:15:36.004Z</time></trkpt><trkpt lat="43.665452744830866" lon="11.135900374242883"><ele>91.0</ele><time>2026-04-27T16:15:38.004Z</time></trkpt><trkpt lat="43.66537863888316" lon="11.135936425069323"><ele>91.0</ele><time>2026-04-27T16:15:40.004Z</time></trkpt><trkpt lat="43.66530951655818" lon="11.135972457832212"><ele>91.0</ele><time>2026-04-27T16:15:42.004Z</time></trkpt><trkpt lat="43.66524145645711" lon="11.136010795115789"><ele>91.0</ele><time>2026-04-27T16:15:44.004Z</time></trkpt><trkpt lat="43.665183785321446" lon="11.136063448561641"><ele>91.0</ele><time>2026-04-27T16:15:46.004Z</time></trkpt><trkpt lat="43.66511544914917" lon="11.136132602841062"><ele>91.16666666666666</ele><time>2026-04-27T16:15:48.004Z</time></trkpt><trkpt lat="43.665052336789444" lon="11.136197769869094"><ele>91.33333333333333</ele><time>2026-04-27T16:15:50.004Z</time></trkpt><trkpt lat="43.664987170872564" lon="11.136275599039603"><ele>91.5</ele><time>2026-04-27T16:15:52.004Z</time></trkpt><trkpt lat="43.664915123780595" lon="11.136344260865352"><ele>91.66666666666667</ele><time>2026-04-27T16:15:54.004Z</time></trkpt><trkpt lat="43.664852508909625" lon="11.13641850335956"><ele>91.83333333333334</ele><time>2026-04-27T16:15:56.004Z</time></trkpt><trkpt lat="43.66478584375969" lon="11.136497818709307"><ele>92.0</ele><time>2026-04-27T16:15:58.004Z</time></trkpt><trkpt lat="43.66472375350916" lon="11.136579979241922"><ele>91.83333333333334</ele><time>2026-04-27T16:16:00.004Z</time></trkpt><trkpt lat="43.664668255943354" lon="11.136661204532128"><ele>91.66666666666667</ele><time>2026-04-27T16:16:02.004Z</time></trkpt><trkpt lat="43.664603443223164" lon="11.136732948487502"><ele>91.5</ele><time>2026-04-27T16:16:04.004Z</time></trkpt><trkpt lat="43.66453034634643" lon="11.136817220185826"><ele>91.33333333333333</ele><time>2026-04-27T16:16:06.004Z</time></trkpt><trkpt lat="43.66445397104801" lon="11.136889566823909"><ele>91.16666666666666</ele><time>2026-04-27T16:16:08.004Z</time></trkpt><trkpt lat="43.664382402789364" lon="11.13694875699793"><ele>91.0</ele><time>2026-04-27T16:16:10.004Z</time></trkpt><trkpt lat="43.66431956264334" lon="11.136992625203483"><ele>91.0</ele><time>2026-04-27T16:16:12.004Z</time></trkpt><trkpt lat="43.664257283952594" lon="11.137052286165392"><ele>91.0</ele><time>2026-04-27T16:16:14.004Z</time></trkpt><trkpt lat="43.66418740980592" lon="11.137112848915024"><ele>91.0</ele><time>2026-04-27T16:16:16.004Z</time></trkpt><trkpt lat="43.66411812060813" lon="11.137156988393528"><ele>91.0</ele><time>2026-04-27T16:16:18.004Z</time></trkpt><trkpt lat="43.664046883230064" lon="11.13720409020531"><ele>91.0</ele><time>2026-04-27T16:16:20.004Z</time></trkpt><trkpt lat="43.66397614198428" lon="11.137257111841722"><ele>91.0</ele><time>2026-04-27T16:16:22.004Z</time></trkpt><trkpt lat="43.66390200031254" lon="11.137293138928555"><ele>91.0</ele><time>2026-04-27T16:16:24.004Z</time></trkpt><trkpt lat="43.66383747202831" lon="11.137336419490724"><ele>91.0</ele><time>2026-04-27T16:16:26.004Z</time></trkpt><trkpt lat="43.663773850921544" lon="11.137378050264951"><ele>91.0</ele><time>2026-04-27T16:16:28.004Z</time></trkpt><trkpt lat="43.66370043316274" lon="11.137419818542607"><ele>91.0</ele><time>2026-04-27T16:16:30.004Z</time></trkpt><trkpt lat="43.66363683073095" lon="11.137446197583431"><ele>91.0</ele><time>2026-04-27T16:16:32.004Z</time></trkpt><trkpt lat="43.66356891138152" lon="11.137475364239393"><ele>91.0</ele><time>2026-04-27T16:16:34.004Z</time></trkpt><trkpt lat="43.66349880894492" lon="11.137504564133643"><ele>91.0</ele><time>2026-04-27T16:16:36.004Z</time></trkpt><trkpt lat="43.663430845050186" lon="11.137543095658145"><ele>91.16666666666666</ele><time>2026-04-27T16:16:38.004Z</time></trkpt><trkpt lat="43.66336830274957" lon="11.13758416246875"><ele>91.33333333333333</ele><time>2026-04-27T16:16:40.005Z</time></trkpt><trkpt lat="43.66330529617303" lon="11.137639175989836"><ele>91.5</ele><time>2026-04-27T16:16:42.005Z</time></trkpt><trkpt lat="43.663228788431326" lon="11.137695533007554"><ele>91.66666666666667</ele><time>2026-04-27T16:16:44.005Z</time></trkpt><trkpt lat="43.663155911617814" lon="11.137749612022235"><ele>91.83333333333334</ele><time>2026-04-27T16:16:46.005Z</time></trkpt><trkpt lat="43.6630909222174" lon="11.137801151338394"><ele>92.0</ele><time>2026-04-27T16:16:48.005Z</time></trkpt><trkpt lat="43.663021415047254" lon="11.137852340185962"><ele>92.0</ele><time>2026-04-27T16:16:50.005Z</time></trkpt><trkpt lat="43.662948519495636" lon="11.137913843954067"><ele>92.0</ele><time>2026-04-27T16:16:52.005Z</time></trkpt><trkpt lat="43.662876334203936" lon="11.137967726508236"><ele>92.0</ele><time>2026-04-27T16:16:54.005Z</time></trkpt><trkpt lat="43.66280263685127" lon="11.138021259308383"><ele>92.0</ele><time>2026-04-27T16:16:56.005Z</time></trkpt><trkpt lat="43.66272244389891" lon="11.138073889733406"><ele>92.0</ele><time>2026-04-27T16:16:58.005Z</time></trkpt><trkpt lat="43.66264936995998" lon="11.138134484649347"><ele>92.0</ele><time>2026-04-27T16:17:00.005Z</time></trkpt><trkpt lat="43.66257712893721" lon="11.138199432939228"><ele>92.0</ele><time>2026-04-27T16:17:02.005Z</time></trkpt><trkpt lat="43.66249276673503" lon="11.138253694560092"><ele>92.0</ele><time>2026-04-27T16:17:04.005Z</time></trkpt><trkpt lat="43.66241538551625" lon="11.138319323863982"><ele>92.0</ele><time>2026-04-27T16:17:06.005Z</time></trkpt><trkpt lat="43.662337888390226" lon="11.138392400581463"><ele>92.0</ele><time>2026-04-27T16:17:08.005Z</time></trkpt><trkpt lat="43.66225565903118" lon="11.138460603491733"><ele>92.0</ele><time>2026-04-27T16:17:10.005Z</time></trkpt><trkpt lat="43.66217814271335" lon="11.13853136251524"><ele>92.0</ele><time>2026-04-27T16:17:12.005Z</time></trkpt><trkpt lat="43.66210140196921" lon="11.138611466176302"><ele>92.0</ele><time>2026-04-27T16:17:14.005Z</time></trkpt><trkpt lat="43.66202847891655" lon="11.138678263787808"><ele>92.0</ele><time>2026-04-27T16:17:16.005Z</time></trkpt><trkpt lat="43.66195870771902" lon="11.138755427199715"><ele>92.0</ele><time>2026-04-27T16:17:18.005Z</time></trkpt><trkpt lat="43.6618848063995" lon="11.138823046189227"><ele>92.0</ele><time>2026-04-27T16:17:20.005Z</time></trkpt><trkpt lat="43.661812506313254" lon="11.138899359645132"><ele>91.83333333333334</ele><time>2026-04-27T16:17:22.005Z</time></trkpt><trkpt lat="43.66174689443072" lon="11.138973008641209"><ele>91.66666666666667</ele><time>2026-04-27T16:17:24.005Z</time></trkpt><trkpt lat="43.66167224820708" lon="11.139031117588791"><ele>91.5</ele><time>2026-04-27T16:17:26.005Z</time></trkpt><trkpt lat="43.66160621742358" lon="11.139094393572382"><ele>91.33333333333333</ele><time>2026-04-27T16:17:28.005Z</time></trkpt><trkpt lat="43.66154144607249" lon="11.139153773881759"><ele>91.16666666666666</ele><time>2026-04-27T16:17:30.005Z</time></trkpt><trkpt lat="43.66147761524198" lon="11.139216813605232"><ele>91.0</ele><time>2026-04-27T16:17:32.005Z</time></trkpt><trkpt lat="43.661413241276186" lon="11.139294060457877"><ele>91.0</ele><time>2026-04-27T16:17:34.005Z</time></trkpt><trkpt lat="43.66134962648245" lon="11.139360239552559"><ele>91.0</ele><time>2026-04-27T16:17:36.005Z</time></trkpt><trkpt lat="43.661292667143385" lon="11.139425026391232"><ele>91.0</ele><time>2026-04-27T16:17:38.005Z</time></trkpt><trkpt lat="43.66122984599108" lon="11.139499110991615"><ele>91.0</ele><time>2026-04-27T16:17:40.005Z</time></trkpt><trkpt lat="43.66116997126159" lon="11.139577213928357"><ele>91.0</ele><time>2026-04-27T16:17:42.005Z</time></trkpt><trkpt lat="43.66111310551563" lon="11.139651678651964"><ele>91.0</ele><time>2026-04-27T16:17:44.005Z</time></trkpt><trkpt lat="43.66105001915062" lon="11.139732060129335"><ele>91.33333333333333</ele><time>2026-04-27T16:17:46.005Z</time></trkpt><trkpt lat="43.661002778800736" lon="11.139823311151027"><ele>91.66666666666666</ele><time>2026-04-27T16:17:48.005Z</time></trkpt><trkpt lat="43.66099403537145" lon="11.139921484374296"><ele>92.0</ele><time>2026-04-27T16:17:50.005Z</time></trkpt><trkpt lat="43.66098909509179" lon="11.1400388346884"><ele>92.33333333333333</ele><time>2026-04-27T16:17:52.005Z</time></trkpt><trkpt lat="43.66096725713872" lon="11.140143929715517"><ele>92.66666666666667</ele><time>2026-04-27T16:17:54.005Z</time></trkpt><trkpt lat="43.660932340187465" lon="11.140252286135434"><ele>93.0</ele><time>2026-04-27T16:17:56.005Z</time></trkpt><trkpt lat="43.66089351600519" lon="11.140360518843444"><ele>93.2</ele><time>2026-04-27T16:17:58.005Z</time></trkpt><trkpt lat="43.66086483517138" lon="11.14047841074823"><ele>93.4</ele><time>2026-04-27T16:18:00.005Z</time></trkpt><trkpt lat="43.66083961700618" lon="11.140596822767591"><ele>93.60000000000001</ele><time>2026-04-27T16:18:02.005Z</time></trkpt><trkpt lat="43.66080646490548" lon="11.140715620765183"><ele>93.80000000000001</ele><time>2026-04-27T16:18:04.005Z</time></trkpt><trkpt lat="43.66076175922747" lon="11.140828380484495"><ele>94.0</ele><time>2026-04-27T16:18:06.005Z</time></trkpt><trkpt lat="43.66070986147343" lon="11.140927925838627"><ele>94.2</ele><time>2026-04-27T16:18:08.005Z</time></trkpt><trkpt lat="43.66064214905896" lon="11.1410326689771"><ele>94.4</ele><time>2026-04-27T16:18:10.005Z</time></trkpt><trkpt lat="43.66055753688421" lon="11.141135046320613"><ele>94.6</ele><time>2026-04-27T16:18:12.005Z</time></trkpt><trkpt lat="43.66046805481033" lon="11.141239170199478"><ele>94.8</ele><time>2026-04-27T16:18:14.005Z</time></trkpt><trkpt lat="43.66038510927792" lon="11.14130510107768"><ele>95.0</ele><time>2026-04-27T16:18:16.005Z</time></trkpt><trkpt lat="43.660327413489874" lon="11.14137736671369"><ele>95.0</ele><time>2026-04-27T16:18:18.005Z</time></trkpt><trkpt lat="43.660271182309174" lon="11.141443900279954"><ele>95.0</ele><time>2026-04-27T16:18:20.005Z</time></trkpt><trkpt lat="43.66022254649865" lon="11.141525120263953"><ele>95.0</ele><time>2026-04-27T16:18:22.005Z</time></trkpt><trkpt lat="43.6601671006133" lon="11.141601707749786"><ele>95.0</ele><time>2026-04-27T16:18:24.005Z</time></trkpt><trkpt lat="43.66011831779232" lon="11.141675442856847"><ele>95.0</ele><time>2026-04-27T16:18:26.005Z</time></trkpt><trkpt lat="43.660066248193374" lon="11.141758755161534"><ele>95.0</ele><time>2026-04-27T16:18:28.005Z</time></trkpt><trkpt lat="43.660018467893856" lon="11.141848471871068"><ele>95.16666666666667</ele><time>2026-04-27T16:18:30.005Z</time></trkpt><trkpt lat="43.65995988636044" lon="11.141935521566575"><ele>95.33333333333334</ele><time>2026-04-27T16:18:32.005Z</time></trkpt><trkpt lat="43.65990666539016" lon="11.142020583301264"><ele>95.5</ele><time>2026-04-27T16:18:34.005Z</time></trkpt><trkpt lat="43.659853503604126" lon="11.142104096233048"><ele>95.66666666666667</ele><time>2026-04-27T16:18:36.005Z</time></trkpt><trkpt lat="43.65979595797712" lon="11.142180618136384"><ele>95.83333333333333</ele><time>2026-04-27T16:18:38.005Z</time></trkpt><trkpt lat="43.65973195906598" lon="11.142240543672015"><ele>96.0</ele><time>2026-04-27T16:18:40.005Z</time></trkpt><trkpt lat="43.65967173244879" lon="11.142304009398304"><ele>96.0</ele><time>2026-04-27T16:18:42.005Z</time></trkpt><trkpt lat="43.65960783882058" lon="11.142370371088765"><ele>96.0</ele><time>2026-04-27T16:18:44.005Z</time></trkpt><trkpt lat="43.65954908629484" lon="11.142436892544625"><ele>96.0</ele><time>2026-04-27T16:18:46.005Z</time></trkpt><trkpt lat="43.65947928230004" lon="11.142504183149855"><ele>96.0</ele><time>2026-04-27T16:18:48.005Z</time></trkpt><trkpt lat="43.659413278256324" lon="11.1425666290234"><ele>96.0</ele><time>2026-04-27T16:18:50.005Z</time></trkpt><trkpt lat="43.6593487474409" lon="11.142637387118576"><ele>96.0</ele><time>2026-04-27T16:18:52.005Z</time></trkpt><trkpt lat="43.65928435517008" lon="11.142701433010238"><ele>95.83333333333333</ele><time>2026-04-27T16:18:54.005Z</time></trkpt><trkpt lat="43.65922203098243" lon="11.142771045765697"><ele>95.66666666666667</ele><time>2026-04-27T16:18:56.005Z</time></trkpt><trkpt lat="43.65916177663083" lon="11.142848077841375"><ele>95.5</ele><time>2026-04-27T16:18:58.005Z</time></trkpt><trkpt lat="43.65910918791902" lon="11.142926603828167"><ele>95.33333333333334</ele><time>2026-04-27T16:19:00.005Z</time></trkpt><trkpt lat="43.659053587057215" lon="11.143000165099918"><ele>95.16666666666667</ele><time>2026-04-27T16:19:02.005Z</time></trkpt><trkpt lat="43.65899773032912" lon="11.143072119144543"><ele>95.0</ele><time>2026-04-27T16:19:04.005Z</time></trkpt><trkpt lat="43.658937706983025" lon="11.14314459138131"><ele>95.0</ele><time>2026-04-27T16:19:06.005Z</time></trkpt><trkpt lat="43.658879864339475" lon="11.143207775474423"><ele>95.0</ele><time>2026-04-27T16:19:08.005Z</time></trkpt><trkpt lat="43.658816034495565" lon="11.143268758523876"><ele>95.0</ele><time>2026-04-27T16:19:10.005Z</time></trkpt><trkpt lat="43.658745325129004" lon="11.143317210272558"><ele>95.0</ele><time>2026-04-27T16:19:12.005Z</time></trkpt><trkpt lat="43.658666465767226" lon="11.143359487270827"><ele>95.0</ele><time>2026-04-27T16:19:14.005Z</time></trkpt><trkpt lat="43.658595086146505" lon="11.143401737672203"><ele>95.0</ele><time>2026-04-27T16:19:16.005Z</time></trkpt><trkpt lat="43.658539564434555" lon="11.143443058249868"><ele>95.5</ele><time>2026-04-27T16:19:18.005Z</time></trkpt><trkpt lat="43.65848077158453" lon="11.14348866099893"><ele>96.0</ele><time>2026-04-27T16:19:20.005Z</time></trkpt><trkpt lat="43.658436112560366" lon="11.143569034640747"><ele>96.5</ele><time>2026-04-27T16:19:22.005Z</time></trkpt><trkpt lat="43.65838635969532" lon="11.143659441851286"><ele>97.0</ele><time>2026-04-27T16:19:24.005Z</time></trkpt><trkpt lat="43.658337067751646" lon="11.143748410669764"><ele>97.49999999999999</ele><time>2026-04-27T16:19:26.005Z</time></trkpt><trkpt lat="43.65829488278038" lon="11.143819962385408"><ele>98.0</ele><time>2026-04-27T16:19:28.006Z</time></trkpt><trkpt lat="43.65823684189995" lon="11.143911471065955"><ele>97.99999999999999</ele><time>2026-04-27T16:19:30.006Z</time></trkpt><trkpt lat="43.658182835380295" lon="11.14399365710937"><ele>98.0</ele><time>2026-04-27T16:19:32.006Z</time></trkpt><trkpt lat="43.658128135273316" lon="11.144073707216359"><ele>98.0</ele><time>2026-04-27T16:19:34.006Z</time></trkpt><trkpt lat="43.65806688831718" lon="11.144140167153596"><ele>98.0</ele><time>2026-04-27T16:19:36.006Z</time></trkpt><trkpt lat="43.65800514155924" lon="11.144208341890002"><ele>97.99999999999999</ele><time>2026-04-27T16:19:38.006Z</time></trkpt><trkpt lat="43.65794419944543" lon="11.14427667722341"><ele>98.0</ele><time>2026-04-27T16:19:40.006Z</time></trkpt><trkpt lat="43.657882052612315" lon="11.144338276481978"><ele>97.99999999999999</ele><time>2026-04-27T16:19:42.006Z</time></trkpt><trkpt lat="43.657821062360625" lon="11.144397544253417"><ele>98.0</ele><time>2026-04-27T16:19:44.006Z</time></trkpt><trkpt lat="43.65776102065725" lon="11.144451237813884"><ele>98.0</ele><time>2026-04-27T16:19:46.006Z</time></trkpt><trkpt lat="43.65770988841716" lon="11.144526485270502"><ele>98.0</ele><time>2026-04-27T16:19:48.006Z</time></trkpt><trkpt lat="43.65766314661475" lon="11.144594419957055"><ele>97.99999999999999</ele><time>2026-04-27T16:19:50.006Z</time></trkpt><trkpt lat="43.65759861769965" lon="11.144689634007925"><ele>98.0</ele><time>2026-04-27T16:19:53.006Z</time></trkpt><trkpt lat="43.657547179643394" lon="11.144769004514753"><ele>97.99999999999999</ele><time>2026-04-27T16:19:55.006Z</time></trkpt><trkpt lat="43.65751702590477" lon="11.144860975032783"><ele>98.0</ele><time>2026-04-27T16:19:57.006Z</time></trkpt><trkpt lat="43.657494643981856" lon="11.144957801246658"><ele>98.0</ele><time>2026-04-27T16:19:59.006Z</time></trkpt><trkpt lat="43.657456769622605" lon="11.14504605157519"><ele>98.0</ele><time>2026-04-27T16:20:01.006Z</time></trkpt><trkpt lat="43.657429797220765" lon="11.145137619108482"><ele>97.99999999999999</ele><time>2026-04-27T16:20:03.006Z</time></trkpt><trkpt lat="43.65739107085472" lon="11.145214428246968"><ele>98.0</ele><time>2026-04-27T16:20:05.006Z</time></trkpt><trkpt lat="43.65733618204571" lon="11.145342893745852"><ele>97.99999999999999</ele><time>2026-04-27T16:20:08.006Z</time></trkpt><trkpt lat="43.65731495478128" lon="11.145470915185166"><ele>98.0</ele><time>2026-04-27T16:20:10.006Z</time></trkpt><trkpt lat="43.65733015930264" lon="11.145580399725043"><ele>98.0</ele><time>2026-04-27T16:20:12.006Z</time></trkpt><trkpt lat="43.65732390106589" lon="11.145686184668262"><ele>98.0</ele><time>2026-04-27T16:20:14.006Z</time></trkpt><trkpt lat="43.657322747041974" lon="11.145795768541396"><ele>97.99999999999999</ele><time>2026-04-27T16:20:16.006Z</time></trkpt><trkpt lat="43.65730965699999" lon="11.145912281576374"><ele>98.0</ele><time>2026-04-27T16:20:18.006Z</time></trkpt><trkpt lat="43.657300759828956" lon="11.146024098751068"><ele>97.99999999999999</ele><time>2026-04-27T16:20:20.006Z</time></trkpt><trkpt lat="43.657291300538446" lon="11.146135674383387"><ele>98.0</ele><time>2026-04-27T16:20:22.006Z</time></trkpt><trkpt lat="43.657265063988056" lon="11.14625764629512"><ele>98.0</ele><time>2026-04-27T16:20:24.006Z</time></trkpt><trkpt lat="43.65722835468611" lon="11.146361132012514"><ele>98.0</ele><time>2026-04-27T16:20:26.006Z</time></trkpt><trkpt lat="43.65720500638369" lon="11.146455883025043"><ele>97.99999999999999</ele><time>2026-04-27T16:20:28.006Z</time></trkpt><trkpt lat="43.657189032091786" lon="11.146547399720632"><ele>98.0</ele><time>2026-04-27T16:20:30.006Z</time></trkpt><trkpt lat="43.65716371769351" lon="11.146651964318417"><ele>97.99999999999999</ele><time>2026-04-27T16:20:32.006Z</time></trkpt><trkpt lat="43.65714204454213" lon="11.146756341260565"><ele>98.0</ele><time>2026-04-27T16:20:34.006Z</time></trkpt><trkpt lat="43.65712630167261" lon="11.14686344117261"><ele>98.0</ele><time>2026-04-27T16:20:36.006Z</time></trkpt><trkpt lat="43.657103930252106" lon="11.146978042619715"><ele>98.0</ele><time>2026-04-27T16:20:38.006Z</time></trkpt><trkpt lat="43.65708593571428" lon="11.147101098062757"><ele>97.99999999999999</ele><time>2026-04-27T16:20:40.006Z</time></trkpt><trkpt lat="43.65706566927189" lon="11.14722550881122"><ele>98.0</ele><time>2026-04-27T16:20:42.006Z</time></trkpt><trkpt lat="43.657052318700806" lon="11.147352113528688"><ele>97.99999999999999</ele><time>2026-04-27T16:20:44.006Z</time></trkpt><trkpt lat="43.65702851751801" lon="11.147469312623972"><ele>98.0</ele><time>2026-04-27T16:20:46.006Z</time></trkpt><trkpt lat="43.65700724958786" lon="11.147586394853962"><ele>98.0</ele><time>2026-04-27T16:20:48.006Z</time></trkpt><trkpt lat="43.6569840137479" lon="11.147701130870587"><ele>98.0</ele><time>2026-04-27T16:20:50.006Z</time></trkpt><trkpt lat="43.65697390424597" lon="11.147819220366928"><ele>97.99999999999999</ele><time>2026-04-27T16:20:52.006Z</time></trkpt><trkpt lat="43.656954270792305" lon="11.147930740510489"><ele>98.0</ele><time>2026-04-27T16:20:54.006Z</time></trkpt><trkpt lat="43.65691446538533" lon="11.14804523321342"><ele>97.99999999999999</ele><time>2026-04-27T16:20:56.006Z</time></trkpt><trkpt lat="43.65686103424396" lon="11.148146340725289"><ele>98.0</ele><time>2026-04-27T16:20:58.006Z</time></trkpt><trkpt lat="43.65680391712827" lon="11.148231386388375"><ele>98.0</ele><time>2026-04-27T16:21:00.006Z</time></trkpt><trkpt lat="43.65674845747457" lon="11.148302807585845"><ele>98.0</ele><time>2026-04-27T16:21:02.006Z</time></trkpt><trkpt lat="43.65669091967493" lon="11.148382569360159"><ele>97.99999999999999</ele><time>2026-04-27T16:21:04.006Z</time></trkpt><trkpt lat="43.6566257948957" lon="11.148454884207773"><ele>98.0</ele><time>2026-04-27T16:21:06.006Z</time></trkpt><trkpt lat="43.656554572121834" lon="11.148511117468399"><ele>98.14285714285714</ele><time>2026-04-27T16:21:08.006Z</time></trkpt><trkpt lat="43.65650077107105" lon="11.148584954898427"><ele>98.28571428571428</ele><time>2026-04-27T16:21:10.006Z</time></trkpt><trkpt lat="43.656445645233354" lon="11.148662179327719"><ele>98.42857142857143</ele><time>2026-04-27T16:21:12.006Z</time></trkpt><trkpt lat="43.65639896089217" lon="11.148733557610196"><ele>98.57142857142857</ele><time>2026-04-27T16:21:14.006Z</time></trkpt><trkpt lat="43.65634844065804" lon="11.148799990551007"><ele>98.71428571428571</ele><time>2026-04-27T16:21:16.006Z</time></trkpt><trkpt lat="43.65629962554601" lon="11.148877929385032"><ele>98.85714285714286</ele><time>2026-04-27T16:21:18.006Z</time></trkpt><trkpt lat="43.6562394705848" lon="11.148931145235151"><ele>99.0</ele><time>2026-04-27T16:21:20.006Z</time></trkpt><trkpt lat="43.65617175205662" lon="11.149001557534545"><ele>99.0</ele><time>2026-04-27T16:21:22.006Z</time></trkpt><trkpt lat="43.656108525845546" lon="11.149057120617352"><ele>99.0</ele><time>2026-04-27T16:21:24.006Z</time></trkpt><trkpt lat="43.656043963993774" lon="11.149117604987877"><ele>99.0</ele><time>2026-04-27T16:21:26.006Z</time></trkpt><trkpt lat="43.65598313018878" lon="11.14918539307149"><ele>99.0</ele><time>2026-04-27T16:21:28.006Z</time></trkpt><trkpt lat="43.65592188441693" lon="11.14925045705472"><ele>99.0</ele><time>2026-04-27T16:21:30.006Z</time></trkpt><trkpt lat="43.65585926862004" lon="11.149321858569333"><ele>99.0</ele><time>2026-04-27T16:21:32.006Z</time></trkpt><trkpt lat="43.65580326810273" lon="11.149381483918514"><ele>99.0</ele><time>2026-04-27T16:21:34.006Z</time></trkpt><trkpt lat="43.65574262213595" lon="11.149441582929315"><ele>99.0</ele><time>2026-04-27T16:21:36.006Z</time></trkpt><trkpt lat="43.655684107308204" lon="11.149509717879225"><ele>99.0</ele><time>2026-04-27T16:21:38.006Z</time></trkpt><trkpt lat="43.65561193810363" lon="11.14957160365897"><ele>99.0</ele><time>2026-04-27T16:21:40.006Z</time></trkpt><trkpt lat="43.65554430143757" lon="11.149631069188118"><ele>99.0</ele><time>2026-04-27T16:21:42.006Z</time></trkpt><trkpt lat="43.655475966935505" lon="11.149700862025776"><ele>99.0</ele><time>2026-04-27T16:21:44.006Z</time></trkpt><trkpt lat="43.6554087220667" lon="11.149779550282533"><ele>99.0</ele><time>2026-04-27T16:21:46.006Z</time></trkpt><trkpt lat="43.655348932158596" lon="11.149853952090485"><ele>99.0</ele><time>2026-04-27T16:21:48.006Z</time></trkpt><trkpt lat="43.65529212092758" lon="11.149934522809836"><ele>99.0</ele><time>2026-04-27T16:21:50.006Z</time></trkpt><trkpt lat="43.6552376150512" lon="11.150012795334035"><ele>99.0</ele><time>2026-04-27T16:21:52.006Z</time></trkpt><trkpt lat="43.65518248132726" lon="11.150081911916349"><ele>99.0</ele><time>2026-04-27T16:21:54.006Z</time></trkpt><trkpt lat="43.655139192588486" lon="11.1501763448534"><ele>99.0</ele><time>2026-04-27T16:21:56.006Z</time></trkpt><trkpt lat="43.65507352806639" lon="11.15024067783418"><ele>99.5</ele><time>2026-04-27T16:21:58.006Z</time></trkpt><trkpt lat="43.65501570837612" lon="11.150307765542985"><ele>100.0</ele><time>2026-04-27T16:22:00.006Z</time></trkpt><trkpt lat="43.6549509900594" lon="11.150381142388083"><ele>100.5</ele><time>2026-04-27T16:22:02.002Z</time></trkpt><trkpt lat="43.65489163982942" lon="11.150449688582585"><ele>101.0</ele><time>2026-04-27T16:22:04.002Z</time></trkpt><trkpt lat="43.654839631402396" lon="11.150511680055574"><ele>101.5</ele><time>2026-04-27T16:22:06.002Z</time></trkpt><trkpt lat="43.65478631301933" lon="11.150587785758441"><ele>102.0</ele><time>2026-04-27T16:22:08.002Z</time></trkpt><trkpt lat="43.6547241054043" lon="11.150657883326176"><ele>102.0</ele><time>2026-04-27T16:22:10.002Z</time></trkpt><trkpt lat="43.65466420553091" lon="11.15070897195365"><ele>102.0</ele><time>2026-04-27T16:22:12.002Z</time></trkpt><trkpt lat="43.65461509482107" lon="11.15077921684579"><ele>102.0</ele><time>2026-04-27T16:22:14.002Z</time></trkpt><trkpt lat="43.654555854389365" lon="11.150840166677995"><ele>102.0</ele><time>2026-04-27T16:22:16.002Z</time></trkpt><trkpt lat="43.65449942431966" lon="11.150886386346704"><ele>102.0</ele><time>2026-04-27T16:22:18.002Z</time></trkpt><trkpt lat="43.654439936757555" lon="11.150932776346055"><ele>102.0</ele><time>2026-04-27T16:22:20.002Z</time></trkpt><trkpt lat="43.65439136997473" lon="11.150992686580556"><ele>102.0</ele><time>2026-04-27T16:22:22.002Z</time></trkpt><trkpt lat="43.654339825320434" lon="11.151048561454928"><ele>102.0</ele><time>2026-04-27T16:22:24.002Z</time></trkpt><trkpt lat="43.65428823717594" lon="11.151130552086485"><ele>102.0</ele><time>2026-04-27T16:22:26.002Z</time></trkpt><trkpt lat="43.65424147780397" lon="11.151208096928217"><ele>102.0</ele><time>2026-04-27T16:22:28.002Z</time></trkpt><trkpt lat="43.65419612642615" lon="11.151295902524469"><ele>102.0</ele><time>2026-04-27T16:22:30.002Z</time></trkpt><trkpt lat="43.654144712812325" lon="11.151377513247281"><ele>102.0</ele><time>2026-04-27T16:22:32.002Z</time></trkpt><trkpt lat="43.65409173633014" lon="11.151467038938383"><ele>102.0</ele><time>2026-04-27T16:22:34.002Z</time></trkpt><trkpt lat="43.654047385089555" lon="11.151558042722007"><ele>102.0</ele><time>2026-04-27T16:22:36.002Z</time></trkpt><trkpt lat="43.653999203405334" lon="11.151647163238877"><ele>102.0</ele><time>2026-04-27T16:22:38.002Z</time></trkpt><trkpt lat="43.65395195404636" lon="11.151744278337704"><ele>102.0</ele><time>2026-04-27T16:22:40.002Z</time></trkpt><trkpt lat="43.653906307791985" lon="11.15184021563415"><ele>102.0</ele><time>2026-04-27T16:22:42.002Z</time></trkpt><trkpt lat="43.6538553315813" lon="11.151929606020065"><ele>102.0</ele><time>2026-04-27T16:22:44.002Z</time></trkpt><trkpt lat="43.65380784007842" lon="11.152016728101986"><ele>102.0</ele><time>2026-04-27T16:22:46.003Z</time></trkpt><trkpt lat="43.65376212091893" lon="11.152097187210682"><ele>102.0</ele><time>2026-04-27T16:22:48.003Z</time></trkpt><trkpt lat="43.65370979991765" lon="11.152185581005918"><ele>102.0</ele><time>2026-04-27T16:22:50.003Z</time></trkpt><trkpt lat="43.65365243289282" lon="11.152267692678446"><ele>102.0</ele><time>2026-04-27T16:22:52.002Z</time></trkpt><trkpt lat="43.65360046236956" lon="11.1523494564647"><ele>102.0</ele><time>2026-04-27T16:22:54.002Z</time></trkpt><trkpt lat="43.65354358707783" lon="11.152432560002076"><ele>102.0</ele><time>2026-04-27T16:22:56.002Z</time></trkpt><trkpt lat="43.653495122295475" lon="11.152514117280832"><ele>102.0</ele><time>2026-04-27T16:22:58.003Z</time></trkpt><trkpt lat="43.6534441881817" lon="11.152592417274045"><ele>101.83333333333333</ele><time>2026-04-27T16:23:00.003Z</time></trkpt><trkpt lat="43.65339127324566" lon="11.152676533112206"><ele>101.66666666666666</ele><time>2026-04-27T16:23:02.003Z</time></trkpt><trkpt lat="43.65333560273633" lon="11.152752740744189"><ele>101.5</ele><time>2026-04-27T16:23:04.003Z</time></trkpt><trkpt lat="43.65328889650473" lon="11.152836581837875"><ele>101.33333333333333</ele><time>2026-04-27T16:23:06.003Z</time></trkpt><trkpt lat="43.6532476780589" lon="11.152925204612695"><ele>101.16666666666666</ele><time>2026-04-27T16:23:08.003Z</time></trkpt><trkpt lat="43.65321168663714" lon="11.153014317216833"><ele>101.0</ele><time>2026-04-27T16:23:10.003Z</time></trkpt><trkpt lat="43.65317987826401" lon="11.153109645300372"><ele>101.33333333333333</ele><time>2026-04-27T16:23:12.003Z</time></trkpt><trkpt lat="43.6531503096479" lon="11.153215494623046"><ele>101.66666666666666</ele><time>2026-04-27T16:23:14.003Z</time></trkpt><trkpt lat="43.65311895137201" lon="11.153324035033753"><ele>102.0</ele><time>2026-04-27T16:23:16.003Z</time></trkpt><trkpt lat="43.65309127368782" lon="11.153431285421053"><ele>102.33333333333334</ele><time>2026-04-27T16:23:18.003Z</time></trkpt><trkpt lat="43.65305815047614" lon="11.153537366111983"><ele>102.66666666666667</ele><time>2026-04-27T16:23:20.003Z</time></trkpt><trkpt lat="43.653025348238586" lon="11.153640896084857"><ele>103.0</ele><time>2026-04-27T16:23:22.003Z</time></trkpt><trkpt lat="43.652980988529684" lon="11.153725763024363"><ele>103.00000000000001</ele><time>2026-04-27T16:23:24.003Z</time></trkpt><trkpt lat="43.652920471680126" lon="11.153798137180246"><ele>103.0</ele><time>2026-04-27T16:23:26.003Z</time></trkpt><trkpt lat="43.6528629161629" lon="11.153877706086247"><ele>103.0</ele><time>2026-04-27T16:23:28.003Z</time></trkpt><trkpt lat="43.65280135640702" lon="11.153948210445881"><ele>103.0</ele><time>2026-04-27T16:23:30.003Z</time></trkpt><trkpt lat="43.65273296120724" lon="11.153999767788246"><ele>103.00000000000001</ele><time>2026-04-27T16:23:32.003Z</time></trkpt><trkpt lat="43.65266522026116" lon="11.154062975140917"><ele>103.0</ele><time>2026-04-27T16:23:34.003Z</time></trkpt><trkpt lat="43.65259299368139" lon="11.15412438413794"><ele>103.50000000000001</ele><time>2026-04-27T16:23:36.003Z</time></trkpt><trkpt lat="43.652523618865786" lon="11.154182099770075"><ele>104.0</ele><time>2026-04-27T16:23:38.003Z</time></trkpt><trkpt lat="43.65244962976132" lon="11.154236299612746"><ele>104.5</ele><time>2026-04-27T16:23:40.003Z</time></trkpt><trkpt lat="43.65238161469369" lon="11.154292708680279"><ele>105.0</ele><time>2026-04-27T16:23:42.003Z</time></trkpt><trkpt lat="43.65231984963247" lon="11.154356713239997"><ele>105.50000000000001</ele><time>2026-04-27T16:23:44.003Z</time></trkpt><trkpt lat="43.652267730525615" lon="11.154435577537592"><ele>106.0</ele><time>2026-04-27T16:23:46.003Z</time></trkpt><trkpt lat="43.65223172412034" lon="11.154520946009608"><ele>106.00000000000001</ele><time>2026-04-27T16:23:48.003Z</time></trkpt><trkpt lat="43.652187696063685" lon="11.154609561304326"><ele>106.0</ele><time>2026-04-27T16:23:50.003Z</time></trkpt><trkpt lat="43.65216224630325" lon="11.15470070690891"><ele>106.0</ele><time>2026-04-27T16:23:52.003Z</time></trkpt><trkpt lat="43.652123860056406" lon="11.15479255304101"><ele>106.0</ele><time>2026-04-27T16:23:54.003Z</time></trkpt><trkpt lat="43.652085808190925" lon="11.154886155162064"><ele>106.00000000000001</ele><time>2026-04-27T16:23:56.003Z</time></trkpt><trkpt lat="43.65203537463884" lon="11.154980564997315"><ele>106.0</ele><time>2026-04-27T16:23:58.003Z</time></trkpt><trkpt lat="43.65198246992067" lon="11.155072254592046"><ele>106.00000000000001</ele><time>2026-04-27T16:24:00.003Z</time></trkpt><trkpt lat="43.651917571242905" lon="11.155140296134142"><ele>106.0</ele><time>2026-04-27T16:24:02.003Z</time></trkpt><trkpt lat="43.6518472480571" lon="11.155205846453661"><ele>106.0</ele><time>2026-04-27T16:24:04.003Z</time></trkpt><trkpt lat="43.65177715873782" lon="11.155271597574789"><ele>106.0</ele><time>2026-04-27T16:24:06.003Z</time></trkpt><trkpt lat="43.651710221999856" lon="11.155341068993605"><ele>106.00000000000001</ele><time>2026-04-27T16:24:08.003Z</time></trkpt><trkpt lat="43.65163758989752" lon="11.155409090846732"><ele>106.0</ele><time>2026-04-27T16:24:10.003Z</time></trkpt><trkpt lat="43.651569925616684" lon="11.155477863742886"><ele>106.00000000000001</ele><time>2026-04-27T16:24:12.003Z</time></trkpt><trkpt lat="43.651502910249775" lon="11.15554885597023"><ele>106.0</ele><time>2026-04-27T16:24:14.003Z</time></trkpt><trkpt lat="43.65143721931595" lon="11.155620646846094"><ele>106.0</ele><time>2026-04-27T16:24:16.003Z</time></trkpt><trkpt lat="43.65136930124868" lon="11.155686277215047"><ele>106.0</ele><time>2026-04-27T16:24:18.003Z</time></trkpt><trkpt lat="43.65130167128604" lon="11.15575292048241"><ele>106.00000000000001</ele><time>2026-04-27T16:24:20.003Z</time></trkpt><trkpt lat="43.65125908760455" lon="11.155847968990683"><ele>106.0</ele><time>2026-04-27T16:24:22.003Z</time></trkpt><trkpt lat="43.651213654395704" lon="11.155931655481004"><ele>106.16666666666667</ele><time>2026-04-27T16:24:24.003Z</time></trkpt><trkpt lat="43.65117789480645" lon="11.156026378406855"><ele>106.33333333333334</ele><time>2026-04-27T16:24:26.003Z</time></trkpt><trkpt lat="43.651158766275806" lon="11.15612932524516"><ele>106.5</ele><time>2026-04-27T16:24:28.003Z</time></trkpt><trkpt lat="43.651134766674275" lon="11.15622235587893"><ele>106.66666666666666</ele><time>2026-04-27T16:24:30.003Z</time></trkpt><trkpt lat="43.651106109451945" lon="11.15632110493065"><ele>106.83333333333333</ele><time>2026-04-27T16:24:32.003Z</time></trkpt><trkpt lat="43.65107243083209" lon="11.15641788016928"><ele>107.0</ele><time>2026-04-27T16:24:34.003Z</time></trkpt><trkpt lat="43.651043980657654" lon="11.156509301655184"><ele>106.83333333333333</ele><time>2026-04-27T16:24:36.003Z</time></trkpt><trkpt lat="43.651003901423614" lon="11.156598069678084"><ele>106.66666666666666</ele><time>2026-04-27T16:24:38.003Z</time></trkpt><trkpt lat="43.65095549699952" lon="11.156685132218211"><ele>106.5</ele><time>2026-04-27T16:24:40.003Z</time></trkpt><trkpt lat="43.6509003947136" lon="11.156763030888444"><ele>106.33333333333334</ele><time>2026-04-27T16:24:42.003Z</time></trkpt><trkpt lat="43.650843934282584" lon="11.156833325439578"><ele>106.16666666666667</ele><time>2026-04-27T16:24:44.003Z</time></trkpt><trkpt lat="43.65078648643154" lon="11.156920463487586"><ele>106.0</ele><time>2026-04-27T16:24:46.003Z</time></trkpt><trkpt lat="43.65072968737629" lon="11.157008331889115"><ele>106.00000000000001</ele><time>2026-04-27T16:24:48.003Z</time></trkpt><trkpt lat="43.650669028081445" lon="11.1570948394716"><ele>106.0</ele><time>2026-04-27T16:24:50.003Z</time></trkpt><trkpt lat="43.6506084600701" lon="11.157178654664929"><ele>106.0</ele><time>2026-04-27T16:24:52.003Z</time></trkpt><trkpt lat="43.65054979989327" lon="11.157270354455102"><ele>106.0</ele><time>2026-04-27T16:24:54.002Z</time></trkpt><trkpt lat="43.650494514985006" lon="11.157354743862491"><ele>106.00000000000001</ele><time>2026-04-27T16:24:56.003Z</time></trkpt><trkpt lat="43.650439767987045" lon="11.157449451401074"><ele>106.0</ele><time>2026-04-27T16:24:58.003Z</time></trkpt><trkpt lat="43.650380973151634" lon="11.157538145054838"><ele>106.00000000000001</ele><time>2026-04-27T16:25:00.003Z</time></trkpt><trkpt lat="43.65033231305483" lon="11.157625701471625"><ele>106.0</ele><time>2026-04-27T16:25:02.003Z</time></trkpt><trkpt lat="43.65028699807744" lon="11.157729575837614"><ele>106.0</ele><time>2026-04-27T16:25:04.003Z</time></trkpt><trkpt lat="43.65025973698202" lon="11.157840032430538"><ele>106.0</ele><time>2026-04-27T16:25:06.004Z</time></trkpt><trkpt lat="43.650233123756124" lon="11.157951176958251"><ele>106.00000000000001</ele><time>2026-04-27T16:25:08.004Z</time></trkpt><trkpt lat="43.65020745472471" lon="11.158067922780576"><ele>106.0</ele><time>2026-04-27T16:25:10.004Z</time></trkpt><trkpt lat="43.65018551720796" lon="11.158186576040752"><ele>106.19999999999999</ele><time>2026-04-27T16:25:12.004Z</time></trkpt><trkpt lat="43.65017131534817" lon="11.158305998682337"><ele>106.39999999999999</ele><time>2026-04-27T16:25:14.004Z</time></trkpt><trkpt lat="43.650148415385246" lon="11.158433001574561"><ele>106.6</ele><time>2026-04-27T16:25:16.004Z</time></trkpt><trkpt lat="43.650125859698726" lon="11.158557868722655"><ele>106.8</ele><time>2026-04-27T16:25:18.004Z</time></trkpt><trkpt lat="43.65009525221448" lon="11.158684048759707"><ele>107.0</ele><time>2026-04-27T16:25:20.004Z</time></trkpt><trkpt lat="43.650075904517024" lon="11.158812833398636"><ele>107.0</ele><time>2026-04-27T16:25:22.004Z</time></trkpt><trkpt lat="43.65004971801894" lon="11.158940229965372"><ele>106.99999999999999</ele><time>2026-04-27T16:25:24.004Z</time></trkpt><trkpt lat="43.65001575254877" lon="11.159065354506547"><ele>106.99999999999999</ele><time>2026-04-27T16:25:26.004Z</time></trkpt><trkpt lat="43.64997663252891" lon="11.159197598182953"><ele>107.0</ele><time>2026-04-27T16:25:28.004Z</time></trkpt><trkpt lat="43.64992375577692" lon="11.159318961470355"><ele>107.0</ele><time>2026-04-27T16:25:30.004Z</time></trkpt><trkpt lat="43.64986771974906" lon="11.159433426989077"><ele>107.0</ele><time>2026-04-27T16:25:32.004Z</time></trkpt><trkpt lat="43.64980300075493" lon="11.159537056389519"><ele>106.99999999999999</ele><time>2026-04-27T16:25:34.004Z</time></trkpt><trkpt lat="43.64974033313511" lon="11.159640480675428"><ele>106.99999999999999</ele><time>2026-04-27T16:25:36.004Z</time></trkpt><trkpt lat="43.64968390428876" lon="11.159750984718967"><ele>107.0</ele><time>2026-04-27T16:25:38.004Z</time></trkpt><trkpt lat="43.649626534865014" lon="11.159861208722978"><ele>107.0</ele><time>2026-04-27T16:25:40.004Z</time></trkpt><trkpt lat="43.64957277736019" lon="11.159970768066872"><ele>107.19999999999999</ele><time>2026-04-27T16:25:42.004Z</time></trkpt><trkpt lat="43.6495195114357" lon="11.160068326743666"><ele>107.39999999999999</ele><time>2026-04-27T16:25:44.004Z</time></trkpt><trkpt lat="43.649471517478084" lon="11.160175317291445"><ele>107.60000000000001</ele><time>2026-04-27T16:25:46.004Z</time></trkpt><trkpt lat="43.64941648191166" lon="11.160276834475194"><ele>107.80000000000001</ele><time>2026-04-27T16:25:48.004Z</time></trkpt><trkpt lat="43.64935953949976" lon="11.160369145892552"><ele>108.0</ele><time>2026-04-27T16:25:50.004Z</time></trkpt><trkpt lat="43.64930657690352" lon="11.16047426126633"><ele>108.0</ele><time>2026-04-27T16:25:52.004Z</time></trkpt><trkpt lat="43.64925721448827" lon="11.160582324148056"><ele>108.0</ele><time>2026-04-27T16:25:54.004Z</time></trkpt><trkpt lat="43.64920045814203" lon="11.160683746484498"><ele>108.0</ele><time>2026-04-27T16:25:56.004Z</time></trkpt><trkpt lat="43.649148013173544" lon="11.160781997201902"><ele>108.0</ele><time>2026-04-27T16:25:58.004Z</time></trkpt><trkpt lat="43.64909881030916" lon="11.160884887974012"><ele>108.0</ele><time>2026-04-27T16:26:00.004Z</time></trkpt><trkpt lat="43.649052396802794" lon="11.160982067052613"><ele>108.0</ele><time>2026-04-27T16:26:02.004Z</time></trkpt><trkpt lat="43.6489965044966" lon="11.161077319017588"><ele>108.16666666666667</ele><time>2026-04-27T16:26:04.004Z</time></trkpt><trkpt lat="43.64895195206211" lon="11.161177839278487"><ele>108.33333333333334</ele><time>2026-04-27T16:26:06.004Z</time></trkpt><trkpt lat="43.64891155372756" lon="11.161273998302226"><ele>108.5</ele><time>2026-04-27T16:26:08.004Z</time></trkpt><trkpt lat="43.64886818547996" lon="11.16136652015647"><ele>108.66666666666667</ele><time>2026-04-27T16:26:10.004Z</time></trkpt><trkpt lat="43.648822493308" lon="11.161452719696904"><ele>108.83333333333334</ele><time>2026-04-27T16:26:12.004Z</time></trkpt><trkpt lat="43.6487788389094" lon="11.161547463004167"><ele>109.0</ele><time>2026-04-27T16:26:14.004Z</time></trkpt><trkpt lat="43.64873485638381" lon="11.161630569186322"><ele>109.00000000000001</ele><time>2026-04-27T16:26:16.004Z</time></trkpt><trkpt lat="43.64868611018124" lon="11.161727680380228"><ele>109.0</ele><time>2026-04-27T16:26:18.004Z</time></trkpt><trkpt lat="43.64863298373979" lon="11.161831643622087"><ele>109.0</ele><time>2026-04-27T16:26:20.004Z</time></trkpt><trkpt lat="43.648583423315095" lon="11.161920501451057"><ele>109.0</ele><time>2026-04-27T16:26:22.004Z</time></trkpt><trkpt lat="43.648532174707704" lon="11.16200435550344"><ele>109.00000000000001</ele><time>2026-04-27T16:26:24.004Z</time></trkpt><trkpt lat="43.64847645829794" lon="11.162075090045576"><ele>109.0</ele><time>2026-04-27T16:26:26.004Z</time></trkpt><trkpt lat="43.64841039326027" lon="11.16214660313346"><ele>109.00000000000001</ele><time>2026-04-27T16:26:28.004Z</time></trkpt><trkpt lat="43.64835409310851" lon="11.162230887267075"><ele>109.0</ele><time>2026-04-27T16:26:30.004Z</time></trkpt><trkpt lat="43.6482959795542" lon="11.162306946013704"><ele>109.0</ele><time>2026-04-27T16:26:32.004Z</time></trkpt><trkpt lat="43.64824059430366" lon="11.162390833593749"><ele>109.0</ele><time>2026-04-27T16:26:34.004Z</time></trkpt><trkpt lat="43.64818648278852" lon="11.162480152731948"><ele>109.00000000000001</ele><time>2026-04-27T16:26:36.004Z</time></trkpt><trkpt lat="43.64813021212518" lon="11.162561728032731"><ele>109.0</ele><time>2026-04-27T16:26:38.004Z</time></trkpt><trkpt lat="43.64806967069555" lon="11.16264124493541"><ele>109.33333333333334</ele><time>2026-04-27T16:26:40.004Z</time></trkpt><trkpt lat="43.64801453361733" lon="11.162713743660374"><ele>109.66666666666667</ele><time>2026-04-27T16:26:42.004Z</time></trkpt><trkpt lat="43.647945585441235" lon="11.162798055793747"><ele>110.0</ele><time>2026-04-27T16:26:44.004Z</time></trkpt><trkpt lat="43.647879801967555" lon="11.162878751395603"><ele>110.33333333333334</ele><time>2026-04-27T16:26:46.004Z</time></trkpt><trkpt lat="43.64781623048804" lon="11.16295369621059"><ele>110.66666666666667</ele><time>2026-04-27T16:26:48.004Z</time></trkpt><trkpt lat="43.647746662887215" lon="11.163028000420562"><ele>111.0</ele><time>2026-04-27T16:26:50.004Z</time></trkpt><trkpt lat="43.64768060817872" lon="11.163110510131032"><ele>111.0</ele><time>2026-04-27T16:26:52.004Z</time></trkpt><trkpt lat="43.64762663205072" lon="11.163183288083827"><ele>111.0</ele><time>2026-04-27T16:26:54.004Z</time></trkpt><trkpt lat="43.647557928222376" lon="11.163256700386476"><ele>111.0</ele><time>2026-04-27T16:26:56.004Z</time></trkpt><trkpt lat="43.64749105460349" lon="11.163330431583839"><ele>111.0</ele><time>2026-04-27T16:26:58.003Z</time></trkpt><trkpt lat="43.64742232101476" lon="11.1633835109792"><ele>111.0</ele><time>2026-04-27T16:27:00.003Z</time></trkpt><trkpt lat="43.64735945281621" lon="11.163443537680388"><ele>111.0</ele><time>2026-04-27T16:27:02.004Z</time></trkpt><trkpt lat="43.64728631072253" lon="11.163511258837994"><ele>111.16666666666667</ele><time>2026-04-27T16:27:04.003Z</time></trkpt><trkpt lat="43.64721489712279" lon="11.163570067222217"><ele>111.33333333333334</ele><time>2026-04-27T16:27:06.003Z</time></trkpt><trkpt lat="43.64714017818914" lon="11.163636588717726"><ele>111.5</ele><time>2026-04-27T16:27:08.003Z</time></trkpt><trkpt lat="43.64706828478599" lon="11.163703962166963"><ele>111.66666666666667</ele><time>2026-04-27T16:27:10.004Z</time></trkpt><trkpt lat="43.646996830562486" lon="11.163767648513675"><ele>111.83333333333334</ele><time>2026-04-27T16:27:12.003Z</time></trkpt><trkpt lat="43.6469293033589" lon="11.163826607332135"><ele>112.0</ele><time>2026-04-27T16:27:14.003Z</time></trkpt><trkpt lat="43.64685840818539" lon="11.163882999022773"><ele>112.14285714285714</ele><time>2026-04-27T16:27:16.003Z</time></trkpt><trkpt lat="43.64679334600261" lon="11.163936510681173"><ele>112.28571428571428</ele><time>2026-04-27T16:27:18.003Z</time></trkpt><trkpt lat="43.64672239634909" lon="11.163981835010638"><ele>112.42857142857143</ele><time>2026-04-27T16:27:20.003Z</time></trkpt><trkpt lat="43.646654401972505" lon="11.164027313445237"><ele>112.57142857142857</ele><time>2026-04-27T16:27:22.003Z</time></trkpt><trkpt lat="43.64658654634469" lon="11.164062215441657"><ele>112.71428571428571</ele><time>2026-04-27T16:27:24.003Z</time></trkpt><trkpt lat="43.646516289594814" lon="11.164070050682135"><ele>112.85714285714286</ele><time>2026-04-27T16:27:26.003Z</time></trkpt><trkpt lat="43.64644469243221" lon="11.164087712794114"><ele>113.0</ele><time>2026-04-27T16:27:28.003Z</time></trkpt><trkpt lat="43.646377710059205" lon="11.16409225298967"><ele>113.0</ele><time>2026-04-27T16:27:30.003Z</time></trkpt><trkpt lat="43.64630710165406" lon="11.16410023095552"><ele>113.0</ele><time>2026-04-27T16:27:32.003Z</time></trkpt><trkpt lat="43.64623340509073" lon="11.164099549132885"><ele>113.0</ele><time>2026-04-27T16:27:34.003Z</time></trkpt><trkpt lat="43.646152876067845" lon="11.164124253142889"><ele>113.0</ele><time>2026-04-27T16:27:36.003Z</time></trkpt><trkpt lat="43.64608412779136" lon="11.164143075232323"><ele>113.0</ele><time>2026-04-27T16:27:38.003Z</time></trkpt><trkpt lat="43.646022396043755" lon="11.16416296092076"><ele>113.0</ele><time>2026-04-27T16:27:40.003Z</time></trkpt><trkpt lat="43.645969196385664" lon="11.164247617412148"><ele>113.0</ele><time>2026-04-27T16:27:43.003Z</time></trkpt><trkpt lat="43.645936486415124" lon="11.164363406631292"><ele>113.14285714285714</ele><time>2026-04-27T16:27:46.004Z</time></trkpt><trkpt lat="43.64591843480661" lon="11.164447659910362"><ele>113.28571428571428</ele><time>2026-04-27T16:27:49.004Z</time></trkpt><trkpt lat="43.64587966832911" lon="11.164540489769546"><ele>113.42857142857142</ele><time>2026-04-27T16:28:02.004Z</time></trkpt><trkpt lat="43.64582603295908" lon="11.164594675602668"><ele>113.57142857142857</ele><time>2026-04-27T16:28:05.004Z</time></trkpt><trkpt lat="43.64578777686353" lon="11.164664880910609"><ele>113.7142857142857</ele><time>2026-04-27T16:28:08.004Z</time></trkpt><trkpt lat="43.645738848273666" lon="11.164589647585547"><ele>113.85714285714285</ele><time>2026-04-27T16:28:13.004Z</time></trkpt><trkpt lat="43.64571938384041" lon="11.164473158996397"><ele>114.0</ele><time>2026-04-27T16:28:18.004Z</time></trkpt><trkpt lat="43.64568841693768" lon="11.164366671371804"><ele>114.0</ele><time>2026-04-27T16:28:21.004Z</time></trkpt><trkpt lat="43.645628790560146" lon="11.164332337884082"><ele>114.0</ele><time>2026-04-27T16:28:24.004Z</time></trkpt><trkpt lat="43.645566606032354" lon="11.16434714414416"><ele>114.0</ele><time>2026-04-27T16:28:27.004Z</time></trkpt><trkpt lat="43.645496701297034" lon="11.164350704671198"><ele>114.0</ele><time>2026-04-27T16:28:30.004Z</time></trkpt><trkpt lat="43.64543306495613" lon="11.164336608301484"><ele>114.0</ele><time>2026-04-27T16:28:34.004Z</time></trkpt><trkpt lat="43.6453279501901" lon="11.164365912763971"><ele>114.0</ele><time>2026-04-27T16:29:03.004Z</time></trkpt><trkpt lat="43.64544100965371" lon="11.16432598610464"><ele>114.0</ele><time>2026-04-27T16:29:48.004Z</time></trkpt><trkpt lat="43.64535899363301" lon="11.164344213024766"><ele>114.0</ele><time>2026-04-27T16:32:40.002Z</time></trkpt><trkpt lat="43.64528283525668" lon="11.164354794710684"><ele>114.0</ele><time>2026-04-27T16:32:44.001Z</time></trkpt><trkpt lat="43.645214334077146" lon="11.164368740751184"><ele>114.0</ele><time>2026-04-27T16:32:47.001Z</time></trkpt><trkpt lat="43.645138059980354" lon="11.164375312849792"><ele>114.0</ele><time>2026-04-27T16:32:50.001Z</time></trkpt><trkpt lat="43.64506616920468" lon="11.164379896434141"><ele>114.0</ele><time>2026-04-27T16:32:53.001Z</time></trkpt><trkpt lat="43.64498790404929" lon="11.16438725735174"><ele>113.71428571428571</ele><time>2026-04-27T16:32:56.001Z</time></trkpt><trkpt lat="43.644921035981326" lon="11.164399442174748"><ele>113.42857142857142</ele><time>2026-04-27T16:32:59.001Z</time></trkpt><trkpt lat="43.64483337431424" lon="11.164400999801643"><ele>113.14285714285714</ele><time>2026-04-27T16:33:02.001Z</time></trkpt><trkpt lat="43.64476423992099" lon="11.164425619157761"><ele>112.85714285714286</ele><time>2026-04-27T16:33:04.001Z</time></trkpt><trkpt lat="43.64469679887333" lon="11.164442810908993"><ele>112.57142857142857</ele><time>2026-04-27T16:33:06.001Z</time></trkpt><trkpt lat="43.644631958398655" lon="11.164455474060075"><ele>112.28571428571428</ele><time>2026-04-27T16:33:08.001Z</time></trkpt><trkpt lat="43.64456892984355" lon="11.164474194894284"><ele>112.0</ele><time>2026-04-27T16:33:10.001Z</time></trkpt><trkpt lat="43.64448448986653" lon="11.16449129882198"><ele>112.00000000000001</ele><time>2026-04-27T16:33:13.001Z</time></trkpt><trkpt lat="43.64438985102241" lon="11.164505151273785"><ele>112.0</ele><time>2026-04-27T16:33:16.002Z</time></trkpt><trkpt lat="43.64430319645072" lon="11.164533331440705"><ele>112.0</ele><time>2026-04-27T16:33:19.002Z</time></trkpt><trkpt lat="43.644212394472646" lon="11.16455347246549"><ele>112.0</ele><time>2026-04-27T16:33:22.001Z</time></trkpt><trkpt lat="43.64414971913778" lon="11.1645704929554"><ele>112.00000000000001</ele><time>2026-04-27T16:33:24.001Z</time></trkpt><trkpt lat="43.64405758476608" lon="11.164591437657036"><ele>112.0</ele><time>2026-04-27T16:33:27.001Z</time></trkpt><trkpt lat="43.64399340734245" lon="11.164604520845094"><ele>112.0</ele><time>2026-04-27T16:33:29.001Z</time></trkpt><trkpt lat="43.64389828977696" lon="11.164640563472751"><ele>112.0</ele><time>2026-04-27T16:33:32.001Z</time></trkpt><trkpt lat="43.64382972894311" lon="11.164678280519013"><ele>112.0</ele><time>2026-04-27T16:33:34.001Z</time></trkpt><trkpt lat="43.64377154257053" lon="11.164718287718136"><ele>112.0</ele><time>2026-04-27T16:33:36.001Z</time></trkpt><trkpt lat="43.64371532435125" lon="11.164766186559993"><ele>112.0</ele><time>2026-04-27T16:33:38.001Z</time></trkpt><trkpt lat="43.643654353625834" lon="11.164810227198993"><ele>112.0</ele><time>2026-04-27T16:33:40.001Z</time></trkpt><trkpt lat="43.64359521124636" lon="11.16484913578696"><ele>112.0</ele><time>2026-04-27T16:33:42.001Z</time></trkpt><trkpt lat="43.64350862789321" lon="11.164891546823249"><ele>112.16666666666667</ele><time>2026-04-27T16:33:45.001Z</time></trkpt><trkpt lat="43.643436187757146" lon="11.16491903758786"><ele>112.33333333333334</ele><time>2026-04-27T16:33:47.001Z</time></trkpt><trkpt lat="43.64336486009163" lon="11.164957051844258"><ele>112.5</ele><time>2026-04-27T16:33:49.001Z</time></trkpt><trkpt lat="43.64329220174633" lon="11.164977837544656"><ele>112.66666666666666</ele><time>2026-04-27T16:33:51.001Z</time></trkpt><trkpt lat="43.64321221463629" lon="11.16501354592708"><ele>112.83333333333333</ele><time>2026-04-27T16:33:53.001Z</time></trkpt><trkpt lat="43.643130776200664" lon="11.1650509403983"><ele>113.0</ele><time>2026-04-27T16:33:55.001Z</time></trkpt><trkpt lat="43.64305261672152" lon="11.165087031317634"><ele>113.0</ele><time>2026-04-27T16:33:57.001Z</time></trkpt><trkpt lat="43.64297949870834" lon="11.165121479837586"><ele>113.0</ele><time>2026-04-27T16:33:59.001Z</time></trkpt><trkpt lat="43.64290448060957" lon="11.165152184818881"><ele>113.0</ele><time>2026-04-27T16:34:01.001Z</time></trkpt><trkpt lat="43.642832501158075" lon="11.165186810020614"><ele>113.0</ele><time>2026-04-27T16:34:03.001Z</time></trkpt><trkpt lat="43.642764342221994" lon="11.165226137302913"><ele>113.0</ele><time>2026-04-27T16:34:05.001Z</time></trkpt><trkpt lat="43.64270229362795" lon="11.16526008504965"><ele>113.0</ele><time>2026-04-27T16:34:07.001Z</time></trkpt><trkpt lat="43.64263669178069" lon="11.16528841439403"><ele>113.0</ele><time>2026-04-27T16:34:09.001Z</time></trkpt><trkpt lat="43.6425744683172" lon="11.16531570979833"><ele>112.99999999999999</ele><time>2026-04-27T16:34:11.001Z</time></trkpt><trkpt lat="43.642502848187085" lon="11.165342512255776"><ele>113.0</ele><time>2026-04-27T16:34:13.001Z</time></trkpt><trkpt lat="43.64243399587677" lon="11.165381778773536"><ele>113.0</ele><time>2026-04-27T16:34:15.001Z</time></trkpt><trkpt lat="43.64235744558025" lon="11.165423554033458"><ele>113.0</ele><time>2026-04-27T16:34:17.001Z</time></trkpt><trkpt lat="43.64227382952048" lon="11.165465539542074"><ele>112.99999999999999</ele><time>2026-04-27T16:34:19.001Z</time></trkpt><trkpt lat="43.64220732141289" lon="11.165491308124786"><ele>113.0</ele><time>2026-04-27T16:34:21.001Z</time></trkpt><trkpt lat="43.64212492622768" lon="11.165532668992459"><ele>113.0</ele><time>2026-04-27T16:34:23.001Z</time></trkpt><trkpt lat="43.642047696516286" lon="11.165572532486948"><ele>113.00000000000001</ele><time>2026-04-27T16:34:25.001Z</time></trkpt><trkpt lat="43.64195805028238" lon="11.165641574122644"><ele>113.00000000000001</ele><time>2026-04-27T16:34:27.001Z</time></trkpt><trkpt lat="43.6418734851379" lon="11.165687762039216"><ele>113.0</ele><time>2026-04-27T16:34:29.001Z</time></trkpt><trkpt lat="43.64178854779399" lon="11.165750817734452"><ele>113.0</ele><time>2026-04-27T16:34:31.001Z</time></trkpt><trkpt lat="43.64170874773107" lon="11.165819305267053"><ele>112.83333333333333</ele><time>2026-04-27T16:34:33.001Z</time></trkpt><trkpt lat="43.6416354720067" lon="11.165882003266695"><ele>112.66666666666666</ele><time>2026-04-27T16:34:35.001Z</time></trkpt><trkpt lat="43.641570108200305" lon="11.16594161581259"><ele>112.5</ele><time>2026-04-27T16:34:37.001Z</time></trkpt><trkpt lat="43.64151560406555" lon="11.166006311564997"><ele>112.33333333333334</ele><time>2026-04-27T16:34:39.001Z</time></trkpt><trkpt lat="43.64143813253817" lon="11.16608413869538"><ele>112.16666666666667</ele><time>2026-04-27T16:34:41.001Z</time></trkpt><trkpt lat="43.641353327689444" lon="11.166161820290542"><ele>112.0</ele><time>2026-04-27T16:34:43.001Z</time></trkpt><trkpt lat="43.64128251030299" lon="11.166230660294174"><ele>112.0</ele><time>2026-04-27T16:34:45.001Z</time></trkpt><trkpt lat="43.641214440419965" lon="11.166328057398227"><ele>111.99999999999999</ele><time>2026-04-27T16:34:47.001Z</time></trkpt><trkpt lat="43.641145980388345" lon="11.166400702265104"><ele>111.99999999999999</ele><time>2026-04-27T16:34:49.001Z</time></trkpt><trkpt lat="43.641082123306155" lon="11.16649180405326"><ele>112.0</ele><time>2026-04-27T16:34:51.001Z</time></trkpt><trkpt lat="43.64101802046892" lon="11.166573652698643"><ele>112.0</ele><time>2026-04-27T16:34:53.001Z</time></trkpt><trkpt lat="43.64095293335175" lon="11.16666758788078"><ele>112.16666666666667</ele><time>2026-04-27T16:34:55.001Z</time></trkpt><trkpt lat="43.640894730596656" lon="11.166740270949957"><ele>112.33333333333334</ele><time>2026-04-27T16:34:57.001Z</time></trkpt><trkpt lat="43.64083953479452" lon="11.166801640003765"><ele>112.5</ele><time>2026-04-27T16:34:59.001Z</time></trkpt><trkpt lat="43.64078915080085" lon="11.166889169337699"><ele>112.66666666666666</ele><time>2026-04-27T16:35:01.001Z</time></trkpt><trkpt lat="43.64072457376184" lon="11.166961774744452"><ele>112.83333333333333</ele><time>2026-04-27T16:35:03.001Z</time></trkpt><trkpt lat="43.640671969550155" lon="11.167032630329846"><ele>113.0</ele><time>2026-04-27T16:35:05.001Z</time></trkpt><trkpt lat="43.64061572584176" lon="11.167089908595587"><ele>112.99999999999999</ele><time>2026-04-27T16:35:07.001Z</time></trkpt><trkpt lat="43.64056255142757" lon="11.16716139172887"><ele>113.0</ele><time>2026-04-27T16:35:09.001Z</time></trkpt><trkpt lat="43.640490736120555" lon="11.167225522955773"><ele>113.0</ele><time>2026-04-27T16:35:12.001Z</time></trkpt><trkpt lat="43.64041621086127" lon="11.16729960399958"><ele>113.0</ele><time>2026-04-27T16:35:15.001Z</time></trkpt><trkpt lat="43.64033361709719" lon="11.16739127594715"><ele>112.99999999999999</ele><time>2026-04-27T16:35:17.001Z</time></trkpt><trkpt lat="43.64028231772797" lon="11.16744393717383"><ele>113.0</ele><time>2026-04-27T16:35:18.001Z</time></trkpt><trkpt lat="43.64022224600997" lon="11.167493225881318"><ele>113.42857142857143</ele><time>2026-04-27T16:35:21.001Z</time></trkpt><trkpt lat="43.64016035745735" lon="11.167534954334725"><ele>113.85714285714286</ele><time>2026-04-27T16:35:29.001Z</time></trkpt><trkpt lat="43.64011865204046" lon="11.167607754493815"><ele>114.28571428571429</ele><time>2026-04-27T16:36:06.001Z</time></trkpt><trkpt lat="43.640058886439405" lon="11.167673570096822"><ele>114.71428571428572</ele><time>2026-04-27T16:36:11.001Z</time></trkpt><trkpt lat="43.639989664074704" lon="11.167741238722835"><ele>115.14285714285714</ele><time>2026-04-27T16:36:15.001Z</time></trkpt><trkpt lat="43.63992739844414" lon="11.167789193880644"><ele>115.57142857142858</ele><time>2026-04-27T16:36:18.001Z</time></trkpt><trkpt lat="43.63986725986755" lon="11.167842723851354"><ele>116.00000000000001</ele><time>2026-04-27T16:36:21.001Z</time></trkpt><trkpt lat="43.63979785078241" lon="11.167902607766921"><ele>115.99999999999999</ele><time>2026-04-27T16:36:24.001Z</time></trkpt><trkpt lat="43.63972553585761" lon="11.167981108221607"><ele>116.0</ele><time>2026-04-27T16:36:27.002Z</time></trkpt><trkpt lat="43.639654668899084" lon="11.168048747354277"><ele>116.0</ele><time>2026-04-27T16:36:30.002Z</time></trkpt><trkpt lat="43.63959397080491" lon="11.168096499513016"><ele>116.0</ele><time>2026-04-27T16:36:33.002Z</time></trkpt><trkpt lat="43.63952718768949" lon="11.16814133923774"><ele>115.99999999999999</ele><time>2026-04-27T16:36:36.002Z</time></trkpt><trkpt lat="43.63944452512377" lon="11.168181855220045"><ele>116.0</ele><time>2026-04-27T16:36:39.002Z</time></trkpt><trkpt lat="43.63938587940212" lon="11.1682136234496"><ele>115.99999999999999</ele><time>2026-04-27T16:36:41.002Z</time></trkpt><trkpt lat="43.63930216510375" lon="11.168250941201018"><ele>116.0</ele><time>2026-04-27T16:36:44.002Z</time></trkpt><trkpt lat="43.63921609973074" lon="11.168278692238424"><ele>116.0</ele><time>2026-04-27T16:36:47.002Z</time></trkpt><trkpt lat="43.63913942626261" lon="11.168307526530711"><ele>116.0</ele><time>2026-04-27T16:36:50.002Z</time></trkpt><trkpt lat="43.639062020455114" lon="11.168348002997478"><ele>115.99999999999999</ele><time>2026-04-27T16:36:53.002Z</time></trkpt><trkpt lat="43.63898245712993" lon="11.168379171732695"><ele>116.0</ele><time>2026-04-27T16:36:56.002Z</time></trkpt><trkpt lat="43.638913366532314" lon="11.1684032804874"><ele>115.99999999999999</ele><time>2026-04-27T16:36:59.002Z</time></trkpt><trkpt lat="43.638847522237455" lon="11.168425668150688"><ele>116.0</ele><time>2026-04-27T16:37:01.002Z</time></trkpt><trkpt lat="43.63878081917001" lon="11.168443371825942"><ele>116.0</ele><time>2026-04-27T16:37:03.002Z</time></trkpt><trkpt lat="43.63869193618689" lon="11.168476231541218"><ele>116.0</ele><time>2026-04-27T16:37:06.002Z</time></trkpt><trkpt lat="43.63860532508649" lon="11.168511983446024"><ele>115.99999999999999</ele><time>2026-04-27T16:37:09.002Z</time></trkpt><trkpt lat="43.638525853962875" lon="11.168556410960248"><ele>116.0</ele><time>2026-04-27T16:37:12.002Z</time></trkpt><trkpt lat="43.63847673971148" lon="11.168645292447563"><ele>116.14285714285717</ele><time>2026-04-27T16:37:15.002Z</time></trkpt><trkpt lat="43.63848707102565" lon="11.168742284184887"><ele>116.28571428571429</ele><time>2026-04-27T16:37:18.002Z</time></trkpt><trkpt lat="43.63846750699231" lon="11.168834284371755"><ele>116.42857142857144</ele><time>2026-04-27T16:37:21.002Z</time></trkpt><trkpt lat="43.638401809594754" lon="11.168859392886358"><ele>116.57142857142858</ele><time>2026-04-27T16:37:24.002Z</time></trkpt><trkpt lat="43.638345383066216" lon="11.168910872759074"><ele>116.71428571428572</ele><time>2026-04-27T16:37:27.002Z</time></trkpt><trkpt lat="43.63828034019159" lon="11.168956309497617"><ele>116.85714285714286</ele><time>2026-04-27T16:37:30.001Z</time></trkpt><trkpt lat="43.63820785956208" lon="11.16901951527686"><ele>117.0</ele><time>2026-04-27T16:37:33.001Z</time></trkpt><trkpt lat="43.63814011443557" lon="11.169070013001658"><ele>117.42857142857143</ele><time>2026-04-27T16:37:36.001Z</time></trkpt><trkpt lat="43.63808354847569" lon="11.169112754943749"><ele>117.85714285714286</ele><time>2026-04-27T16:37:38.001Z</time></trkpt><trkpt lat="43.63801273898698" lon="11.169158512271958"><ele>118.28571428571429</ele><time>2026-04-27T16:37:41.001Z</time></trkpt><trkpt lat="43.637954894186414" lon="11.169208311009422"><ele>118.71428571428572</ele><time>2026-04-27T16:37:44.001Z</time></trkpt><trkpt lat="43.63790287470394" lon="11.169266227448007"><ele>119.14285714285714</ele><time>2026-04-27T16:37:46.001Z</time></trkpt><trkpt lat="43.637842391741124" lon="11.169321170447992"><ele>119.57142857142858</ele><time>2026-04-27T16:37:49.001Z</time></trkpt><trkpt lat="43.637781650053874" lon="11.169360555327856"><ele>120.0</ele><time>2026-04-27T16:37:52.001Z</time></trkpt><trkpt lat="43.63773078029852" lon="11.169425273081993"><ele>120.0</ele><time>2026-04-27T16:37:58.001Z</time></trkpt><trkpt lat="43.63768986262201" lon="11.169491699391616"><ele>120.0</ele><time>2026-04-27T16:39:40.002Z</time></trkpt><trkpt lat="43.63762104759041" lon="11.169457211841195"><ele>120.0</ele><time>2026-04-27T16:39:53.002Z</time></trkpt><trkpt lat="43.63756862417475" lon="11.16952088563451"><ele>120.0</ele><time>2026-04-27T16:40:01.002Z</time></trkpt><trkpt lat="43.63750039320206" lon="11.169543784519785"><ele>120.0</ele><time>2026-04-27T16:40:07.002Z</time></trkpt><trkpt lat="43.637447096043324" lon="11.169604707249457"><ele>120.0</ele><time>2026-04-27T16:40:12.002Z</time></trkpt><trkpt lat="43.637393159377915" lon="11.16967210019952"><ele>120.0</ele><time>2026-04-27T16:40:16.002Z</time></trkpt><trkpt lat="43.637334938996915" lon="11.16973167825495"><ele>120.0</ele><time>2026-04-27T16:40:20.002Z</time></trkpt><trkpt lat="43.637306185114255" lon="11.16982484459579"><ele>120.0</ele><time>2026-04-27T16:40:24.002Z</time></trkpt><trkpt lat="43.63733221593476" lon="11.169937478135394"><ele>120.0</ele><time>2026-04-27T16:40:28.002Z</time></trkpt><trkpt lat="43.63727160000958" lon="11.169987109522864"><ele>120.0</ele><time>2026-04-27T16:40:33.002Z</time></trkpt><trkpt lat="43.637219971295515" lon="11.169914705584745"><ele>120.0</ele><time>2026-04-27T16:40:36.002Z</time></trkpt><trkpt lat="43.63716855017044" lon="11.169852046852867"><ele>120.0</ele><time>2026-04-27T16:40:39.002Z</time></trkpt><trkpt lat="43.637117896503206" lon="11.169767470351106"><ele>120.0</ele><time>2026-04-27T16:40:42.002Z</time></trkpt><trkpt lat="43.63707224606163" lon="11.169679775069284"><ele>120.0</ele><time>2026-04-27T16:40:45.002Z</time></trkpt><trkpt lat="43.63701959064391" lon="11.169599702364753"><ele>120.0</ele><time>2026-04-27T16:40:48.002Z</time></trkpt><trkpt lat="43.63695781822911" lon="11.169576408762817"><ele>120.0</ele><time>2026-04-27T16:40:51.002Z</time></trkpt><trkpt lat="43.63692353600214" lon="11.16968486495624"><ele>120.0</ele><time>2026-04-27T16:40:55.002Z</time></trkpt><trkpt lat="43.636906210004675" lon="11.169806192987254"><ele>120.0</ele><time>2026-04-27T16:40:58.002Z</time></trkpt><trkpt lat="43.63687710363072" lon="11.169929685586794"><ele>120.5</ele><time>2026-04-27T16:41:01.002Z</time></trkpt><trkpt lat="43.636855775931" lon="11.170050683252919"><ele>121.0</ele><time>2026-04-27T16:41:04.002Z</time></trkpt><trkpt lat="43.63682447212842" lon="11.170170818956564"><ele>121.5</ele><time>2026-04-27T16:41:07.002Z</time></trkpt><trkpt lat="43.63677962266562" lon="11.170279416836298"><ele>122.0</ele><time>2026-04-27T16:41:10.002Z</time></trkpt><trkpt lat="43.636747623455555" lon="11.170378960852673"><ele>122.5</ele><time>2026-04-27T16:41:13.002Z</time></trkpt><trkpt lat="43.636710879287506" lon="11.170485361431723"><ele>123.0</ele><time>2026-04-27T16:41:16.002Z</time></trkpt><trkpt lat="43.636666508766346" lon="11.170600250093594"><ele>123.00000000000001</ele><time>2026-04-27T16:41:19.002Z</time></trkpt><trkpt lat="43.63662349400136" lon="11.17067045376161"><ele>123.0</ele><time>2026-04-27T16:41:21.002Z</time></trkpt><trkpt lat="43.63658366383072" lon="11.170744801291313"><ele>123.00000000000001</ele><time>2026-04-27T16:41:23.002Z</time></trkpt><trkpt lat="43.63652166944555" lon="11.170844677602744"><ele>123.00000000000001</ele><time>2026-04-27T16:41:26.002Z</time></trkpt><trkpt lat="43.636480541855065" lon="11.17092211466415"><ele>123.0</ele><time>2026-04-27T16:41:28.002Z</time></trkpt><trkpt lat="43.63644557093824" lon="11.170996453506124"><ele>123.00000000000001</ele><time>2026-04-27T16:41:30.002Z</time></trkpt><trkpt lat="43.63640761180554" lon="11.171088990463971"><ele>123.00000000000001</ele><time>2026-04-27T16:41:32.002Z</time></trkpt><trkpt lat="43.636365533140555" lon="11.171189431850593"><ele>122.83333333333333</ele><time>2026-04-27T16:41:34.002Z</time></trkpt><trkpt lat="43.6363294585963" lon="11.171285813989703"><ele>122.66666666666666</ele><time>2026-04-27T16:41:36.002Z</time></trkpt><trkpt lat="43.63629171448676" lon="11.171382390444997"><ele>122.5</ele><time>2026-04-27T16:41:38.002Z</time></trkpt><trkpt lat="43.63623708521623" lon="11.171472336434373"><ele>122.33333333333333</ele><time>2026-04-27T16:41:40.001Z</time></trkpt><trkpt lat="43.636193554425454" lon="11.17158158720451"><ele>122.16666666666666</ele><time>2026-04-27T16:41:42.001Z</time></trkpt><trkpt lat="43.6361541567362" lon="11.1716987913027"><ele>122.0</ele><time>2026-04-27T16:41:44.001Z</time></trkpt><trkpt lat="43.63610908602253" lon="11.171817790000318"><ele>121.99999999999999</ele><time>2026-04-27T16:41:46.002Z</time></trkpt><trkpt lat="43.63604609318048" lon="11.171932865341402"><ele>122.0</ele><time>2026-04-27T16:41:48.001Z</time></trkpt><trkpt lat="43.63597924050026" lon="11.172022006881766"><ele>122.0</ele><time>2026-04-27T16:41:50.002Z</time></trkpt><trkpt lat="43.635925679226204" lon="11.172093695044882"><ele>122.0</ele><time>2026-04-27T16:41:52.002Z</time></trkpt><trkpt lat="43.635859736784894" lon="11.172186010703685"><ele>121.99999999999999</ele><time>2026-04-27T16:41:54.001Z</time></trkpt><trkpt lat="43.635815527973016" lon="11.172266284593368"><ele>122.0</ele><time>2026-04-27T16:41:56.001Z</time></trkpt><trkpt lat="43.63575436550924" lon="11.172312305481364"><ele>121.83333333333333</ele><time>2026-04-27T16:41:58.001Z</time></trkpt><trkpt lat="43.63572250863521" lon="11.172437461933024"><ele>121.66666666666666</ele><time>2026-04-27T16:42:01.001Z</time></trkpt><trkpt lat="43.63567189971721" lon="11.172504940687578"><ele>121.5</ele><time>2026-04-27T16:42:03.001Z</time></trkpt><trkpt lat="43.63562982185198" lon="11.172571215280906"><ele>121.33333333333334</ele><time>2026-04-27T16:42:05.001Z</time></trkpt><trkpt lat="43.63555216529174" lon="11.17264577807469"><ele>121.16666666666667</ele><time>2026-04-27T16:42:08.001Z</time></trkpt><trkpt lat="43.63550057185561" lon="11.172699277975221"><ele>121.0</ele><time>2026-04-27T16:42:10.001Z</time></trkpt><trkpt lat="43.635432054230385" lon="11.172763770317921"><ele>121.0</ele><time>2026-04-27T16:42:13.001Z</time></trkpt><trkpt lat="43.635375841701524" lon="11.172820161318555"><ele>120.99999999999999</ele><time>2026-04-27T16:42:15.001Z</time></trkpt><trkpt lat="43.63531922520205" lon="11.17287859047578"><ele>121.0</ele><time>2026-04-27T16:42:17.001Z</time></trkpt><trkpt lat="43.63526512414405" lon="11.172930575533574"><ele>121.0</ele><time>2026-04-27T16:42:19.001Z</time></trkpt><trkpt lat="43.635209954460265" lon="11.172992083756093"><ele>120.99999999999999</ele><time>2026-04-27T16:42:21.001Z</time></trkpt><trkpt lat="43.63515031898463" lon="11.1730616223302"><ele>121.0</ele><time>2026-04-27T16:42:23.001Z</time></trkpt><trkpt lat="43.63509646424036" lon="11.173140354653622"><ele>121.0</ele><time>2026-04-27T16:42:25.001Z</time></trkpt><trkpt lat="43.63504649695238" lon="11.173223843548454"><ele>121.33333333333334</ele><time>2026-04-27T16:42:27.001Z</time></trkpt><trkpt lat="43.63499162132697" lon="11.173299874219644"><ele>121.66666666666667</ele><time>2026-04-27T16:42:29.001Z</time></trkpt><trkpt lat="43.634942617293625" lon="11.173387349103697"><ele>122.0</ele><time>2026-04-27T16:42:31.001Z</time></trkpt><trkpt lat="43.63488877535599" lon="11.173468068762396"><ele>122.33333333333334</ele><time>2026-04-27T16:42:33.001Z</time></trkpt><trkpt lat="43.634842853695694" lon="11.173559019594034"><ele>122.66666666666667</ele><time>2026-04-27T16:42:35.001Z</time></trkpt><trkpt lat="43.634786857091264" lon="11.17362570447428"><ele>123.0</ele><time>2026-04-27T16:42:37.001Z</time></trkpt><trkpt lat="43.634732708295935" lon="11.17368602572366"><ele>123.0</ele><time>2026-04-27T16:42:39.001Z</time></trkpt><trkpt lat="43.63463717295358" lon="11.173726367299853"><ele>123.0</ele><time>2026-04-27T16:42:42.001Z</time></trkpt><trkpt lat="43.634570752549735" lon="11.173698395566408"><ele>123.0</ele><time>2026-04-27T16:42:44.001Z</time></trkpt><trkpt lat="43.634489488000085" lon="11.173702286206387"><ele>123.0</ele><time>2026-04-27T16:42:46.001Z</time></trkpt><trkpt lat="43.63442017809528" lon="11.173716293444334"><ele>123.0</ele><time>2026-04-27T16:42:48.001Z</time></trkpt><trkpt lat="43.63434146746913" lon="11.173761296068204"><ele>123.0</ele><time>2026-04-27T16:42:50.001Z</time></trkpt><trkpt lat="43.63426838658885" lon="11.173798963840158"><ele>123.16666666666667</ele><time>2026-04-27T16:42:52.001Z</time></trkpt><trkpt lat="43.63420027662677" lon="11.173845890562713"><ele>123.33333333333334</ele><time>2026-04-27T16:42:54.001Z</time></trkpt><trkpt lat="43.63411436528683" lon="11.173907573715875"><ele>123.5</ele><time>2026-04-27T16:42:56.001Z</time></trkpt><trkpt lat="43.63404252271203" lon="11.173981695201176"><ele>123.66666666666667</ele><time>2026-04-27T16:42:58.001Z</time></trkpt><trkpt lat="43.633976096670565" lon="11.174069239433528"><ele>123.83333333333334</ele><time>2026-04-27T16:43:00.001Z</time></trkpt><trkpt lat="43.63392476968054" lon="11.174145835115564"><ele>124.0</ele><time>2026-04-27T16:43:02.001Z</time></trkpt><trkpt lat="43.63387508655567" lon="11.174225805662337"><ele>124.00000000000001</ele><time>2026-04-27T16:43:04.001Z</time></trkpt><trkpt lat="43.63381780874019" lon="11.1743276427052"><ele>124.0</ele><time>2026-04-27T16:43:06.001Z</time></trkpt><trkpt lat="43.633781115488354" lon="11.17440683621423"><ele>124.0</ele><time>2026-04-27T16:43:08.001Z</time></trkpt><trkpt lat="43.6337149591778" lon="11.174509187654126"><ele>124.0</ele><time>2026-04-27T16:43:11.002Z</time></trkpt><trkpt lat="43.6336690800384" lon="11.174594846970495"><ele>124.00000000000001</ele><time>2026-04-27T16:43:13.002Z</time></trkpt><trkpt lat="43.633617827872754" lon="11.174677389843332"><ele>124.0</ele><time>2026-04-27T16:43:15.002Z</time></trkpt><trkpt lat="43.63357644138678" lon="11.174760647906275"><ele>124.00000000000001</ele><time>2026-04-27T16:43:17.002Z</time></trkpt><trkpt lat="43.633521075067144" lon="11.174856823324722"><ele>124.0</ele><time>2026-04-27T16:43:19.002Z</time></trkpt><trkpt lat="43.63347288048956" lon="11.174963008729385"><ele>124.0</ele><time>2026-04-27T16:43:21.002Z</time></trkpt><trkpt lat="43.63342342391005" lon="11.175081232701425"><ele>124.0</ele><time>2026-04-27T16:43:23.002Z</time></trkpt><trkpt lat="43.63337379861674" lon="11.175177078591592"><ele>124.00000000000001</ele><time>2026-04-27T16:43:25.002Z</time></trkpt><trkpt lat="43.633346166876635" lon="11.17528096098286"><ele>124.0</ele><time>2026-04-27T16:43:27.002Z</time></trkpt><trkpt lat="43.63333620939827" lon="11.17539330646879"><ele>124.00000000000001</ele><time>2026-04-27T16:43:29.002Z</time></trkpt><trkpt lat="43.633325205822246" lon="11.175513854868326"><ele>124.0</ele><time>2026-04-27T16:43:31.002Z</time></trkpt><trkpt lat="43.63333140446053" lon="11.175637498737562"><ele>124.0</ele><time>2026-04-27T16:43:33.002Z</time></trkpt><trkpt lat="43.63335494647931" lon="11.175719863571677"><ele>124.0</ele><time>2026-04-27T16:43:35.002Z</time></trkpt><trkpt lat="43.63339539408092" lon="11.175830059591503"><ele>124.00000000000001</ele><time>2026-04-27T16:43:38.002Z</time></trkpt><trkpt lat="43.633426501633714" lon="11.175948383157953"><ele>124.0</ele><time>2026-04-27T16:43:41.002Z</time></trkpt><trkpt lat="43.6334500023764" lon="11.176049681249854"><ele>124.16666666666667</ele><time>2026-04-27T16:43:44.002Z</time></trkpt><trkpt lat="43.633487258625216" lon="11.176130247253543"><ele>124.33333333333334</ele><time>2026-04-27T16:43:46.002Z</time></trkpt><trkpt lat="43.63353778365986" lon="11.17624322993589"><ele>124.5</ele><time>2026-04-27T16:43:49.002Z</time></trkpt><trkpt lat="43.63357440360662" lon="11.176314051829614"><ele>124.66666666666666</ele><time>2026-04-27T16:43:51.001Z</time></trkpt><trkpt lat="43.6335916512401" lon="11.176420448031903"><ele>124.83333333333333</ele><time>2026-04-27T16:43:54.002Z</time></trkpt><trkpt lat="43.633615467551344" lon="11.176541304760311"><ele>125.0</ele><time>2026-04-27T16:43:57.002Z</time></trkpt><trkpt lat="43.633628568285346" lon="11.176637498150994"><ele>125.0</ele><time>2026-04-27T16:44:00.001Z</time></trkpt><trkpt lat="43.63359122944339" lon="11.176716085581749"><ele>125.0</ele><time>2026-04-27T16:44:04.001Z</time></trkpt><trkpt lat="43.63356817642239" lon="11.176622439094505"><ele>125.0</ele><time>2026-04-27T16:44:07.001Z</time></trkpt><trkpt lat="43.63356449101859" lon="11.176531851443224"><ele>125.0</ele><time>2026-04-27T16:44:10.001Z</time></trkpt><trkpt lat="43.6335336391094" lon="11.176449880400504"><ele>125.0</ele><time>2026-04-27T16:44:13.001Z</time></trkpt><trkpt lat="43.63347786748446" lon="11.176382732267449"><ele>125.0</ele><time>2026-04-27T16:44:16.001Z</time></trkpt><trkpt lat="43.63339979951796" lon="11.176340356072052"><ele>125.0</ele><time>2026-04-27T16:44:19.001Z</time></trkpt><trkpt lat="43.633323407354375" lon="11.176318454741313"><ele>124.99999999999999</ele><time>2026-04-27T16:44:22.001Z</time></trkpt><trkpt lat="43.63323988079348" lon="11.176315320527914"><ele>125.0</ele><time>2026-04-27T16:44:25.001Z</time></trkpt><trkpt lat="43.63315334240729" lon="11.176303412839548"><ele>125.0</ele><time>2026-04-27T16:44:28.001Z</time></trkpt><trkpt lat="43.63307258241465" lon="11.176300109153678"><ele>125.0</ele><time>2026-04-27T16:44:31.001Z</time></trkpt><trkpt lat="43.632990491852524" lon="11.176287695526431"><ele>124.99999999999999</ele><time>2026-04-27T16:44:34.001Z</time></trkpt><trkpt lat="43.632915294522206" lon="11.176278073304267"><ele>125.0</ele><time>2026-04-27T16:44:37.001Z</time></trkpt><trkpt lat="43.63283760923729" lon="11.17628661018087"><ele>125.0</ele><time>2026-04-27T16:44:40.001Z</time></trkpt><trkpt lat="43.632770933145544" lon="11.176292417575965"><ele>125.0</ele><time>2026-04-27T16:44:43.001Z</time></trkpt><trkpt lat="43.63276775345788" lon="11.176389879958718"><ele>125.0</ele><time>2026-04-27T16:44:48.001Z</time></trkpt><trkpt lat="43.63282672447258" lon="11.17643222383476"><ele>125.0</ele><time>2026-04-27T16:44:52.001Z</time></trkpt><trkpt lat="43.63287215446011" lon="11.176525315238631"><ele>125.0</ele><time>2026-04-27T16:44:55.001Z</time></trkpt><trkpt lat="43.63287318468003" lon="11.176625012653362"><ele>125.0</ele><time>2026-04-27T16:44:59.001Z</time></trkpt><trkpt lat="43.632858868201744" lon="11.176725890061041"><ele>125.0</ele><time>2026-04-27T16:45:06.001Z</time></trkpt><trkpt lat="43.63284416566459" lon="11.17681582816797"><ele>124.99999999999999</ele><time>2026-04-27T16:45:14.001Z</time></trkpt><trkpt lat="43.632827881042495" lon="11.176913962293996"><ele>125.0</ele><time>2026-04-27T16:45:27.001Z</time></trkpt><trkpt lat="43.632827696578" lon="11.177009180826163"><ele>125.0</ele><time>2026-04-27T16:45:32.001Z</time></trkpt><trkpt lat="43.63283569780378" lon="11.177109787144245"><ele>125.0</ele><time>2026-04-27T16:45:36.001Z</time></trkpt><trkpt lat="43.63284731833004" lon="11.177215889943854"><ele>124.99999999999999</ele><time>2026-04-27T16:45:39.001Z</time></trkpt><trkpt lat="43.632855987500314" lon="11.177332754024631"><ele>125.0</ele><time>2026-04-27T16:45:42.001Z</time></trkpt><trkpt lat="43.6328569892325" lon="11.177442763815767"><ele>125.33333333333333</ele><time>2026-04-27T16:45:45.001Z</time></trkpt><trkpt lat="43.63284042723742" lon="11.177537998421368"><ele>125.66666666666666</ele><time>2026-04-27T16:45:48.001Z</time></trkpt><trkpt lat="43.632832833412174" lon="11.177650849489767"><ele>126.0</ele><time>2026-04-27T16:45:51.002Z</time></trkpt><trkpt lat="43.63280204704874" lon="11.177728328521782"><ele>126.33333333333334</ele><time>2026-04-27T16:45:53.002Z</time></trkpt><trkpt lat="43.63278439999657" lon="11.177830036359158"><ele>126.66666666666667</ele><time>2026-04-27T16:45:56.002Z</time></trkpt><trkpt lat="43.632768403544176" lon="11.177946623126887"><ele>127.0</ele><time>2026-04-27T16:45:59.002Z</time></trkpt><trkpt lat="43.63272509809801" lon="11.17802462350055"><ele>127.00000000000001</ele><time>2026-04-27T16:46:01.002Z</time></trkpt><trkpt lat="43.632658099883535" lon="11.178108727729567"><ele>127.0</ele><time>2026-04-27T16:46:04.002Z</time></trkpt><trkpt lat="43.63261083431634" lon="11.178178473292377"><ele>127.0</ele><time>2026-04-27T16:46:06.002Z</time></trkpt><trkpt lat="43.632560687953564" lon="11.17823181817576"><ele>127.0</ele><time>2026-04-27T16:46:08.002Z</time></trkpt><trkpt lat="43.63248131745915" lon="11.178274828820816"><ele>127.00000000000001</ele><time>2026-04-27T16:46:11.002Z</time></trkpt><trkpt lat="43.63240943048881" lon="11.178248939309803"><ele>127.0</ele><time>2026-04-27T16:46:14.002Z</time></trkpt><trkpt lat="43.63236646163217" lon="11.178155902238712"><ele>127.00000000000001</ele><time>2026-04-27T16:46:19.002Z</time></trkpt><trkpt lat="43.63231704121312" lon="11.178086961807486"><ele>127.0</ele><time>2026-04-27T16:46:22.002Z</time></trkpt><trkpt lat="43.63224200872898" lon="11.178125248247934"><ele>127.0</ele><time>2026-04-27T16:46:25.002Z</time></trkpt><trkpt lat="43.63218372706026" lon="11.178183037270351"><ele>127.0</ele><time>2026-04-27T16:46:28.002Z</time></trkpt><trkpt lat="43.63210605815295" lon="11.178232099749378"><ele>127.00000000000001</ele><time>2026-04-27T16:46:31.002Z</time></trkpt><trkpt lat="43.63202947974334" lon="11.178292804883137"><ele>127.0</ele><time>2026-04-27T16:46:34.002Z</time></trkpt><trkpt lat="43.63195118056408" lon="11.178347402962341"><ele>127.00000000000001</ele><time>2026-04-27T16:46:37.002Z</time></trkpt><trkpt lat="43.63187726395829" lon="11.178395699398408"><ele>127.0</ele><time>2026-04-27T16:46:40.002Z</time></trkpt><trkpt lat="43.631792646667996" lon="11.17841467306092"><ele>127.0</ele><time>2026-04-27T16:46:43.002Z</time></trkpt><trkpt lat="43.631708749527704" lon="11.178397287539166"><ele>127.0</ele><time>2026-04-27T16:46:45.002Z</time></trkpt><trkpt lat="43.63163168492198" lon="11.178377187777516"><ele>127.00000000000001</ele><time>2026-04-27T16:46:47.003Z</time></trkpt><trkpt lat="43.63154383063889" lon="11.178349856314776"><ele>127.0</ele><time>2026-04-27T16:46:50.003Z</time></trkpt><trkpt lat="43.63147217150441" lon="11.178319845160317"><ele>127.0</ele><time>2026-04-27T16:46:53.003Z</time></trkpt><trkpt lat="43.631392771485984" lon="11.178293761283657"><ele>127.0</ele><time>2026-04-27T16:46:56.003Z</time></trkpt><trkpt lat="43.63130583442978" lon="11.178255560198275"><ele>127.0</ele><time>2026-04-27T16:46:59.003Z</time></trkpt><trkpt lat="43.631241692500915" lon="11.178234292456844"><ele>127.0</ele><time>2026-04-27T16:47:01.003Z</time></trkpt><trkpt lat="43.631176643691454" lon="11.178219550125469"><ele>127.0</ele><time>2026-04-27T16:47:03.003Z</time></trkpt><trkpt lat="43.63111186370958" lon="11.17820163591541"><ele>127.0</ele><time>2026-04-27T16:47:05.003Z</time></trkpt><trkpt lat="43.63104896647976" lon="11.178182634107335"><ele>127.0</ele><time>2026-04-27T16:47:07.003Z</time></trkpt><trkpt lat="43.63098417697611" lon="11.178161949866505"><ele>126.71428571428572</ele><time>2026-04-27T16:47:09.003Z</time></trkpt><trkpt lat="43.63091591097826" lon="11.178140441783873"><ele>126.42857142857142</ele><time>2026-04-27T16:47:11.003Z</time></trkpt><trkpt lat="43.63085192034065" lon="11.178128812872153"><ele>126.14285714285714</ele><time>2026-04-27T16:47:13.003Z</time></trkpt><trkpt lat="43.63078613641149" lon="11.178107076813301"><ele>125.85714285714286</ele><time>2026-04-27T16:47:15.003Z</time></trkpt><trkpt lat="43.63071316372697" lon="11.178085967600687"><ele>125.57142857142858</ele><time>2026-04-27T16:47:17.003Z</time></trkpt><trkpt lat="43.630642179978466" lon="11.178073264266583"><ele>125.28571428571428</ele><time>2026-04-27T16:47:19.003Z</time></trkpt><trkpt lat="43.630576651268385" lon="11.178062406120604"><ele>125.0</ele><time>2026-04-27T16:47:21.003Z</time></trkpt><trkpt lat="43.630501223143504" lon="11.178044994561352"><ele>124.99999999999999</ele><time>2026-04-27T16:47:23.003Z</time></trkpt><trkpt lat="43.630431912347596" lon="11.178024748272419"><ele>125.0</ele><time>2026-04-27T16:47:25.003Z</time></trkpt><trkpt lat="43.63035841396829" lon="11.178014863142288"><ele>125.0</ele><time>2026-04-27T16:47:27.003Z</time></trkpt><trkpt lat="43.63028860835236" lon="11.178004304061574"><ele>125.0</ele><time>2026-04-27T16:47:29.003Z</time></trkpt><trkpt lat="43.630202490175805" lon="11.178004310803484"><ele>124.99999999999999</ele><time>2026-04-27T16:47:31.003Z</time></trkpt><trkpt lat="43.63011208153869" lon="11.178006563170282"><ele>125.0</ele><time>2026-04-27T16:47:33.003Z</time></trkpt><trkpt lat="43.630025757491275" lon="11.178010361986397"><ele>125.16666666666666</ele><time>2026-04-27T16:47:35.003Z</time></trkpt><trkpt lat="43.629947531822914" lon="11.178010943283093"><ele>125.33333333333333</ele><time>2026-04-27T16:47:37.003Z</time></trkpt><trkpt lat="43.62987147360486" lon="11.17801980843578"><ele>125.5</ele><time>2026-04-27T16:47:39.003Z</time></trkpt><trkpt lat="43.62980974531107" lon="11.178037466175354"><ele>125.66666666666666</ele><time>2026-04-27T16:47:41.003Z</time></trkpt><trkpt lat="43.629714657921795" lon="11.178051703892327"><ele>125.83333333333333</ele><time>2026-04-27T16:47:44.003Z</time></trkpt><trkpt lat="43.62964699791981" lon="11.178050245833118"><ele>126.0</ele><time>2026-04-27T16:47:46.003Z</time></trkpt><trkpt lat="43.62957428486407" lon="11.178057577488314"><ele>126.0</ele><time>2026-04-27T16:47:48.003Z</time></trkpt><trkpt lat="43.629494487266165" lon="11.178075181797109"><ele>126.0</ele><time>2026-04-27T16:47:50.003Z</time></trkpt><trkpt lat="43.62942690307187" lon="11.178060391419619"><ele>126.0</ele><time>2026-04-27T16:47:52.003Z</time></trkpt><trkpt lat="43.62935925213363" lon="11.178057055316536"><ele>126.0</ele><time>2026-04-27T16:47:54.003Z</time></trkpt><trkpt lat="43.62929274569027" lon="11.178065723758017"><ele>126.0</ele><time>2026-04-27T16:47:56.003Z</time></trkpt><trkpt lat="43.62920966289065" lon="11.178074076478417"><ele>126.0</ele><time>2026-04-27T16:47:59.002Z</time></trkpt><trkpt lat="43.62912051198149" lon="11.178105175077832"><ele>126.14285714285714</ele><time>2026-04-27T16:48:02.002Z</time></trkpt><trkpt lat="43.629055200145224" lon="11.178133547774486"><ele>126.28571428571428</ele><time>2026-04-27T16:48:04.002Z</time></trkpt><trkpt lat="43.62897431749301" lon="11.178149068992418"><ele>126.42857142857143</ele><time>2026-04-27T16:48:07.002Z</time></trkpt><trkpt lat="43.62890212792425" lon="11.178180007759009"><ele>126.57142857142857</ele><time>2026-04-27T16:48:11.001Z</time></trkpt><trkpt lat="43.62883948043835" lon="11.178201184555423"><ele>126.71428571428571</ele><time>2026-04-27T16:48:14.001Z</time></trkpt><trkpt lat="43.62877501393893" lon="11.178229140780024"><ele>126.85714285714286</ele><time>2026-04-27T16:48:17.001Z</time></trkpt><trkpt lat="43.62870194125161" lon="11.178267801834892"><ele>127.0</ele><time>2026-04-27T16:48:20.001Z</time></trkpt><trkpt lat="43.628644686456276" lon="11.17830608394777"><ele>127.0</ele><time>2026-04-27T16:48:22.001Z</time></trkpt><trkpt lat="43.62859232239468" lon="11.17836108406883"><ele>127.0</ele><time>2026-04-27T16:48:24.001Z</time></trkpt><trkpt lat="43.62854190732463" lon="11.178413931840705"><ele>127.0</ele><time>2026-04-27T16:48:26.001Z</time></trkpt><trkpt lat="43.62849270573579" lon="11.17847170965896"><ele>127.0</ele><time>2026-04-27T16:48:28.001Z</time></trkpt><trkpt lat="43.6284511265897" lon="11.17854894391809"><ele>127.0</ele><time>2026-04-27T16:48:30.001Z</time></trkpt><trkpt lat="43.62840430772811" lon="11.178610450530199"><ele>127.0</ele><time>2026-04-27T16:48:32.001Z</time></trkpt><trkpt lat="43.6283350317113" lon="11.178688313457148"><ele>127.0</ele><time>2026-04-27T16:48:35.002Z</time></trkpt><trkpt lat="43.62826835383378" lon="11.178754739072495"><ele>127.00000000000001</ele><time>2026-04-27T16:48:38.002Z</time></trkpt><trkpt lat="43.62820230399568" lon="11.178798447892492"><ele>127.0</ele><time>2026-04-27T16:48:40.002Z</time></trkpt><trkpt lat="43.62814157709087" lon="11.178842953246372"><ele>127.0</ele><time>2026-04-27T16:48:42.002Z</time></trkpt><trkpt lat="43.628054202456404" lon="11.178902523767599"><ele>127.0</ele><time>2026-04-27T16:48:45.002Z</time></trkpt><trkpt lat="43.62799013247954" lon="11.178947613445564"><ele>127.00000000000001</ele><time>2026-04-27T16:48:47.002Z</time></trkpt><trkpt lat="43.62792062542191" lon="11.178994735507322"><ele>127.0</ele><time>2026-04-27T16:48:49.002Z</time></trkpt><trkpt lat="43.62784615475902" lon="11.179034189543476"><ele>127.50000000000001</ele><time>2026-04-27T16:48:51.002Z</time></trkpt><trkpt lat="43.62777111947429" lon="11.17908495920513"><ele>128.0</ele><time>2026-04-27T16:48:53.002Z</time></trkpt><trkpt lat="43.627684890901044" lon="11.179131717540383"><ele>128.5</ele><time>2026-04-27T16:48:55.002Z</time></trkpt><trkpt lat="43.62760527817902" lon="11.179180491091529"><ele>129.0</ele><time>2026-04-27T16:48:57.002Z</time></trkpt><trkpt lat="43.62752522955184" lon="11.179223556891861"><ele>129.5</ele><time>2026-04-27T16:48:59.002Z</time></trkpt><trkpt lat="43.62744990302177" lon="11.17926595474483"><ele>130.0</ele><time>2026-04-27T16:49:01.002Z</time></trkpt><trkpt lat="43.6273747571703" lon="11.17931345418277"><ele>130.00000000000003</ele><time>2026-04-27T16:49:03.002Z</time></trkpt><trkpt lat="43.6273090034764" lon="11.179355908371807"><ele>130.0</ele><time>2026-04-27T16:49:05.002Z</time></trkpt><trkpt lat="43.62723760969954" lon="11.179386953202792"><ele>130.0</ele><time>2026-04-27T16:49:07.002Z</time></trkpt><trkpt lat="43.627172277797044" lon="11.179437403282304"><ele>130.0</ele><time>2026-04-27T16:49:09.002Z</time></trkpt><trkpt lat="43.62710328681704" lon="11.179464606209667"><ele>130.0</ele><time>2026-04-27T16:49:11.002Z</time></trkpt><trkpt lat="43.62703090907483" lon="11.17951263031607"><ele>130.00000000000003</ele><time>2026-04-27T16:49:13.002Z</time></trkpt><trkpt lat="43.62696675367549" lon="11.179552117851895"><ele>130.0</ele><time>2026-04-27T16:49:15.002Z</time></trkpt><trkpt lat="43.62690280580216" lon="11.17954894856264"><ele>130.33333333333334</ele><time>2026-04-27T16:49:17.002Z</time></trkpt><trkpt lat="43.62683833179174" lon="11.17952699846299"><ele>130.66666666666669</ele><time>2026-04-27T16:49:19.002Z</time></trkpt><trkpt lat="43.62677448497652" lon="11.179513140604637"><ele>131.0</ele><time>2026-04-27T16:49:22.002Z</time></trkpt><trkpt lat="43.62669070762928" lon="11.179526663205124"><ele>131.33333333333334</ele><time>2026-04-27T16:49:24.002Z</time></trkpt><trkpt lat="43.62659224970035" lon="11.179517258304323"><ele>131.66666666666666</ele><time>2026-04-27T16:49:26.002Z</time></trkpt><trkpt lat="43.6265228970191" lon="11.179511572521129"><ele>132.0</ele><time>2026-04-27T16:49:28.002Z</time></trkpt><trkpt lat="43.62644467253792" lon="11.179498672291352"><ele>132.0</ele><time>2026-04-27T16:49:30.002Z</time></trkpt><trkpt lat="43.6263650367335" lon="11.179498374146394"><ele>132.0</ele><time>2026-04-27T16:49:32.002Z</time></trkpt><trkpt lat="43.626277997157516" lon="11.179493812384196"><ele>132.0</ele><time>2026-04-27T16:49:34.002Z</time></trkpt><trkpt lat="43.62619723424356" lon="11.179489855325746"><ele>132.0</ele><time>2026-04-27T16:49:36.002Z</time></trkpt><trkpt lat="43.62611595188083" lon="11.179489242689492"><ele>132.0</ele><time>2026-04-27T16:49:38.002Z</time></trkpt><trkpt lat="43.62604510764002" lon="11.179488105363303"><ele>132.0</ele><time>2026-04-27T16:49:40.002Z</time></trkpt><trkpt lat="43.625975283805026" lon="11.179477418202024"><ele>132.14285714285714</ele><time>2026-04-27T16:49:42.002Z</time></trkpt><trkpt lat="43.6259012289597" lon="11.179478982492542"><ele>132.28571428571428</ele><time>2026-04-27T16:49:44.002Z</time></trkpt><trkpt lat="43.62582357337094" lon="11.179488671008368"><ele>132.42857142857144</ele><time>2026-04-27T16:49:46.002Z</time></trkpt><trkpt lat="43.62575863654998" lon="11.179507431792825"><ele>132.57142857142856</ele><time>2026-04-27T16:49:48.002Z</time></trkpt><trkpt lat="43.62569234900275" lon="11.179515407131436"><ele>132.71428571428572</ele><time>2026-04-27T16:49:50.002Z</time></trkpt><trkpt lat="43.625627370214" lon="11.179516896241182"><ele>132.85714285714286</ele><time>2026-04-27T16:49:52.002Z</time></trkpt><trkpt lat="43.62555467824048" lon="11.179518142905852"><ele>133.0</ele><time>2026-04-27T16:49:54.002Z</time></trkpt><trkpt lat="43.625486054179724" lon="11.179519997653719"><ele>133.0</ele><time>2026-04-27T16:49:56.002Z</time></trkpt><trkpt lat="43.62540570329359" lon="11.179501441857003"><ele>133.0</ele><time>2026-04-27T16:49:58.002Z</time></trkpt><trkpt lat="43.625326009153696" lon="11.179494243441777"><ele>133.0</ele><time>2026-04-27T16:50:00.002Z</time></trkpt><trkpt lat="43.62523526691185" lon="11.179491717547364"><ele>133.0</ele><time>2026-04-27T16:50:02.002Z</time></trkpt><trkpt lat="43.6251456492494" lon="11.179500220689816"><ele>133.0</ele><time>2026-04-27T16:50:04.002Z</time></trkpt><trkpt lat="43.62506024683103" lon="11.17952931488068"><ele>133.0</ele><time>2026-04-27T16:50:06.002Z</time></trkpt><trkpt lat="43.62496153784026" lon="11.179557812501251"><ele>133.5</ele><time>2026-04-27T16:50:08.002Z</time></trkpt><trkpt lat="43.62486542814874" lon="11.179591394700601"><ele>134.0</ele><time>2026-04-27T16:50:10.002Z</time></trkpt><trkpt lat="43.624778377729626" lon="11.17962712012449"><ele>134.5</ele><time>2026-04-27T16:50:12.002Z</time></trkpt><trkpt lat="43.62468787959346" lon="11.179669051544082"><ele>135.0</ele><time>2026-04-27T16:50:14.002Z</time></trkpt><trkpt lat="43.62461588234102" lon="11.179718519615285"><ele>135.5</ele><time>2026-04-27T16:50:16.002Z</time></trkpt><trkpt lat="43.62454557373893" lon="11.179779259642466"><ele>136.0</ele><time>2026-04-27T16:50:18.002Z</time></trkpt><trkpt lat="43.62447352212443" lon="11.179838051431814"><ele>135.0</ele><time>2026-04-27T16:50:20.002Z</time></trkpt><trkpt lat="43.62440154575513" lon="11.179913517469322"><ele>134.0</ele><time>2026-04-27T16:50:22.002Z</time></trkpt><trkpt lat="43.624340908259725" lon="11.179987850119902"><ele>133.0</ele><time>2026-04-27T16:50:24.002Z</time></trkpt><trkpt lat="43.62428076430108" lon="11.180057937437613"><ele>132.0</ele><time>2026-04-27T16:50:26.002Z</time></trkpt><trkpt lat="43.62422003692376" lon="11.180120479213992"><ele>131.0</ele><time>2026-04-27T16:50:28.002Z</time></trkpt><trkpt lat="43.62415974887456" lon="11.180191763281725"><ele>130.0</ele><time>2026-04-27T16:50:30.002Z</time></trkpt><trkpt lat="43.62411528594946" lon="11.180258914257426"><ele>130.0</ele><time>2026-04-27T16:50:32.002Z</time></trkpt><trkpt lat="43.624082631708326" lon="11.180338562708334"><ele>130.0</ele><time>2026-04-27T16:50:34.002Z</time></trkpt><trkpt lat="43.624022818595805" lon="11.180399744874233"><ele>130.0</ele><time>2026-04-27T16:50:37.002Z</time></trkpt><trkpt lat="43.623943197705515" lon="11.180473321341308"><ele>130.0</ele><time>2026-04-27T16:50:40.002Z</time></trkpt><trkpt lat="43.62386179212607" lon="11.180548507426593"><ele>130.0</ele><time>2026-04-27T16:50:42.002Z</time></trkpt><trkpt lat="43.62377589733921" lon="11.18064347230146"><ele>130.0</ele><time>2026-04-27T16:50:44.002Z</time></trkpt><trkpt lat="43.62372101449663" lon="11.180775324846001"><ele>130.0</ele><time>2026-04-27T16:50:46.002Z</time></trkpt><trkpt lat="43.623688754473015" lon="11.180899726813054"><ele>130.0</ele><time>2026-04-27T16:50:48.002Z</time></trkpt><trkpt lat="43.623642776136926" lon="11.181001178865841"><ele>130.0</ele><time>2026-04-27T16:50:50.002Z</time></trkpt><trkpt lat="43.623599788453454" lon="11.181088602863499"><ele>130.0</ele><time>2026-04-27T16:50:52.002Z</time></trkpt><trkpt lat="43.623561927824575" lon="11.181161007867338"><ele>130.0</ele><time>2026-04-27T16:50:54.002Z</time></trkpt><trkpt lat="43.623514518680686" lon="11.181247903892897"><ele>130.0</ele><time>2026-04-27T16:50:57.002Z</time></trkpt><trkpt lat="43.62346402039646" lon="11.181340597229116"><ele>130.00000000000003</ele><time>2026-04-27T16:51:00.002Z</time></trkpt><trkpt lat="43.6234173736436" lon="11.181424702127627"><ele>130.0</ele><time>2026-04-27T16:51:03.002Z</time></trkpt><trkpt lat="43.62337391952034" lon="11.181526017889349"><ele>130.0</ele><time>2026-04-27T16:51:06.002Z</time></trkpt><trkpt lat="43.623323556429085" lon="11.181622962405687"><ele>130.0</ele><time>2026-04-27T16:51:09.002Z</time></trkpt><trkpt lat="43.62329677473044" lon="11.181702847745452"><ele>130.0</ele><time>2026-04-27T16:51:11.002Z</time></trkpt><trkpt lat="43.62326115810032" lon="11.181774980445173"><ele>130.00000000000003</ele><time>2026-04-27T16:51:13.002Z</time></trkpt><trkpt lat="43.62322510324957" lon="11.181856367492275"><ele>130.0</ele><time>2026-04-27T16:51:15.002Z</time></trkpt><trkpt lat="43.6231894768272" lon="11.18193931036226"><ele>130.2857142857143</ele><time>2026-04-27T16:51:17.002Z</time></trkpt><trkpt lat="43.62315073832165" lon="11.182017887867293"><ele>130.57142857142858</ele><time>2026-04-27T16:51:19.002Z</time></trkpt><trkpt lat="43.62311099668842" lon="11.182108227112218"><ele>130.85714285714286</ele><time>2026-04-27T16:51:21.002Z</time></trkpt><trkpt lat="43.62306579707109" lon="11.182188024995083"><ele>131.14285714285717</ele><time>2026-04-27T16:51:23.002Z</time></trkpt><trkpt lat="43.62303842095723" lon="11.182276074858969"><ele>131.42857142857144</ele><time>2026-04-27T16:51:25.002Z</time></trkpt><trkpt lat="43.62300363063059" lon="11.182365790133122"><ele>131.71428571428572</ele><time>2026-04-27T16:51:27.002Z</time></trkpt><trkpt lat="43.62296239136258" lon="11.182450210036922"><ele>132.0</ele><time>2026-04-27T16:51:29.002Z</time></trkpt><trkpt lat="43.62292086184883" lon="11.182518200714368"><ele>132.0</ele><time>2026-04-27T16:51:31.002Z</time></trkpt><trkpt lat="43.62287359073567" lon="11.182583027029944"><ele>132.0</ele><time>2026-04-27T16:51:33.002Z</time></trkpt><trkpt lat="43.62282052891489" lon="11.182665844057551"><ele>132.0</ele><time>2026-04-27T16:51:35.002Z</time></trkpt><trkpt lat="43.6227697957963" lon="11.182741329964884"><ele>132.0</ele><time>2026-04-27T16:51:37.002Z</time></trkpt><trkpt lat="43.622719774226354" lon="11.182811444290708"><ele>132.0</ele><time>2026-04-27T16:51:39.002Z</time></trkpt><trkpt lat="43.62266950238478" lon="11.182891385730699"><ele>132.0</ele><time>2026-04-27T16:51:41.002Z</time></trkpt><trkpt lat="43.62261937380813" lon="11.18296141968193"><ele>132.0</ele><time>2026-04-27T16:51:43.002Z</time></trkpt><trkpt lat="43.62256223575307" lon="11.183041865962844"><ele>132.0</ele><time>2026-04-27T16:51:45.002Z</time></trkpt><trkpt lat="43.62250769217461" lon="11.183117885375863"><ele>132.0</ele><time>2026-04-27T16:51:47.002Z</time></trkpt><trkpt lat="43.62245516613291" lon="11.18318968546246"><ele>132.0</ele><time>2026-04-27T16:51:49.002Z</time></trkpt><trkpt lat="43.622408076408" lon="11.18326560184606"><ele>132.0</ele><time>2026-04-27T16:51:51.002Z</time></trkpt><trkpt lat="43.622356597602774" lon="11.18335188585929"><ele>132.0</ele><time>2026-04-27T16:51:53.002Z</time></trkpt><trkpt lat="43.62232132267895" lon="11.183452569476167"><ele>132.0</ele><time>2026-04-27T16:51:55.002Z</time></trkpt><trkpt lat="43.62230494384414" lon="11.183542578388703"><ele>132.14285714285714</ele><time>2026-04-27T16:51:57.002Z</time></trkpt><trkpt lat="43.62228727144337" lon="11.1836286006388"><ele>132.28571428571428</ele><time>2026-04-27T16:51:59.002Z</time></trkpt><trkpt lat="43.62221304767597" lon="11.183709879890891"><ele>132.42857142857144</ele><time>2026-04-27T16:52:02.002Z</time></trkpt><trkpt lat="43.62215526738031" lon="11.183749278049664"><ele>132.57142857142856</ele><time>2026-04-27T16:52:04.002Z</time></trkpt><trkpt lat="43.62209241758371" lon="11.183770746779297"><ele>132.71428571428572</ele><time>2026-04-27T16:52:06.002Z</time></trkpt><trkpt lat="43.62202376925219" lon="11.183796863385306"><ele>132.85714285714286</ele><time>2026-04-27T16:52:08.002Z</time></trkpt><trkpt lat="43.62194836710828" lon="11.183828109902286"><ele>133.0</ele><time>2026-04-27T16:52:10.002Z</time></trkpt><trkpt lat="43.621880734862465" lon="11.183851683236378"><ele>132.66666666666669</ele><time>2026-04-27T16:52:12.002Z</time></trkpt><trkpt lat="43.62180682346651" lon="11.183892759240313"><ele>132.33333333333334</ele><time>2026-04-27T16:52:14.002Z</time></trkpt><trkpt lat="43.621744707063456" lon="11.183939329063351"><ele>132.0</ele><time>2026-04-27T16:52:16.002Z</time></trkpt><trkpt lat="43.6216654372764" lon="11.183987422918797"><ele>131.66666666666666</ele><time>2026-04-27T16:52:18.002Z</time></trkpt><trkpt lat="43.62158681945063" lon="11.183995080235613"><ele>131.33333333333331</ele><time>2026-04-27T16:52:20.002Z</time></trkpt><trkpt lat="43.62150665263528" lon="11.183998697652395"><ele>131.0</ele><time>2026-04-27T16:52:22.002Z</time></trkpt><trkpt lat="43.621419214360294" lon="11.183980178138405"><ele>131.0</ele><time>2026-04-27T16:52:24.002Z</time></trkpt><trkpt lat="43.62134222680758" lon="11.183971831355354"><ele>131.0</ele><time>2026-04-27T16:52:26.002Z</time></trkpt><trkpt lat="43.62126696813802" lon="11.183963194402464"><ele>131.0</ele><time>2026-04-27T16:52:28.002Z</time></trkpt><trkpt lat="43.62119309366865" lon="11.183960028714374"><ele>131.0</ele><time>2026-04-27T16:52:30.002Z</time></trkpt><trkpt lat="43.62111422970677" lon="11.183974583054475"><ele>131.0</ele><time>2026-04-27T16:52:32.002Z</time></trkpt><trkpt lat="43.62104598964074" lon="11.18400255788812"><ele>131.0</ele><time>2026-04-27T16:52:34.002Z</time></trkpt><trkpt lat="43.62098359317533" lon="11.184031534877397"><ele>131.0</ele><time>2026-04-27T16:52:36.002Z</time></trkpt><trkpt lat="43.620923595217086" lon="11.18406141809896"><ele>130.85714285714286</ele><time>2026-04-27T16:52:38.002Z</time></trkpt><trkpt lat="43.62085568538731" lon="11.184085618981342"><ele>130.71428571428572</ele><time>2026-04-27T16:52:40.002Z</time></trkpt><trkpt lat="43.62078490500709" lon="11.184102298171128"><ele>130.57142857142858</ele><time>2026-04-27T16:52:42.002Z</time></trkpt><trkpt lat="43.62071313517477" lon="11.184120822089248"><ele>130.42857142857144</ele><time>2026-04-27T16:52:44.002Z</time></trkpt><trkpt lat="43.62064844329622" lon="11.184159933190504"><ele>130.28571428571428</ele><time>2026-04-27T16:52:46.002Z</time></trkpt><trkpt lat="43.62060049995198" lon="11.18422906861589"><ele>130.14285714285717</ele><time>2026-04-27T16:52:48.002Z</time></trkpt><trkpt lat="43.62055517814192" lon="11.184295836694384"><ele>130.0</ele><time>2026-04-27T16:52:50.002Z</time></trkpt><trkpt lat="43.620495342230676" lon="11.184346699151021"><ele>130.00000000000003</ele><time>2026-04-27T16:52:52.002Z</time></trkpt><trkpt lat="43.62043185442852" lon="11.184392727492604"><ele>130.0</ele><time>2026-04-27T16:52:54.002Z</time></trkpt><trkpt lat="43.62036119314097" lon="11.184424874183952"><ele>130.0</ele><time>2026-04-27T16:52:56.002Z</time></trkpt><trkpt lat="43.620295656376065" lon="11.184462933409032"><ele>130.0</ele><time>2026-04-27T16:52:58.002Z</time></trkpt><trkpt lat="43.62023180407775" lon="11.184503955606523"><ele>130.0</ele><time>2026-04-27T16:53:00.002Z</time></trkpt><trkpt lat="43.62017027302895" lon="11.184538746795692"><ele>130.00000000000003</ele><time>2026-04-27T16:53:02.002Z</time></trkpt><trkpt lat="43.62010679564988" lon="11.184572897569414"><ele>130.0</ele><time>2026-04-27T16:53:04.002Z</time></trkpt><trkpt lat="43.620046473129385" lon="11.18460945473717"><ele>130.14285714285717</ele><time>2026-04-27T16:53:06.002Z</time></trkpt><trkpt lat="43.61998536939047" lon="11.184646156769686"><ele>130.28571428571428</ele><time>2026-04-27T16:53:08.002Z</time></trkpt><trkpt lat="43.61992706091116" lon="11.18468466661599"><ele>130.42857142857144</ele><time>2026-04-27T16:53:10.002Z</time></trkpt><trkpt lat="43.619846576058315" lon="11.184737674969872"><ele>130.57142857142858</ele><time>2026-04-27T16:53:13.002Z</time></trkpt><trkpt lat="43.61978892594025" lon="11.184780693345958"><ele>130.71428571428572</ele><time>2026-04-27T16:53:15.002Z</time></trkpt><trkpt lat="43.61972603328881" lon="11.1848232666937"><ele>130.85714285714286</ele><time>2026-04-27T16:53:17.002Z</time></trkpt><trkpt lat="43.61966635201832" lon="11.184862680025248"><ele>131.0</ele><time>2026-04-27T16:53:19.002Z</time></trkpt><trkpt lat="43.61958508762355" lon="11.184926409776034"><ele>131.0</ele><time>2026-04-27T16:53:22.002Z</time></trkpt><trkpt lat="43.61949908514804" lon="11.18497996863623"><ele>131.0</ele><time>2026-04-27T16:53:25.002Z</time></trkpt><trkpt lat="43.61944047633229" lon="11.185023510693323"><ele>131.0</ele><time>2026-04-27T16:53:27.002Z</time></trkpt><trkpt lat="43.619363760469874" lon="11.185061260971143"><ele>131.0</ele><time>2026-04-27T16:53:29.002Z</time></trkpt><trkpt lat="43.61928547846347" lon="11.185100394697468"><ele>131.0</ele><time>2026-04-27T16:53:31.002Z</time></trkpt><trkpt lat="43.61920257346905" lon="11.185151663653247"><ele>131.0</ele><time>2026-04-27T16:53:33.002Z</time></trkpt><trkpt lat="43.61912329973051" lon="11.185219227004461"><ele>131.33333333333331</ele><time>2026-04-27T16:53:35.002Z</time></trkpt><trkpt lat="43.6190461973512" lon="11.185272003990406"><ele>131.66666666666666</ele><time>2026-04-27T16:53:37.002Z</time></trkpt><trkpt lat="43.61897240339056" lon="11.185312571824054"><ele>132.0</ele><time>2026-04-27T16:53:39.002Z</time></trkpt><trkpt lat="43.61889230484938" lon="11.1853500459827"><ele>132.33333333333334</ele><time>2026-04-27T16:53:41.002Z</time></trkpt><trkpt lat="43.61881950203337" lon="11.185377041377038"><ele>132.66666666666669</ele><time>2026-04-27T16:53:43.002Z</time></trkpt><trkpt lat="43.61873774269764" lon="11.185394525091212"><ele>133.0</ele><time>2026-04-27T16:53:45.002Z</time></trkpt><trkpt lat="43.6186696409819" lon="11.185410810161459"><ele>133.33333333333334</ele><time>2026-04-27T16:53:47.002Z</time></trkpt><trkpt lat="43.61859550224881" lon="11.185427207754746"><ele>133.66666666666669</ele><time>2026-04-27T16:53:49.002Z</time></trkpt><trkpt lat="43.618532484666964" lon="11.185432886389966"><ele>134.0</ele><time>2026-04-27T16:53:51.002Z</time></trkpt><trkpt lat="43.61846643254669" lon="11.185448599636846"><ele>134.33333333333334</ele><time>2026-04-27T16:53:53.002Z</time></trkpt><trkpt lat="43.61838605450375" lon="11.185451692675644"><ele>134.66666666666666</ele><time>2026-04-27T16:53:55.002Z</time></trkpt><trkpt lat="43.61830731767625" lon="11.185452793723293"><ele>135.0</ele><time>2026-04-27T16:53:57.002Z</time></trkpt><trkpt lat="43.61820451548659" lon="11.185428040772303"><ele>135.0</ele><time>2026-04-27T16:54:00.002Z</time></trkpt><trkpt lat="43.61812274820912" lon="11.185401766536375"><ele>135.0</ele><time>2026-04-27T16:54:02.002Z</time></trkpt><trkpt lat="43.61804968691677" lon="11.18537010163483"><ele>135.0</ele><time>2026-04-27T16:54:04.002Z</time></trkpt><trkpt lat="43.61798356616474" lon="11.185319547051925"><ele>135.0</ele><time>2026-04-27T16:54:06.002Z</time></trkpt><trkpt lat="43.61792157509362" lon="11.185267379106836"><ele>135.0</ele><time>2026-04-27T16:54:08.002Z</time></trkpt><trkpt lat="43.617862002417645" lon="11.185231897562533"><ele>135.0</ele><time>2026-04-27T16:54:10.002Z</time></trkpt><trkpt lat="43.61780117904371" lon="11.185186258020986"><ele>135.0</ele><time>2026-04-27T16:54:12.002Z</time></trkpt><trkpt lat="43.61772938555097" lon="11.185156294910737"><ele>135.14285714285714</ele><time>2026-04-27T16:54:15.003Z</time></trkpt><trkpt lat="43.61765334680292" lon="11.185105332901362"><ele>135.28571428571428</ele><time>2026-04-27T16:54:18.002Z</time></trkpt><trkpt lat="43.61758994787301" lon="11.18507628150299"><ele>135.42857142857142</ele><time>2026-04-27T16:54:20.002Z</time></trkpt><trkpt lat="43.61752344421324" lon="11.185034941162398"><ele>135.57142857142856</ele><time>2026-04-27T16:54:22.003Z</time></trkpt><trkpt lat="43.61745861574234" lon="11.185002102956213"><ele>135.71428571428572</ele><time>2026-04-27T16:54:24.003Z</time></trkpt><trkpt lat="43.61739679837298" lon="11.184968950085672"><ele>135.85714285714283</ele><time>2026-04-27T16:54:26.002Z</time></trkpt><trkpt lat="43.617323868181764" lon="11.184942113275078"><ele>136.0</ele><time>2026-04-27T16:54:28.003Z</time></trkpt><trkpt lat="43.61724905202931" lon="11.184891629303927"><ele>135.99999999999997</ele><time>2026-04-27T16:54:31.002Z</time></trkpt><trkpt lat="43.61719055984846" lon="11.184858675261593"><ele>136.0</ele><time>2026-04-27T16:54:34.002Z</time></trkpt><trkpt lat="43.61712550538966" lon="11.184811517070738"><ele>136.0</ele><time>2026-04-27T16:54:38.002Z</time></trkpt><trkpt lat="43.61712234487212" lon="11.184819264819648"><ele>136.0</ele><time>2026-04-27T16:56:55.002Z</time></trkpt><trkpt lat="43.61718890959107" lon="11.184861431561007"><ele>136.0</ele><time>2026-04-27T16:56:59.002Z</time></trkpt><trkpt lat="43.617255384553694" lon="11.184891393223722"><ele>135.99999999999997</ele><time>2026-04-27T16:57:02.002Z</time></trkpt><trkpt lat="43.617331329262804" lon="11.1849262393502"><ele>136.0</ele><time>2026-04-27T16:57:05.002Z</time></trkpt><trkpt lat="43.6174166561052" lon="11.184990636160817"><ele>136.0</ele><time>2026-04-27T16:57:08.002Z</time></trkpt><trkpt lat="43.617502045366116" lon="11.185031671899644"><ele>136.0</ele><time>2026-04-27T16:57:11.002Z</time></trkpt><trkpt lat="43.61756190991544" lon="11.185062539005768"><ele>136.0</ele><time>2026-04-27T16:57:13.002Z</time></trkpt><trkpt lat="43.617637209298415" lon="11.185083485656307"><ele>136.0</ele><time>2026-04-27T16:57:15.002Z</time></trkpt><trkpt lat="43.617714367107546" lon="11.18512313774966"><ele>136.0</ele><time>2026-04-27T16:57:17.002Z</time></trkpt><trkpt lat="43.61777284751594" lon="11.185176213364546"><ele>136.0</ele><time>2026-04-27T16:57:19.002Z</time></trkpt><trkpt lat="43.61785550249192" lon="11.185228076667048"><ele>135.83333333333334</ele><time>2026-04-27T16:57:21.002Z</time></trkpt><trkpt lat="43.617919540914116" lon="11.185284132185155"><ele>135.66666666666669</ele><time>2026-04-27T16:57:23.002Z</time></trkpt><trkpt lat="43.61800868529413" lon="11.185357771040302"><ele>135.5</ele><time>2026-04-27T16:57:25.002Z</time></trkpt><trkpt lat="43.6180878749508" lon="11.185406170760713"><ele>135.33333333333334</ele><time>2026-04-27T16:57:27.002Z</time></trkpt><trkpt lat="43.618167402487934" lon="11.185423667640851"><ele>135.16666666666666</ele><time>2026-04-27T16:57:29.002Z</time></trkpt><trkpt lat="43.61824215911193" lon="11.18544445978519"><ele>135.0</ele><time>2026-04-27T16:57:31.002Z</time></trkpt><trkpt lat="43.61831565019734" lon="11.185453270659488"><ele>135.0</ele><time>2026-04-27T16:57:33.002Z</time></trkpt><trkpt lat="43.618379721050175" lon="11.185455265112783"><ele>135.0</ele><time>2026-04-27T16:57:35.002Z</time></trkpt><trkpt lat="43.61844769175478" lon="11.185456235303505"><ele>135.0</ele><time>2026-04-27T16:57:37.002Z</time></trkpt><trkpt lat="43.61852176950644" lon="11.185439574445452"><ele>135.0</ele><time>2026-04-27T16:57:39.002Z</time></trkpt><trkpt lat="43.61859354896045" lon="11.18542668802576"><ele>135.0</ele><time>2026-04-27T16:57:41.002Z</time></trkpt><trkpt lat="43.61868336171306" lon="11.185408682480016"><ele>135.0</ele><time>2026-04-27T16:57:43.002Z</time></trkpt><trkpt lat="43.618764664060244" lon="11.185390093445946"><ele>134.66666666666666</ele><time>2026-04-27T16:57:45.002Z</time></trkpt><trkpt lat="43.618834540078204" lon="11.18538078581166"><ele>134.33333333333334</ele><time>2026-04-27T16:57:47.002Z</time></trkpt><trkpt lat="43.618903840905816" lon="11.18535200227648"><ele>134.0</ele><time>2026-04-27T16:57:49.002Z</time></trkpt><trkpt lat="43.61898233622435" lon="11.185306306864303"><ele>133.66666666666669</ele><time>2026-04-27T16:57:51.002Z</time></trkpt><trkpt lat="43.6190651640952" lon="11.18525230156516"><ele>133.33333333333334</ele><time>2026-04-27T16:57:53.002Z</time></trkpt><trkpt lat="43.61914313371134" lon="11.185186983382236"><ele>133.0</ele><time>2026-04-27T16:57:55.002Z</time></trkpt><trkpt lat="43.619221591747525" lon="11.185127451714072"><ele>133.0</ele><time>2026-04-27T16:57:57.002Z</time></trkpt><trkpt lat="43.619295619928224" lon="11.185091014572455"><ele>133.0</ele><time>2026-04-27T16:57:59.002Z</time></trkpt><trkpt lat="43.61936592388083" lon="11.185059588937884"><ele>133.0</ele><time>2026-04-27T16:58:01.002Z</time></trkpt><trkpt lat="43.61943561254819" lon="11.185015319175635"><ele>133.0</ele><time>2026-04-27T16:58:03.002Z</time></trkpt><trkpt lat="43.61950834381338" lon="11.184964088365936"><ele>133.0</ele><time>2026-04-27T16:58:05.002Z</time></trkpt><trkpt lat="43.61957973752517" lon="11.184912445470879"><ele>133.0</ele><time>2026-04-27T16:58:07.002Z</time></trkpt><trkpt lat="43.61966142269977" lon="11.184853601256961"><ele>132.8</ele><time>2026-04-27T16:58:09.002Z</time></trkpt><trkpt lat="43.61974032686048" lon="11.18480549276156"><ele>132.60000000000002</ele><time>2026-04-27T16:58:11.002Z</time></trkpt><trkpt lat="43.61981871029607" lon="11.184754547174927"><ele>132.39999999999998</ele><time>2026-04-27T16:58:13.002Z</time></trkpt><trkpt lat="43.61990248390328" lon="11.184706284751456"><ele>132.2</ele><time>2026-04-27T16:58:15.002Z</time></trkpt><trkpt lat="43.61998557551661" lon="11.18465003704314"><ele>132.0</ele><time>2026-04-27T16:58:17.002Z</time></trkpt><trkpt lat="43.62008627308109" lon="11.18459031395006"><ele>132.0</ele><time>2026-04-27T16:58:19.002Z</time></trkpt><trkpt lat="43.62018977985824" lon="11.184534193820257"><ele>132.0</ele><time>2026-04-27T16:58:21.002Z</time></trkpt><trkpt lat="43.62028602054985" lon="11.18447774430663"><ele>132.0</ele><time>2026-04-27T16:58:23.002Z</time></trkpt><trkpt lat="43.62038266609273" lon="11.184415633441864"><ele>132.0</ele><time>2026-04-27T16:58:25.002Z</time></trkpt><trkpt lat="43.62047808429129" lon="11.184343789868684"><ele>132.0</ele><time>2026-04-27T16:58:27.002Z</time></trkpt><trkpt lat="43.620560483755796" lon="11.18426184880194"><ele>131.6</ele><time>2026-04-27T16:58:29.002Z</time></trkpt><trkpt lat="43.62062177661569" lon="11.184160536235533"><ele>131.2</ele><time>2026-04-27T16:58:31.002Z</time></trkpt><trkpt lat="43.62071004041545" lon="11.184105727869753"><ele>130.8</ele><time>2026-04-27T16:58:33.003Z</time></trkpt><trkpt lat="43.62080891377646" lon="11.184116606030669"><ele>130.4</ele><time>2026-04-27T16:58:35.002Z</time></trkpt><trkpt lat="43.620888950510164" lon="11.184083624496605"><ele>130.0</ele><time>2026-04-27T16:58:37.002Z</time></trkpt><trkpt lat="43.620975747463824" lon="11.184041349231995"><ele>130.0</ele><time>2026-04-27T16:58:39.002Z</time></trkpt><trkpt lat="43.6210569722009" lon="11.184000978161478"><ele>130.0</ele><time>2026-04-27T16:58:41.003Z</time></trkpt><trkpt lat="43.62113952640569" lon="11.183976337956242"><ele>130.0</ele><time>2026-04-27T16:58:43.003Z</time></trkpt><trkpt lat="43.621229103850936" lon="11.18396722559509"><ele>130.0</ele><time>2026-04-27T16:58:45.003Z</time></trkpt><trkpt lat="43.621315618784955" lon="11.183984657447954"><ele>130.0</ele><time>2026-04-27T16:58:47.003Z</time></trkpt><trkpt lat="43.62139381582688" lon="11.184000926862357"><ele>130.0</ele><time>2026-04-27T16:58:49.003Z</time></trkpt><trkpt lat="43.621476464302425" lon="11.184007881707961"><ele>130.14285714285717</ele><time>2026-04-27T16:58:51.003Z</time></trkpt><trkpt lat="43.62156365945762" lon="11.183999207573821"><ele>130.28571428571428</ele><time>2026-04-27T16:58:54.003Z</time></trkpt><trkpt lat="43.62163220510457" lon="11.183985958557951"><ele>130.42857142857144</ele><time>2026-04-27T16:58:56.003Z</time></trkpt><trkpt lat="43.621697126448744" lon="11.183950864695595"><ele>130.57142857142858</ele><time>2026-04-27T16:58:58.003Z</time></trkpt><trkpt lat="43.62177260714938" lon="11.1839038811777"><ele>130.71428571428572</ele><time>2026-04-27T16:59:00.003Z</time></trkpt><trkpt lat="43.621836969091724" lon="11.183870303321468"><ele>130.85714285714286</ele><time>2026-04-27T16:59:02.003Z</time></trkpt><trkpt lat="43.62190464025943" lon="11.183848611624684"><ele>131.0</ele><time>2026-04-27T16:59:04.003Z</time></trkpt><trkpt lat="43.62196768178578" lon="11.183832335971692"><ele>131.33333333333331</ele><time>2026-04-27T16:59:06.003Z</time></trkpt><trkpt lat="43.622053071639655" lon="11.183782910995495"><ele>131.66666666666666</ele><time>2026-04-27T16:59:08.003Z</time></trkpt><trkpt lat="43.62212579100679" lon="11.183755311103791"><ele>132.0</ele><time>2026-04-27T16:59:10.003Z</time></trkpt><trkpt lat="43.622188842470216" lon="11.183710425048302"><ele>132.33333333333334</ele><time>2026-04-27T16:59:12.003Z</time></trkpt><trkpt lat="43.62225210016917" lon="11.183612934186952"><ele>132.66666666666669</ele><time>2026-04-27T16:59:14.003Z</time></trkpt><trkpt lat="43.62227915844587" lon="11.183474343329944"><ele>133.0</ele><time>2026-04-27T16:59:16.003Z</time></trkpt><trkpt lat="43.62233363133538" lon="11.183318094940537"><ele>133.0</ele><time>2026-04-27T16:59:18.003Z</time></trkpt><trkpt lat="43.62237757748875" lon="11.18324844049688"><ele>133.0</ele><time>2026-04-27T16:59:19.003Z</time></trkpt><trkpt lat="43.62246217917601" lon="11.183146205809615"><ele>133.0</ele><time>2026-04-27T16:59:21.003Z</time></trkpt><trkpt lat="43.62254548442807" lon="11.183041218351656"><ele>133.0</ele><time>2026-04-27T16:59:23.003Z</time></trkpt><trkpt lat="43.622616203813884" lon="11.182942105244667"><ele>133.0</ele><time>2026-04-27T16:59:25.003Z</time></trkpt><trkpt lat="43.62268696599589" lon="11.182839827347136"><ele>133.0</ele><time>2026-04-27T16:59:27.003Z</time></trkpt><trkpt lat="43.62275579424724" lon="11.182731432199608"><ele>133.0</ele><time>2026-04-27T16:59:29.003Z</time></trkpt><trkpt lat="43.6228257264569" lon="11.182635795099696"><ele>133.0</ele><time>2026-04-27T16:59:31.003Z</time></trkpt><trkpt lat="43.622900533278205" lon="11.182543302500404"><ele>133.0</ele><time>2026-04-27T16:59:33.003Z</time></trkpt><trkpt lat="43.622943172058086" lon="11.18244093818311"><ele>133.0</ele><time>2026-04-27T16:59:35.003Z</time></trkpt><trkpt lat="43.62298108880281" lon="11.182342955818338"><ele>132.83333333333334</ele><time>2026-04-27T16:59:37.003Z</time></trkpt><trkpt lat="43.62302363153225" lon="11.182254359400808"><ele>132.66666666666669</ele><time>2026-04-27T16:59:39.003Z</time></trkpt><trkpt lat="43.62305457297171" lon="11.182173076389331"><ele>132.5</ele><time>2026-04-27T16:59:41.003Z</time></trkpt><trkpt lat="43.62310706698528" lon="11.182078102723734"><ele>132.33333333333334</ele><time>2026-04-27T16:59:45.003Z</time></trkpt><trkpt lat="43.62315227186902" lon="11.181996748779865"><ele>132.16666666666666</ele><time>2026-04-27T16:59:49.003Z</time></trkpt><trkpt lat="43.62319405040434" lon="11.181904146083127"><ele>132.0</ele><time>2026-04-27T16:59:53.003Z</time></trkpt><trkpt lat="43.62323757221399" lon="11.18181923601909"><ele>132.0</ele><time>2026-04-27T16:59:57.003Z</time></trkpt><trkpt lat="43.62327644602391" lon="11.181737118363888"><ele>132.0</ele><time>2026-04-27T17:00:01.003Z</time></trkpt><trkpt lat="43.62332446163236" lon="11.181640788803785"><ele>132.0</ele><time>2026-04-27T17:00:04.003Z</time></trkpt><trkpt lat="43.623365302791925" lon="11.181555026852957"><ele>132.0</ele><time>2026-04-27T17:00:07.003Z</time></trkpt><trkpt lat="43.623381234016705" lon="11.181462027075918"><ele>132.0</ele><time>2026-04-27T17:01:16.002Z</time></trkpt><trkpt lat="43.62342243480744" lon="11.18138083408958"><ele>132.0</ele><time>2026-04-27T17:01:19.002Z</time></trkpt><trkpt lat="43.623477669450814" lon="11.181290635434854"><ele>131.83333333333334</ele><time>2026-04-27T17:01:22.002Z</time></trkpt><trkpt lat="43.6235328497413" lon="11.181194456582379"><ele>131.66666666666666</ele><time>2026-04-27T17:01:25.002Z</time></trkpt><trkpt lat="43.62357448568246" lon="11.181108202400033"><ele>131.5</ele><time>2026-04-27T17:01:28.002Z</time></trkpt><trkpt lat="43.623610230609664" lon="11.181026772241445"><ele>131.33333333333331</ele><time>2026-04-27T17:01:31.002Z</time></trkpt><trkpt lat="43.623649021763036" lon="11.18094008748878"><ele>131.16666666666666</ele><time>2026-04-27T17:01:34.002Z</time></trkpt><trkpt lat="43.62369031648629" lon="11.180841865416971"><ele>131.0</ele><time>2026-04-27T17:01:37.002Z</time></trkpt><trkpt lat="43.62372610078394" lon="11.180726044323535"><ele>130.85714285714286</ele><time>2026-04-27T17:01:40.002Z</time></trkpt><trkpt lat="43.6237594459104" lon="11.180645833344432"><ele>130.71428571428572</ele><time>2026-04-27T17:01:42.002Z</time></trkpt><trkpt lat="43.62380559238911" lon="11.180583454464514"><ele>130.57142857142858</ele><time>2026-04-27T17:01:44.002Z</time></trkpt><trkpt lat="43.623877993177885" lon="11.18052751807934"><ele>130.42857142857144</ele><time>2026-04-27T17:01:47.002Z</time></trkpt><trkpt lat="43.623941937730415" lon="11.180460314113144"><ele>130.28571428571428</ele><time>2026-04-27T17:01:50.002Z</time></trkpt><trkpt lat="43.623995505757804" lon="11.180399454514081"><ele>130.14285714285717</ele><time>2026-04-27T17:01:53.002Z</time></trkpt><trkpt lat="43.62405409568479" lon="11.180352844512102"><ele>130.0</ele><time>2026-04-27T17:01:56.002Z</time></trkpt><trkpt lat="43.62410534280124" lon="11.180251237850793"><ele>130.00000000000003</ele><time>2026-04-27T17:01:59.002Z</time></trkpt><trkpt lat="43.62414354953182" lon="11.18017533947543"><ele>130.0</ele><time>2026-04-27T17:02:01.002Z</time></trkpt><trkpt lat="43.62419280638948" lon="11.180109512912464"><ele>130.0</ele><time>2026-04-27T17:02:03.002Z</time></trkpt><trkpt lat="43.62424721609476" lon="11.18004611616744"><ele>130.0</ele><time>2026-04-27T17:02:05.002Z</time></trkpt><trkpt lat="43.62430108023316" lon="11.17999121551602"><ele>130.0</ele><time>2026-04-27T17:02:07.002Z</time></trkpt><trkpt lat="43.62435172265574" lon="11.17993549923873"><ele>130.00000000000003</ele><time>2026-04-27T17:02:09.002Z</time></trkpt><trkpt lat="43.62440409490929" lon="11.179882710955336"><ele>130.0</ele><time>2026-04-27T17:02:11.002Z</time></trkpt><trkpt lat="43.62446745919066" lon="11.179825519474658"><ele>131.0</ele><time>2026-04-27T17:02:13.002Z</time></trkpt><trkpt lat="43.624528254611036" lon="11.179765461931563"><ele>132.0</ele><time>2026-04-27T17:02:15.002Z</time></trkpt><trkpt lat="43.62458648284954" lon="11.179715912490765"><ele>133.0</ele><time>2026-04-27T17:02:17.002Z</time></trkpt><trkpt lat="43.62464865002689" lon="11.179669292866958"><ele>134.0</ele><time>2026-04-27T17:02:19.002Z</time></trkpt><trkpt lat="43.6247262109111" lon="11.179635126028652"><ele>135.0</ele><time>2026-04-27T17:02:21.002Z</time></trkpt><trkpt lat="43.62482995405656" lon="11.179588856507857"><ele>136.0</ele><time>2026-04-27T17:02:23.002Z</time></trkpt><trkpt lat="43.6249240309119" lon="11.179544600860936"><ele>136.0</ele><time>2026-04-27T17:02:25.002Z</time></trkpt><trkpt lat="43.625013860009375" lon="11.179508495844663"><ele>136.0</ele><time>2026-04-27T17:02:27.002Z</time></trkpt><trkpt lat="43.62509903300017" lon="11.179490032330012"><ele>136.0</ele><time>2026-04-27T17:02:29.002Z</time></trkpt><trkpt lat="43.6251776080797" lon="11.179472656121396"><ele>136.0</ele><time>2026-04-27T17:02:31.002Z</time></trkpt><trkpt lat="43.62525682900041" lon="11.179461498220913"><ele>136.0</ele><time>2026-04-27T17:02:33.002Z</time></trkpt><trkpt lat="43.62533176898343" lon="11.179467219387151"><ele>136.0</ele><time>2026-04-27T17:02:35.002Z</time></trkpt><trkpt lat="43.62540428462655" lon="11.179480307195746"><ele>135.5</ele><time>2026-04-27T17:02:37.002Z</time></trkpt><trkpt lat="43.62547920218163" lon="11.179479861907875"><ele>135.0</ele><time>2026-04-27T17:02:39.002Z</time></trkpt><trkpt lat="43.62557526966323" lon="11.179492992081112"><ele>134.5</ele><time>2026-04-27T17:02:42.003Z</time></trkpt><trkpt lat="43.625656160956694" lon="11.179475786495788"><ele>134.0</ele><time>2026-04-27T17:02:44.003Z</time></trkpt><trkpt lat="43.62573282847158" lon="11.179472365917775"><ele>133.5</ele><time>2026-04-27T17:02:46.003Z</time></trkpt><trkpt lat="43.625804263060026" lon="11.179471357214165"><ele>133.0</ele><time>2026-04-27T17:02:48.002Z</time></trkpt><trkpt lat="43.62588158299223" lon="11.179464316992119"><ele>133.0</ele><time>2026-04-27T17:02:50.002Z</time></trkpt><trkpt lat="43.625964463266904" lon="11.179472551749045"><ele>133.0</ele><time>2026-04-27T17:02:52.003Z</time></trkpt><trkpt lat="43.626035407450615" lon="11.179469850813"><ele>133.0</ele><time>2026-04-27T17:02:54.003Z</time></trkpt><trkpt lat="43.626111313851595" lon="11.179477254405594"><ele>133.0</ele><time>2026-04-27T17:02:56.003Z</time></trkpt><trkpt lat="43.626187098006305" lon="11.179485233104412"><ele>133.0</ele><time>2026-04-27T17:02:58.003Z</time></trkpt><trkpt lat="43.62627600951039" lon="11.179495761326326"><ele>133.0</ele><time>2026-04-27T17:03:00.003Z</time></trkpt><trkpt lat="43.62636437134146" lon="11.179481706404545"><ele>132.83333333333334</ele><time>2026-04-27T17:03:02.003Z</time></trkpt><trkpt lat="43.62644302025263" lon="11.179489053926945"><ele>132.66666666666669</ele><time>2026-04-27T17:03:04.003Z</time></trkpt><trkpt lat="43.626518804151" lon="11.17949517917341"><ele>132.5</ele><time>2026-04-27T17:03:06.003Z</time></trkpt><trkpt lat="43.62659694471142" lon="11.179499249056203"><ele>132.33333333333334</ele><time>2026-04-27T17:03:08.003Z</time></trkpt><trkpt lat="43.62666406067352" lon="11.17950935596055"><ele>132.16666666666666</ele><time>2026-04-27T17:03:10.003Z</time></trkpt><trkpt lat="43.62675252879637" lon="11.179510342471415"><ele>132.0</ele><time>2026-04-27T17:03:13.003Z</time></trkpt><trkpt lat="43.62684661668474" lon="11.179558191136202"><ele>132.0</ele><time>2026-04-27T17:03:15.003Z</time></trkpt><trkpt lat="43.626940705454814" lon="11.179536476699932"><ele>132.0</ele><time>2026-04-27T17:03:17.003Z</time></trkpt><trkpt lat="43.627028176301835" lon="11.179473767276251"><ele>132.0</ele><time>2026-04-27T17:03:19.003Z</time></trkpt><trkpt lat="43.62712338757299" lon="11.179420741334935"><ele>132.0</ele><time>2026-04-27T17:03:21.003Z</time></trkpt><trkpt lat="43.62721358828523" lon="11.17937364847661"><ele>132.0</ele><time>2026-04-27T17:03:23.003Z</time></trkpt><trkpt lat="43.62730546917338" lon="11.179321763681385"><ele>131.6</ele><time>2026-04-27T17:03:25.003Z</time></trkpt><trkpt lat="43.627395311560356" lon="11.179260811528525"><ele>131.2</ele><time>2026-04-27T17:03:27.003Z</time></trkpt><trkpt lat="43.62748728752711" lon="11.17920335069322"><ele>130.8</ele><time>2026-04-27T17:03:29.003Z</time></trkpt><trkpt lat="43.62757934400262" lon="11.179150459775668"><ele>130.4</ele><time>2026-04-27T17:03:31.003Z</time></trkpt><trkpt lat="43.62767616403188" lon="11.179096795517502"><ele>130.0</ele><time>2026-04-27T17:03:33.003Z</time></trkpt><trkpt lat="43.627766431996676" lon="11.179043464012263"><ele>129.4</ele><time>2026-04-27T17:03:35.003Z</time></trkpt><trkpt lat="43.627863575289446" lon="11.179004066828272"><ele>128.8</ele><time>2026-04-27T17:03:37.003Z</time></trkpt><trkpt lat="43.62794666041589" lon="11.178957895640295"><ele>128.2</ele><time>2026-04-27T17:03:39.003Z</time></trkpt><trkpt lat="43.62802584379889" lon="11.178894424311055"><ele>127.6</ele><time>2026-04-27T17:03:41.003Z</time></trkpt><trkpt lat="43.62809903063407" lon="11.178825153524839"><ele>127.0</ele><time>2026-04-27T17:03:43.003Z</time></trkpt><trkpt lat="43.62818194630916" lon="11.178755732469027"><ele>127.0</ele><time>2026-04-27T17:03:45.004Z</time></trkpt><trkpt lat="43.62826763751772" lon="11.178686866056456"><ele>126.99999999999999</ele><time>2026-04-27T17:03:47.004Z</time></trkpt><trkpt lat="43.62834411401168" lon="11.17860912409609"><ele>126.99999999999999</ele><time>2026-04-27T17:03:49.004Z</time></trkpt><trkpt lat="43.6284215197084" lon="11.178527099660064"><ele>127.0</ele><time>2026-04-27T17:03:51.004Z</time></trkpt><trkpt lat="43.628489195266695" lon="11.178414697940672"><ele>127.0</ele><time>2026-04-27T17:03:53.004Z</time></trkpt><trkpt lat="43.62856973920453" lon="11.178327666104959"><ele>127.0</ele><time>2026-04-27T17:03:55.004Z</time></trkpt><trkpt lat="43.62865707139666" lon="11.178264640824725"><ele>126.99999999999999</ele><time>2026-04-27T17:03:57.004Z</time></trkpt><trkpt lat="43.628746415103414" lon="11.178211876663505"><ele>126.99999999999999</ele><time>2026-04-27T17:03:59.004Z</time></trkpt><trkpt lat="43.62884049806974" lon="11.178173346089451"><ele>127.0</ele><time>2026-04-27T17:04:01.004Z</time></trkpt><trkpt lat="43.62893762035553" lon="11.178144843056947"><ele>127.0</ele><time>2026-04-27T17:04:03.004Z</time></trkpt><trkpt lat="43.62903383462493" lon="11.178114239602628"><ele>127.0</ele><time>2026-04-27T17:04:05.004Z</time></trkpt><trkpt lat="43.62913398589701" lon="11.178079015288434"><ele>126.99999999999999</ele><time>2026-04-27T17:04:07.004Z</time></trkpt><trkpt lat="43.629232202276874" lon="11.178049346107361"><ele>126.99999999999999</ele><time>2026-04-27T17:04:09.004Z</time></trkpt><trkpt lat="43.6293403440091" lon="11.178041603463972"><ele>127.0</ele><time>2026-04-27T17:04:11.004Z</time></trkpt><trkpt lat="43.629452449795416" lon="11.178051575383368"><ele>127.0</ele><time>2026-04-27T17:04:13.004Z</time></trkpt><trkpt lat="43.629516973141136" lon="11.178055096719874"><ele>126.8</ele><time>2026-04-27T17:04:14.004Z</time></trkpt><trkpt lat="43.62963342130898" lon="11.17804004913393"><ele>126.6</ele><time>2026-04-27T17:04:16.004Z</time></trkpt><trkpt lat="43.62969670498791" lon="11.17803018221587"><ele>126.39999999999999</ele><time>2026-04-27T17:04:17.004Z</time></trkpt><trkpt lat="43.629814792812255" lon="11.178007114833196"><ele>126.19999999999999</ele><time>2026-04-27T17:04:19.004Z</time></trkpt><trkpt lat="43.62992734118288" lon="11.177991326223196"><ele>126.0</ele><time>2026-04-27T17:04:21.004Z</time></trkpt><trkpt lat="43.63004021208688" lon="11.177987821844075"><ele>126.0</ele><time>2026-04-27T17:04:23.004Z</time></trkpt><trkpt lat="43.63014918122187" lon="11.177985061251603"><ele>126.0</ele><time>2026-04-27T17:04:25.004Z</time></trkpt><trkpt lat="43.630252018009486" lon="11.177992656198"><ele>126.0</ele><time>2026-04-27T17:04:27.004Z</time></trkpt><trkpt lat="43.630351138521554" lon="11.178000342304241"><ele>126.0</ele><time>2026-04-27T17:04:29.004Z</time></trkpt><trkpt lat="43.63043482204117" lon="11.178014870001569"><ele>126.0</ele><time>2026-04-27T17:04:31.004Z</time></trkpt><trkpt lat="43.63052262993658" lon="11.178034613890492"><ele>125.8</ele><time>2026-04-27T17:04:33.004Z</time></trkpt><trkpt lat="43.63061184184455" lon="11.178049402238985"><ele>125.6</ele><time>2026-04-27T17:04:35.004Z</time></trkpt><trkpt lat="43.63071376420384" lon="11.17807598639992"><ele>125.4</ele><time>2026-04-27T17:04:37.004Z</time></trkpt><trkpt lat="43.630810942696115" lon="11.178107973428093"><ele>125.2</ele><time>2026-04-27T17:04:39.004Z</time></trkpt><trkpt lat="43.630911500816026" lon="11.178137613604461"><ele>125.0</ele><time>2026-04-27T17:04:41.004Z</time></trkpt><trkpt lat="43.631006819019426" lon="11.178161096209836"><ele>125.2</ele><time>2026-04-27T17:04:43.004Z</time></trkpt><trkpt lat="43.631100410250006" lon="11.178197878679374"><ele>125.4</ele><time>2026-04-27T17:04:45.004Z</time></trkpt><trkpt lat="43.63121048691859" lon="11.178222568690286"><ele>125.6</ele><time>2026-04-27T17:04:47.003Z</time></trkpt><trkpt lat="43.6313144597101" lon="11.17825486063934"><ele>125.8</ele><time>2026-04-27T17:04:49.003Z</time></trkpt><trkpt lat="43.63141646734803" lon="11.178293599911669"><ele>126.0</ele><time>2026-04-27T17:04:51.003Z</time></trkpt><trkpt lat="43.63152374028146" lon="11.178331091692012"><ele>126.0</ele><time>2026-04-27T17:04:53.003Z</time></trkpt><trkpt lat="43.63162588294222" lon="11.178365260412036"><ele>126.0</ele><time>2026-04-27T17:04:55.003Z</time></trkpt><trkpt lat="43.631723771193435" lon="11.178395248874477"><ele>126.0</ele><time>2026-04-27T17:04:57.002Z</time></trkpt><trkpt lat="43.63181258786781" lon="11.178398443598462"><ele>126.0</ele><time>2026-04-27T17:04:59.003Z</time></trkpt><trkpt lat="43.63188390228422" lon="11.178369981144428"><ele>126.0</ele><time>2026-04-27T17:05:01.003Z</time></trkpt><trkpt lat="43.631949931950025" lon="11.17832119397274"><ele>126.0</ele><time>2026-04-27T17:05:03.003Z</time></trkpt><trkpt lat="43.63201643750484" lon="11.178277093731378"><ele>126.0</ele><time>2026-04-27T17:05:05.003Z</time></trkpt><trkpt lat="43.63207227825805" lon="11.178228813311929"><ele>126.0</ele><time>2026-04-27T17:05:07.003Z</time></trkpt><trkpt lat="43.632129645434894" lon="11.17818259998222"><ele>126.0</ele><time>2026-04-27T17:05:09.003Z</time></trkpt><trkpt lat="43.63220779659992" lon="11.178118229163942"><ele>126.0</ele><time>2026-04-27T17:05:12.003Z</time></trkpt><trkpt lat="43.632287508045394" lon="11.178094419200184"><ele>126.0</ele><time>2026-04-27T17:05:15.003Z</time></trkpt><trkpt lat="43.6323252901246" lon="11.178167541307863"><ele>126.0</ele><time>2026-04-27T17:05:17.001Z</time></trkpt><trkpt lat="43.63237210652113" lon="11.17827967373997"><ele>126.0</ele><time>2026-04-27T17:05:20.998Z</time></trkpt><trkpt lat="43.63244247763169" lon="11.178298717470742"><ele>126.0</ele><time>2026-04-27T17:05:22.996Z</time></trkpt><trkpt lat="43.63250434494163" lon="11.178269802283667"><ele>126.0</ele><time>2026-04-27T17:05:24.995Z</time></trkpt><trkpt lat="43.63257270141074" lon="11.178214902186749"><ele>126.0</ele><time>2026-04-27T17:05:26.994Z</time></trkpt><trkpt lat="43.63263156489916" lon="11.178138241242259"><ele>126.0</ele><time>2026-04-27T17:05:28.993Z</time></trkpt><trkpt lat="43.63268292598309" lon="11.178061856325353"><ele>126.0</ele><time>2026-04-27T17:05:30.992Z</time></trkpt><trkpt lat="43.63272118258882" lon="11.177977264460434"><ele>126.0</ele><time>2026-04-27T17:05:32.992Z</time></trkpt><trkpt lat="43.63275149838734" lon="11.177880865214757"><ele>126.14285714285714</ele><time>2026-04-27T17:05:34.991Z</time></trkpt><trkpt lat="43.63275394928017" lon="11.177791138122338"><ele>126.28571428571428</ele><time>2026-04-27T17:05:36.99Z</time></trkpt><trkpt lat="43.63276460658526" lon="11.177695035581253"><ele>126.42857142857143</ele><time>2026-04-27T17:05:38.99Z</time></trkpt><trkpt lat="43.63279700436414" lon="11.177600730047356"><ele>126.57142857142857</ele><time>2026-04-27T17:05:40.99Z</time></trkpt><trkpt lat="43.63280560880224" lon="11.177506579309005"><ele>126.71428571428571</ele><time>2026-04-27T17:05:42.989Z</time></trkpt><trkpt lat="43.632809494159275" lon="11.17740784702963"><ele>126.85714285714286</ele><time>2026-04-27T17:05:44.989Z</time></trkpt><trkpt lat="43.63280136275208" lon="11.177320319595124"><ele>127.0</ele><time>2026-04-27T17:05:46.989Z</time></trkpt><trkpt lat="43.632801407669504" lon="11.177209433603721"><ele>126.66666666666667</ele><time>2026-04-27T17:05:48.988Z</time></trkpt><trkpt lat="43.63279210464301" lon="11.177105100755456"><ele>126.33333333333334</ele><time>2026-04-27T17:05:50.988Z</time></trkpt><trkpt lat="43.63279585295986" lon="11.177005863223783"><ele>126.0</ele><time>2026-04-27T17:05:52.988Z</time></trkpt><trkpt lat="43.63279762956674" lon="11.176909552182513"><ele>125.66666666666666</ele><time>2026-04-27T17:05:54.988Z</time></trkpt><trkpt lat="43.63283093158796" lon="11.176793376573382"><ele>125.33333333333333</ele><time>2026-04-27T17:05:56.987Z</time></trkpt><trkpt lat="43.63285915373606" lon="11.17664602861201"><ele>125.0</ele><time>2026-04-27T17:05:58.987Z</time></trkpt><trkpt lat="43.63282563057767" lon="11.176500531234023"><ele>124.99999999999999</ele><time>2026-04-27T17:06:00.987Z</time></trkpt><trkpt lat="43.63276767382619" lon="11.176416826189154"><ele>125.0</ele><time>2026-04-27T17:06:02.987Z</time></trkpt><trkpt lat="43.63276492067452" lon="11.176320854517513"><ele>125.0</ele><time>2026-04-27T17:06:07.987Z</time></trkpt><trkpt lat="43.63284103174405" lon="11.17628410718716"><ele>125.0</ele><time>2026-04-27T17:07:00.986Z</time></trkpt><trkpt lat="43.632976164287314" lon="11.176294662161682"><ele>124.99999999999999</ele><time>2026-04-27T17:07:11.985Z</time></trkpt><trkpt lat="43.63305054749941" lon="11.176315830750003"><ele>125.0</ele><time>2026-04-27T17:07:17.985Z</time></trkpt><trkpt lat="43.63313545903353" lon="11.176327382094648"><ele>124.99999999999999</ele><time>2026-04-27T17:07:21.985Z</time></trkpt><trkpt lat="43.63321234800484" lon="11.17633577251082"><ele>125.0</ele><time>2026-04-27T17:07:24.985Z</time></trkpt><trkpt lat="43.633293190424645" lon="11.176333520312932"><ele>125.0</ele><time>2026-04-27T17:07:27.985Z</time></trkpt><trkpt lat="43.633387157767956" lon="11.176354778774506"><ele>125.0</ele><time>2026-04-27T17:07:30.985Z</time></trkpt><trkpt lat="43.633458138214344" lon="11.176403108804749"><ele>124.99999999999999</ele><time>2026-04-27T17:07:32.985Z</time></trkpt><trkpt lat="43.63353062983727" lon="11.176486913424728"><ele>125.0</ele><time>2026-04-27T17:07:34.985Z</time></trkpt><trkpt lat="43.63354633323639" lon="11.176607555550827"><ele>124.99999999999999</ele><time>2026-04-27T17:07:36.985Z</time></trkpt><trkpt lat="43.633544529719586" lon="11.176707386121636"><ele>125.0</ele><time>2026-04-27T17:07:38.985Z</time></trkpt><trkpt lat="43.63361644187944" lon="11.176677891776523"><ele>125.0</ele><time>2026-04-27T17:07:41.985Z</time></trkpt><trkpt lat="43.633613101834115" lon="11.176565018143819"><ele>125.0</ele><time>2026-04-27T17:07:44.985Z</time></trkpt><trkpt lat="43.63360506892064" lon="11.1764416165975"><ele>124.99999999999999</ele><time>2026-04-27T17:07:47.985Z</time></trkpt><trkpt lat="43.633583975109985" lon="11.176318907293144"><ele>125.0</ele><time>2026-04-27T17:07:50.985Z</time></trkpt><trkpt lat="43.63354365596334" lon="11.17625111491489"><ele>124.99999999999999</ele><time>2026-04-27T17:07:52.985Z</time></trkpt><trkpt lat="43.63348104178259" lon="11.176208945407879"><ele>125.0</ele><time>2026-04-27T17:07:55.985Z</time></trkpt><trkpt lat="43.63344152329188" lon="11.176108293505697"><ele>125.0</ele><time>2026-04-27T17:07:58.985Z</time></trkpt><trkpt lat="43.633414604175535" lon="11.176005890303827"><ele>125.0</ele><time>2026-04-27T17:08:01.985Z</time></trkpt><trkpt lat="43.63337020743897" lon="11.175928860180077"><ele>124.99999999999999</ele><time>2026-04-27T17:08:03.985Z</time></trkpt><trkpt lat="43.63332754442799" lon="11.175854124695254"><ele>125.0</ele><time>2026-04-27T17:08:05.985Z</time></trkpt><trkpt lat="43.63328199277914" lon="11.175734488354673"><ele>124.8</ele><time>2026-04-27T17:08:08.985Z</time></trkpt><trkpt lat="43.63327005304791" lon="11.175620911976587"><ele>124.6</ele><time>2026-04-27T17:08:10.985Z</time></trkpt><trkpt lat="43.63328544494058" lon="11.175473673205191"><ele>124.4</ele><time>2026-04-27T17:08:12.985Z</time></trkpt><trkpt lat="43.63330685779085" lon="11.175332218921119"><ele>124.2</ele><time>2026-04-27T17:08:14.985Z</time></trkpt><trkpt lat="43.63334575629803" lon="11.175223266763988"><ele>124.0</ele><time>2026-04-27T17:08:16.985Z</time></trkpt><trkpt lat="43.63337227509268" lon="11.175134346058528"><ele>124.0</ele><time>2026-04-27T17:08:18.985Z</time></trkpt><trkpt lat="43.63341212943219" lon="11.175036028320317"><ele>124.00000000000001</ele><time>2026-04-27T17:08:20.985Z</time></trkpt><trkpt lat="43.633459555741574" lon="11.17494911893435"><ele>124.0</ele><time>2026-04-27T17:08:22.985Z</time></trkpt><trkpt lat="43.633504856858686" lon="11.174860697667864"><ele>124.0</ele><time>2026-04-27T17:08:24.985Z</time></trkpt><trkpt lat="43.63354053229224" lon="11.174770129992519"><ele>124.00000000000001</ele><time>2026-04-27T17:08:26.985Z</time></trkpt><trkpt lat="43.63357855211803" lon="11.174693407354388"><ele>124.0</ele><time>2026-04-27T17:08:28.985Z</time></trkpt><trkpt lat="43.633622971503186" lon="11.174625800071905"><ele>124.0</ele><time>2026-04-27T17:08:30.985Z</time></trkpt><trkpt lat="43.63366774004175" lon="11.174525624977854"><ele>124.00000000000001</ele><time>2026-04-27T17:08:33.985Z</time></trkpt><trkpt lat="43.63370700866583" lon="11.174447928902534"><ele>124.0</ele><time>2026-04-27T17:08:35.985Z</time></trkpt><trkpt lat="43.63375212344343" lon="11.17436511798038"><ele>124.0</ele><time>2026-04-27T17:08:37.985Z</time></trkpt><trkpt lat="43.63380734930782" lon="11.174282379115532"><ele>124.0</ele><time>2026-04-27T17:08:39.985Z</time></trkpt><trkpt lat="43.63385741817325" lon="11.174186752891766"><ele>124.00000000000001</ele><time>2026-04-27T17:08:41.985Z</time></trkpt><trkpt lat="43.63390519195819" lon="11.17410861509782"><ele>124.0</ele><time>2026-04-27T17:08:43.985Z</time></trkpt><trkpt lat="43.63397671764638" lon="11.174027767685914"><ele>124.14285714285715</ele><time>2026-04-27T17:08:45.985Z</time></trkpt><trkpt lat="43.63404093467532" lon="11.173956231423748"><ele>124.2857142857143</ele><time>2026-04-27T17:08:47.985Z</time></trkpt><trkpt lat="43.6341003924519" lon="11.173907903828653"><ele>124.42857142857143</ele><time>2026-04-27T17:08:49.985Z</time></trkpt><trkpt lat="43.63415302232549" lon="11.173855912976455"><ele>124.57142857142858</ele><time>2026-04-27T17:08:51.985Z</time></trkpt><trkpt lat="43.63423683957128" lon="11.17381375510949"><ele>124.71428571428572</ele><time>2026-04-27T17:08:54.985Z</time></trkpt><trkpt lat="43.63430221300933" lon="11.173788913286977"><ele>124.85714285714286</ele><time>2026-04-27T17:08:56.985Z</time></trkpt><trkpt lat="43.634364774754125" lon="11.173761954917271"><ele>125.0</ele><time>2026-04-27T17:08:58.985Z</time></trkpt><trkpt lat="43.63445120779445" lon="11.17373924484649"><ele>124.71428571428571</ele><time>2026-04-27T17:09:01.985Z</time></trkpt><trkpt lat="43.63451603040477" lon="11.173746274126692"><ele>124.42857142857144</ele><time>2026-04-27T17:09:03.986Z</time></trkpt><trkpt lat="43.634580321829304" lon="11.173757841463917"><ele>124.14285714285715</ele><time>2026-04-27T17:09:05.985Z</time></trkpt><trkpt lat="43.63465856560086" lon="11.173710299373402"><ele>123.85714285714286</ele><time>2026-04-27T17:09:08.985Z</time></trkpt><trkpt lat="43.63471886983041" lon="11.17364141702942"><ele>123.57142857142858</ele><time>2026-04-27T17:09:10.986Z</time></trkpt><trkpt lat="43.63477771136314" lon="11.173572431618727"><ele>123.2857142857143</ele><time>2026-04-27T17:09:12.986Z</time></trkpt><trkpt lat="43.63482877796393" lon="11.173491749337515"><ele>123.00000000000001</ele><time>2026-04-27T17:09:14.986Z</time></trkpt><trkpt lat="43.634877974103674" lon="11.173413201968108"><ele>123.0</ele><time>2026-04-27T17:09:16.986Z</time></trkpt><trkpt lat="43.63494028141105" lon="11.173326959816052"><ele>123.0</ele><time>2026-04-27T17:09:18.986Z</time></trkpt><trkpt lat="43.63499882924735" lon="11.173243942125078"><ele>123.0</ele><time>2026-04-27T17:09:20.986Z</time></trkpt><trkpt lat="43.6350518044706" lon="11.173160660112398"><ele>123.0</ele><time>2026-04-27T17:09:22.986Z</time></trkpt><trkpt lat="43.635109147586995" lon="11.173085744840998"><ele>123.0</ele><time>2026-04-27T17:09:24.986Z</time></trkpt><trkpt lat="43.63516633224498" lon="11.173024946333182"><ele>123.0</ele><time>2026-04-27T17:09:26.986Z</time></trkpt><trkpt lat="43.63522229652373" lon="11.172967383387366"><ele>123.14285714285717</ele><time>2026-04-27T17:09:28.986Z</time></trkpt><trkpt lat="43.63527578910229" lon="11.172911884012096"><ele>123.28571428571429</ele><time>2026-04-27T17:09:30.986Z</time></trkpt><trkpt lat="43.635354245839565" lon="11.172830151632635"><ele>123.42857142857144</ele><time>2026-04-27T17:09:33.986Z</time></trkpt><trkpt lat="43.63540878736584" lon="11.1727815269571"><ele>123.57142857142858</ele><time>2026-04-27T17:09:35.986Z</time></trkpt><trkpt lat="43.63546529844757" lon="11.172723558345881"><ele>123.71428571428572</ele><time>2026-04-27T17:09:37.986Z</time></trkpt><trkpt lat="43.635525137384576" lon="11.172664613496684"><ele>123.85714285714286</ele><time>2026-04-27T17:09:39.986Z</time></trkpt><trkpt lat="43.6355806210581" lon="11.172599244991453"><ele>124.0</ele><time>2026-04-27T17:09:41.986Z</time></trkpt><trkpt lat="43.635643259280556" lon="11.172523895705673"><ele>123.66666666666667</ele><time>2026-04-27T17:09:43.986Z</time></trkpt><trkpt lat="43.63570083096076" lon="11.172412482104548"><ele>123.33333333333334</ele><time>2026-04-27T17:09:46.986Z</time></trkpt><trkpt lat="43.635741188418855" lon="11.172322640405065"><ele>123.0</ele><time>2026-04-27T17:09:48.986Z</time></trkpt><trkpt lat="43.63580240170862" lon="11.172241986268785"><ele>122.66666666666666</ele><time>2026-04-27T17:09:50.986Z</time></trkpt><trkpt lat="43.635871815160606" lon="11.172159030294246"><ele>122.33333333333333</ele><time>2026-04-27T17:09:52.986Z</time></trkpt><trkpt lat="43.63593020047717" lon="11.172071618226125"><ele>122.0</ele><time>2026-04-27T17:09:54.986Z</time></trkpt><trkpt lat="43.63597489840723" lon="11.17199087205721"><ele>121.99999999999999</ele><time>2026-04-27T17:09:56.986Z</time></trkpt><trkpt lat="43.636024694677246" lon="11.171903566265485"><ele>122.0</ele><time>2026-04-27T17:09:58.986Z</time></trkpt><trkpt lat="43.63606872506994" lon="11.171812273217652"><ele>122.0</ele><time>2026-04-27T17:10:00.986Z</time></trkpt><trkpt lat="43.63610634728127" lon="11.171728622939407"><ele>122.0</ele><time>2026-04-27T17:10:02.986Z</time></trkpt><trkpt lat="43.63613960371194" lon="11.171643340658393"><ele>121.99999999999999</ele><time>2026-04-27T17:10:05.986Z</time></trkpt><trkpt lat="43.63618082686017" lon="11.171542344882123"><ele>122.0</ele><time>2026-04-27T17:10:08.986Z</time></trkpt><trkpt lat="43.63623158874589" lon="11.17144200849352"><ele>121.99999999999999</ele><time>2026-04-27T17:10:11.986Z</time></trkpt><trkpt lat="43.63628603782219" lon="11.171363320708137"><ele>122.0</ele><time>2026-04-27T17:10:14.986Z</time></trkpt><trkpt lat="43.63630704183863" lon="11.171270175871864"><ele>122.0</ele><time>2026-04-27T17:10:16.986Z</time></trkpt><trkpt lat="43.63633672115346" lon="11.171191517416778"><ele>122.0</ele><time>2026-04-27T17:10:18.986Z</time></trkpt><trkpt lat="43.636381197155025" lon="11.171086777898811"><ele>121.99999999999999</ele><time>2026-04-27T17:10:21.986Z</time></trkpt><trkpt lat="43.63642867953245" lon="11.170973718269778"><ele>122.0</ele><time>2026-04-27T17:10:24.986Z</time></trkpt><trkpt lat="43.63647211684589" lon="11.170892328549941"><ele>121.99999999999999</ele><time>2026-04-27T17:10:26.986Z</time></trkpt><trkpt lat="43.636514296856014" lon="11.170808505004404"><ele>122.0</ele><time>2026-04-27T17:10:28.986Z</time></trkpt><trkpt lat="43.636555383561635" lon="11.170733722848405"><ele>121.99999999999999</ele><time>2026-04-27T17:10:30.986Z</time></trkpt><trkpt lat="43.63659908291013" lon="11.170652018311811"><ele>121.99999999999999</ele><time>2026-04-27T17:10:32.986Z</time></trkpt><trkpt lat="43.636641803872266" lon="11.170570016524467"><ele>122.0</ele><time>2026-04-27T17:10:34.986Z</time></trkpt><trkpt lat="43.63667007778188" lon="11.17048455671959"><ele>121.99999999999999</ele><time>2026-04-27T17:10:36.986Z</time></trkpt><trkpt lat="43.63670367429991" lon="11.170394442922923"><ele>121.99999999999999</ele><time>2026-04-27T17:10:38.986Z</time></trkpt><trkpt lat="43.636736433964266" lon="11.17030738649523"><ele>122.14285714285712</ele><time>2026-04-27T17:10:40.986Z</time></trkpt><trkpt lat="43.63676511459896" lon="11.170211936166343"><ele>122.28571428571428</ele><time>2026-04-27T17:10:42.986Z</time></trkpt><trkpt lat="43.63679197561339" lon="11.170121114234176"><ele>122.42857142857143</ele><time>2026-04-27T17:10:44.986Z</time></trkpt><trkpt lat="43.63681448410239" lon="11.170036417046932"><ele>122.57142857142857</ele><time>2026-04-27T17:10:46.986Z</time></trkpt><trkpt lat="43.63683621816167" lon="11.169946017138262"><ele>122.71428571428572</ele><time>2026-04-27T17:10:48.986Z</time></trkpt><trkpt lat="43.63685485887118" lon="11.169852324067364"><ele>122.85714285714288</ele><time>2026-04-27T17:10:50.986Z</time></trkpt><trkpt lat="43.63687340136999" lon="11.169755083003002"><ele>123.00000000000001</ele><time>2026-04-27T17:10:52.986Z</time></trkpt><trkpt lat="43.63689118958541" lon="11.169665698903778"><ele>123.00000000000001</ele><time>2026-04-27T17:10:54.986Z</time></trkpt><trkpt lat="43.63690350242171" lon="11.169574927759118"><ele>123.0</ele><time>2026-04-27T17:10:56.986Z</time></trkpt><trkpt lat="43.63690307935673" lon="11.169485521167541"><ele>123.00000000000001</ele><time>2026-04-27T17:10:58.986Z</time></trkpt><trkpt lat="43.63689145373005" lon="11.16939466587491"><ele>123.00000000000001</ele><time>2026-04-27T17:11:00.986Z</time></trkpt><trkpt lat="43.63690055272172" lon="11.169297593160687"><ele>123.0</ele><time>2026-04-27T17:11:02.986Z</time></trkpt><trkpt lat="43.63692998543409" lon="11.169192483595634"><ele>123.00000000000001</ele><time>2026-04-27T17:11:04.985Z</time></trkpt><trkpt lat="43.636964379861396" lon="11.169087842916309"><ele>123.00000000000001</ele><time>2026-04-27T17:11:06.985Z</time></trkpt><trkpt lat="43.63702033762789" lon="11.168982277526869"><ele>122.4</ele><time>2026-04-27T17:11:08.985Z</time></trkpt><trkpt lat="43.637081791527834" lon="11.16887466656968"><ele>121.80000000000001</ele><time>2026-04-27T17:11:10.984Z</time></trkpt><trkpt lat="43.637173497175844" lon="11.168766583403677"><ele>121.2</ele><time>2026-04-27T17:11:12.985Z</time></trkpt><trkpt lat="43.63727577114224" lon="11.168687263786175"><ele>120.6</ele><time>2026-04-27T17:11:14.985Z</time></trkpt><trkpt lat="43.63734667867181" lon="11.168642561305461"><ele>120.0</ele><time>2026-04-27T17:11:16.985Z</time></trkpt><trkpt lat="43.637406293648276" lon="11.16861214222873"><ele>120.0</ele><time>2026-04-27T17:11:18.985Z</time></trkpt><trkpt lat="43.63747285789648" lon="11.168562275530455"><ele>120.0</ele><time>2026-04-27T17:11:20.985Z</time></trkpt><trkpt lat="43.63754791313159" lon="11.168544943657082"><ele>120.0</ele><time>2026-04-27T17:11:22.985Z</time></trkpt><trkpt lat="43.637632340449265" lon="11.168573885596803"><ele>120.0</ele><time>2026-04-27T17:11:24.985Z</time></trkpt><trkpt lat="43.63769126769693" lon="11.168652191827166"><ele>120.0</ele><time>2026-04-27T17:11:26.985Z</time></trkpt><trkpt lat="43.63776251876157" lon="11.168720430465244"><ele>120.0</ele><time>2026-04-27T17:11:28.985Z</time></trkpt><trkpt lat="43.63783869797816" lon="11.168702102773207"><ele>119.5</ele><time>2026-04-27T17:11:30.985Z</time></trkpt><trkpt lat="43.63794099717163" lon="11.168687460743794"><ele>119.0</ele><time>2026-04-27T17:11:32.985Z</time></trkpt><trkpt lat="43.63802460105362" lon="11.168690098559996"><ele>118.5</ele><time>2026-04-27T17:11:34.985Z</time></trkpt><trkpt lat="43.63810773606556" lon="11.168662515949396"><ele>118.0</ele><time>2026-04-27T17:11:36.985Z</time></trkpt><trkpt lat="43.63818133655071" lon="11.16862900252943"><ele>117.5</ele><time>2026-04-27T17:11:38.985Z</time></trkpt><trkpt lat="43.63826330026251" lon="11.168610877331705"><ele>117.0</ele><time>2026-04-27T17:11:40.985Z</time></trkpt><trkpt lat="43.638354814648274" lon="11.168598129015953"><ele>117.0</ele><time>2026-04-27T17:11:42.985Z</time></trkpt><trkpt lat="43.63844659101401" lon="11.16857784176994"><ele>116.99999999999999</ele><time>2026-04-27T17:11:44.985Z</time></trkpt><trkpt lat="43.63854901375128" lon="11.16852303086477"><ele>116.99999999999999</ele><time>2026-04-27T17:11:46.985Z</time></trkpt><trkpt lat="43.63865552839349" lon="11.168468308840854"><ele>117.0</ele><time>2026-04-27T17:11:48.985Z</time></trkpt><trkpt lat="43.63875206726332" lon="11.168431741280047"><ele>117.0</ele><time>2026-04-27T17:11:50.985Z</time></trkpt><trkpt lat="43.63885664727415" lon="11.168397136876571"><ele>116.8</ele><time>2026-04-27T17:11:52.985Z</time></trkpt><trkpt lat="43.63894586988531" lon="11.168372041168974"><ele>116.6</ele><time>2026-04-27T17:11:54.985Z</time></trkpt><trkpt lat="43.63903308976268" lon="11.168334249014702"><ele>116.39999999999999</ele><time>2026-04-27T17:11:56.985Z</time></trkpt><trkpt lat="43.63911752991246" lon="11.168298564071101"><ele>116.19999999999999</ele><time>2026-04-27T17:11:58.985Z</time></trkpt><trkpt lat="43.63920400758019" lon="11.168265906142338"><ele>116.0</ele><time>2026-04-27T17:12:00.985Z</time></trkpt><trkpt lat="43.63929980762242" lon="11.16822874628111"><ele>115.99999999999999</ele><time>2026-04-27T17:12:02.984Z</time></trkpt><trkpt lat="43.63938932017796" lon="11.168199618039633"><ele>116.0</ele><time>2026-04-27T17:12:04.984Z</time></trkpt><trkpt lat="43.6394649123131" lon="11.168162789866875"><ele>116.0</ele><time>2026-04-27T17:12:06.984Z</time></trkpt><trkpt lat="43.639538648263375" lon="11.168124613371225"><ele>116.0</ele><time>2026-04-27T17:12:08.984Z</time></trkpt><trkpt lat="43.63960585717037" lon="11.168070137364545"><ele>115.99999999999999</ele><time>2026-04-27T17:12:10.984Z</time></trkpt><trkpt lat="43.639688789753485" lon="11.16799468898044"><ele>116.0</ele><time>2026-04-27T17:12:12.984Z</time></trkpt><trkpt lat="43.63976779980803" lon="11.167921172896255"><ele>115.99999999999999</ele><time>2026-04-27T17:12:14.984Z</time></trkpt><trkpt lat="43.639846017815586" lon="11.16784262432503"><ele>116.0</ele><time>2026-04-27T17:12:16.984Z</time></trkpt><trkpt lat="43.6399157326994" lon="11.167784967466455"><ele>116.0</ele><time>2026-04-27T17:12:18.984Z</time></trkpt><trkpt lat="43.63998428234553" lon="11.167728975189743"><ele>116.0</ele><time>2026-04-27T17:12:20.984Z</time></trkpt><trkpt lat="43.64004391470195" lon="11.167674664270152"><ele>115.99999999999999</ele><time>2026-04-27T17:12:22.984Z</time></trkpt><trkpt lat="43.64010025493779" lon="11.167603103787474"><ele>116.0</ele><time>2026-04-27T17:12:24.984Z</time></trkpt><trkpt lat="43.640172026503784" lon="11.16753683699053"><ele>115.99999999999999</ele><time>2026-04-27T17:12:26.984Z</time></trkpt><trkpt lat="43.640241739058744" lon="11.167471651740437"><ele>116.0</ele><time>2026-04-27T17:12:28.984Z</time></trkpt><trkpt lat="43.6403265736538" lon="11.167373292381935"><ele>116.0</ele><time>2026-04-27T17:12:30.984Z</time></trkpt><trkpt lat="43.64038150133851" lon="11.16730910504857"><ele>116.0</ele><time>2026-04-27T17:12:34.984Z</time></trkpt><trkpt lat="43.64044464304865" lon="11.167262187564926"><ele>115.99999999999999</ele><time>2026-04-27T17:12:40.984Z</time></trkpt><trkpt lat="43.640509736406116" lon="11.167192974798926"><ele>116.0</ele><time>2026-04-27T17:12:45.984Z</time></trkpt><trkpt lat="43.64055718132227" lon="11.167129587794273"><ele>115.57142857142858</ele><time>2026-04-27T17:12:49.984Z</time></trkpt><trkpt lat="43.64060587384472" lon="11.167061798714117"><ele>115.14285714285714</ele><time>2026-04-27T17:12:53.984Z</time></trkpt><trkpt lat="43.64066482751026" lon="11.166989228027065"><ele>114.71428571428572</ele><time>2026-04-27T17:12:57.984Z</time></trkpt><trkpt lat="43.64071838470355" lon="11.16691846990825"><ele>114.28571428571429</ele><time>2026-04-27T17:13:01.984Z</time></trkpt><trkpt lat="43.64077148040737" lon="11.166855534670326"><ele>113.85714285714286</ele><time>2026-04-27T17:13:05.984Z</time></trkpt><trkpt lat="43.64082767212245" lon="11.16678016324575"><ele>113.42857142857143</ele><time>2026-04-27T17:13:10.985Z</time></trkpt><trkpt lat="43.640874738338916" lon="11.166720125964938"><ele>113.0</ele><time>2026-04-27T17:13:14.984Z</time></trkpt><trkpt lat="43.64092528421091" lon="11.166649559200485"><ele>113.0</ele><time>2026-04-27T17:13:18.984Z</time></trkpt><trkpt lat="43.64098189844695" lon="11.166567534212781"><ele>113.0</ele><time>2026-04-27T17:13:22.985Z</time></trkpt><trkpt lat="43.64102496616258" lon="11.16650249183165"><ele>113.0</ele><time>2026-04-27T17:13:26.985Z</time></trkpt><trkpt lat="43.641074408064156" lon="11.16644218747255"><ele>113.0</ele><time>2026-04-27T17:13:30.985Z</time></trkpt><trkpt lat="43.64112314906104" lon="11.166372918896052"><ele>113.0</ele><time>2026-04-27T17:13:34.985Z</time></trkpt><trkpt lat="43.64118529404406" lon="11.166309988503576"><ele>113.0</ele><time>2026-04-27T17:13:39.985Z</time></trkpt><trkpt lat="43.64122983210175" lon="11.16624796214471"><ele>113.0</ele><time>2026-04-27T17:13:43.985Z</time></trkpt><trkpt lat="43.64128094570327" lon="11.166191906442963"><ele>112.85714285714286</ele><time>2026-04-27T17:13:47.985Z</time></trkpt><trkpt lat="43.64133687122203" lon="11.166146624714868"><ele>112.71428571428571</ele><time>2026-04-27T17:13:51.985Z</time></trkpt><trkpt lat="43.641397065032024" lon="11.166089359445069"><ele>112.57142857142857</ele><time>2026-04-27T17:13:55.985Z</time></trkpt><trkpt lat="43.64146439288561" lon="11.166025462434053"><ele>112.42857142857143</ele><time>2026-04-27T17:13:58.985Z</time></trkpt><trkpt lat="43.641523677956435" lon="11.165984447801351"><ele>112.28571428571428</ele><time>2026-04-27T17:14:00.985Z</time></trkpt><trkpt lat="43.64158542607429" lon="11.16592592872218"><ele>112.14285714285714</ele><time>2026-04-27T17:14:02.985Z</time></trkpt><trkpt lat="43.64164340070935" lon="11.16588094301563"><ele>112.0</ele><time>2026-04-27T17:14:04.985Z</time></trkpt><trkpt lat="43.64169858275051" lon="11.165820090658183"><ele>112.00000000000001</ele><time>2026-04-27T17:14:06.985Z</time></trkpt><trkpt lat="43.641765658849344" lon="11.165759001789072"><ele>112.0</ele><time>2026-04-27T17:14:08.985Z</time></trkpt><trkpt lat="43.64182697191898" lon="11.165718330177516"><ele>112.0</ele><time>2026-04-27T17:14:10.985Z</time></trkpt><trkpt lat="43.64191707540571" lon="11.16566337446976"><ele>112.0</ele><time>2026-04-27T17:14:13.985Z</time></trkpt><trkpt lat="43.64198465679497" lon="11.16562318433948"><ele>112.00000000000001</ele><time>2026-04-27T17:14:15.985Z</time></trkpt><trkpt lat="43.64204574033258" lon="11.165593861822751"><ele>112.0</ele><time>2026-04-27T17:14:17.985Z</time></trkpt><trkpt lat="43.64210845251072" lon="11.165553451171334"><ele>112.14285714285714</ele><time>2026-04-27T17:14:19.985Z</time></trkpt><trkpt lat="43.64217114020267" lon="11.16551610054728"><ele>112.28571428571428</ele><time>2026-04-27T17:14:21.985Z</time></trkpt><trkpt lat="43.64223370122477" lon="11.16548275334642"><ele>112.42857142857143</ele><time>2026-04-27T17:14:23.984Z</time></trkpt><trkpt lat="43.642301063323785" lon="11.165435191482032"><ele>112.57142857142857</ele><time>2026-04-27T17:14:25.984Z</time></trkpt><trkpt lat="43.64237887181547" lon="11.165407571679062"><ele>112.71428571428571</ele><time>2026-04-27T17:14:27.984Z</time></trkpt><trkpt lat="43.642449484987225" lon="11.165377908021645"><ele>112.85714285714286</ele><time>2026-04-27T17:14:29.984Z</time></trkpt><trkpt lat="43.6425214805149" lon="11.16533917903019"><ele>113.0</ele><time>2026-04-27T17:14:31.984Z</time></trkpt><trkpt lat="43.64258783104594" lon="11.165310438156409"><ele>113.0</ele><time>2026-04-27T17:14:33.984Z</time></trkpt><trkpt lat="43.64265926316559" lon="11.165282741940382"><ele>113.0</ele><time>2026-04-27T17:14:35.984Z</time></trkpt><trkpt lat="43.642722128401914" lon="11.165252485021005"><ele>113.0</ele><time>2026-04-27T17:14:37.984Z</time></trkpt><trkpt lat="43.64278652569162" lon="11.16521886514308"><ele>113.0</ele><time>2026-04-27T17:14:39.984Z</time></trkpt><trkpt lat="43.64284810710662" lon="11.165188802578344"><ele>113.0</ele><time>2026-04-27T17:14:41.984Z</time></trkpt><trkpt lat="43.642942833945455" lon="11.16513122465983"><ele>113.0</ele><time>2026-04-27T17:14:44.984Z</time></trkpt><trkpt lat="43.64299851384087" lon="11.165087718787015"><ele>113.0</ele><time>2026-04-27T17:14:46.984Z</time></trkpt><trkpt lat="43.64307138277785" lon="11.16505326159545"><ele>112.99999999999999</ele><time>2026-04-27T17:14:49.984Z</time></trkpt><trkpt lat="43.64315608866153" lon="11.165031520016454"><ele>113.0</ele><time>2026-04-27T17:14:58.984Z</time></trkpt><trkpt lat="43.643236910053105" lon="11.165005021470977"><ele>113.0</ele><time>2026-04-27T17:15:01.984Z</time></trkpt><trkpt lat="43.64330585039357" lon="11.164983233052249"><ele>113.0</ele><time>2026-04-27T17:15:04.984Z</time></trkpt><trkpt lat="43.64337026346507" lon="11.164957109258356"><ele>112.99999999999999</ele><time>2026-04-27T17:15:07.984Z</time></trkpt><trkpt lat="43.64345496452563" lon="11.16493113400855"><ele>113.0</ele><time>2026-04-27T17:15:11.984Z</time></trkpt><trkpt lat="43.643523948082034" lon="11.164885857765489"><ele>112.85714285714286</ele><time>2026-04-27T17:15:14.984Z</time></trkpt><trkpt lat="43.64359012697053" lon="11.164839552759858"><ele>112.71428571428571</ele><time>2026-04-27T17:15:17.984Z</time></trkpt><trkpt lat="43.64365151130515" lon="11.164794443604015"><ele>112.57142857142857</ele><time>2026-04-27T17:15:19.984Z</time></trkpt><trkpt lat="43.64370374051797" lon="11.164742706834497"><ele>112.42857142857143</ele><time>2026-04-27T17:15:21.983Z</time></trkpt><trkpt lat="43.64375796139106" lon="11.164697256675048"><ele>112.28571428571428</ele><time>2026-04-27T17:15:23.983Z</time></trkpt><trkpt lat="43.643816549570104" lon="11.164652489537797"><ele>112.14285714285714</ele><time>2026-04-27T17:15:25.984Z</time></trkpt><trkpt lat="43.643878530246816" lon="11.16462855170051"><ele>112.0</ele><time>2026-04-27T17:15:27.984Z</time></trkpt><trkpt lat="43.64394786797775" lon="11.164602174282585"><ele>112.0</ele><time>2026-04-27T17:15:29.984Z</time></trkpt><trkpt lat="43.64401501038795" lon="11.164583070073613"><ele>112.0</ele><time>2026-04-27T17:15:31.984Z</time></trkpt><trkpt lat="43.64407953417957" lon="11.164564990358206"><ele>112.0</ele><time>2026-04-27T17:15:33.984Z</time></trkpt><trkpt lat="43.64415336656818" lon="11.164545958902972"><ele>112.0</ele><time>2026-04-27T17:15:35.984Z</time></trkpt><trkpt lat="43.64422553593494" lon="11.164529240614742"><ele>112.0</ele><time>2026-04-27T17:15:37.984Z</time></trkpt><trkpt lat="43.644292513784116" lon="11.164510957382573"><ele>112.0</ele><time>2026-04-27T17:15:39.984Z</time></trkpt><trkpt lat="43.64438070537764" lon="11.164490229302364"><ele>112.0</ele><time>2026-04-27T17:15:42.983Z</time></trkpt><trkpt lat="43.644458442950935" lon="11.164474907033041"><ele>112.0</ele><time>2026-04-27T17:15:45.983Z</time></trkpt><trkpt lat="43.64453949978249" lon="11.164457605475647"><ele>112.0</ele><time>2026-04-27T17:15:48.983Z</time></trkpt><trkpt lat="43.64461297065615" lon="11.164441908290861"><ele>112.0</ele><time>2026-04-27T17:15:51.983Z</time></trkpt><trkpt lat="43.64469693953102" lon="11.164428980136185"><ele>112.0</ele><time>2026-04-27T17:15:54.983Z</time></trkpt><trkpt lat="43.64476193184921" lon="11.16440908907103"><ele>112.0</ele><time>2026-04-27T17:15:56.983Z</time></trkpt><trkpt lat="43.64482557165615" lon="11.164391566303584"><ele>112.0</ele><time>2026-04-27T17:15:58.983Z</time></trkpt><trkpt lat="43.644901966846035" lon="11.16438611417187"><ele>112.0</ele><time>2026-04-27T17:16:01.983Z</time></trkpt><trkpt lat="43.64497597050195" lon="11.164377034884394"><ele>112.0</ele><time>2026-04-27T17:16:05.983Z</time></trkpt><trkpt lat="43.645040465287266" lon="11.164373960616011"><ele>112.0</ele><time>2026-04-27T17:16:08.983Z</time></trkpt><trkpt lat="43.645114185214936" lon="11.164366207341402"><ele>112.0</ele><time>2026-04-27T17:16:11.983Z</time></trkpt><trkpt lat="43.64518991995635" lon="11.16436539994385"><ele>112.0</ele><time>2026-04-27T17:16:14.983Z</time></trkpt><trkpt lat="43.64527518171651" lon="11.164353565255167"><ele>112.0</ele><time>2026-04-27T17:16:17.983Z</time></trkpt><trkpt lat="43.6453546961705" lon="11.164346173911193"><ele>112.0</ele><time>2026-04-27T17:16:20.983Z</time></trkpt><trkpt lat="43.64541947455698" lon="11.164331281284074"><ele>112.0</ele><time>2026-04-27T17:16:23.983Z</time></trkpt><trkpt lat="43.645483988377705" lon="11.16431988383531"><ele>112.28571428571428</ele><time>2026-04-27T17:16:28.983Z</time></trkpt><trkpt lat="43.645552898847335" lon="11.164320355042685"><ele>112.57142857142857</ele><time>2026-04-27T17:16:30.983Z</time></trkpt><trkpt lat="43.64562551868032" lon="11.16433592504978"><ele>112.85714285714286</ele><time>2026-04-27T17:16:34.983Z</time></trkpt><trkpt lat="43.6456858595391" lon="11.164394892337258"><ele>113.14285714285714</ele><time>2026-04-27T17:16:38.983Z</time></trkpt><trkpt lat="43.64571249401986" lon="11.16449298211855"><ele>113.42857142857142</ele><time>2026-04-27T17:16:42.983Z</time></trkpt><trkpt lat="43.6457167114702" lon="11.164595232184078"><ele>113.71428571428571</ele><time>2026-04-27T17:16:46.983Z</time></trkpt><trkpt lat="43.64568905419362" lon="11.164675759224703"><ele>114.0</ele><time>2026-04-27T17:16:51.983Z</time></trkpt><trkpt lat="43.64574854369406" lon="11.164639087020538"><ele>114.0</ele><time>2026-04-27T17:17:12.983Z</time></trkpt><trkpt lat="43.64577760971054" lon="11.164726404058326"><ele>113.99999999999999</ele><time>2026-04-27T17:17:20.983Z</time></trkpt><trkpt lat="43.64580603065353" lon="11.164811377116223"><ele>114.0</ele><time>2026-04-27T17:17:28.983Z</time></trkpt><trkpt lat="43.64585541487958" lon="11.164750660037875"><ele>114.0</ele><time>2026-04-27T17:17:33.983Z</time></trkpt><trkpt lat="43.64587938808854" lon="11.164663503838685"><ele>113.99999999999999</ele><time>2026-04-27T17:17:39.983Z</time></trkpt><trkpt lat="43.64588970285688" lon="11.164577158093374"><ele>114.0</ele><time>2026-04-27T17:17:45.983Z</time></trkpt><trkpt lat="43.64589470817263" lon="11.16448718150026"><ele>114.0</ele><time>2026-04-27T17:17:56.983Z</time></trkpt><trkpt lat="43.64593138559726" lon="11.164390643244262"><ele>114.0</ele><time>2026-04-27T17:18:08.983Z</time></trkpt><trkpt lat="43.64594467833046" lon="11.164266348595532"><ele>114.0</ele><time>2026-04-27T17:18:12.983Z</time></trkpt><trkpt lat="43.646000699946114" lon="11.164179638510333"><ele>114.0</ele><time>2026-04-27T17:18:14.983Z</time></trkpt><trkpt lat="43.646093166332875" lon="11.164139844614741"><ele>114.0</ele><time>2026-04-27T17:18:16.983Z</time></trkpt><trkpt lat="43.64618923922462" lon="11.164137182625026"><ele>114.0</ele><time>2026-04-27T17:18:18.983Z</time></trkpt><trkpt lat="43.64631363231045" lon="11.164140162638692"><ele>113.80000000000001</ele><time>2026-04-27T17:18:21.983Z</time></trkpt><trkpt lat="43.646401276863486" lon="11.164123990225455"><ele>113.60000000000001</ele><time>2026-04-27T17:18:23.983Z</time></trkpt><trkpt lat="43.64650241307396" lon="11.164092883991412"><ele>113.4</ele><time>2026-04-27T17:18:25.983Z</time></trkpt><trkpt lat="43.6465981964081" lon="11.16405962567416"><ele>113.2</ele><time>2026-04-27T17:18:27.983Z</time></trkpt><trkpt lat="43.64670382764722" lon="11.163983484380262"><ele>113.0</ele><time>2026-04-27T17:18:29.983Z</time></trkpt><trkpt lat="43.64679053687288" lon="11.16392692547734"><ele>112.80000000000001</ele><time>2026-04-27T17:18:31.983Z</time></trkpt><trkpt lat="43.646868207823196" lon="11.163855332866907"><ele>112.60000000000001</ele><time>2026-04-27T17:18:33.983Z</time></trkpt><trkpt lat="43.64695011284226" lon="11.163784226147012"><ele>112.39999999999999</ele><time>2026-04-27T17:18:35.983Z</time></trkpt><trkpt lat="43.64703278496227" lon="11.163713761919674"><ele>112.19999999999999</ele><time>2026-04-27T17:18:37.983Z</time></trkpt><trkpt lat="43.647109350470075" lon="11.163647450209426"><ele>112.0</ele><time>2026-04-27T17:18:39.983Z</time></trkpt><trkpt lat="43.6472002471361" lon="11.1635687157022"><ele>112.0</ele><time>2026-04-27T17:18:41.983Z</time></trkpt><trkpt lat="43.64727744817162" lon="11.163498675726526"><ele>111.99999999999999</ele><time>2026-04-27T17:18:43.983Z</time></trkpt><trkpt lat="43.647360293633454" lon="11.163426272263282"><ele>111.99999999999999</ele><time>2026-04-27T17:18:45.983Z</time></trkpt><trkpt lat="43.6474392033373" lon="11.163358739183662"><ele>112.0</ele><time>2026-04-27T17:18:47.983Z</time></trkpt><trkpt lat="43.64751554044626" lon="11.163282110582385"><ele>112.0</ele><time>2026-04-27T17:18:49.983Z</time></trkpt><trkpt lat="43.64758839888698" lon="11.163181573223564"><ele>112.0</ele><time>2026-04-27T17:18:51.983Z</time></trkpt><trkpt lat="43.64767001148065" lon="11.163085403676577"><ele>111.99999999999999</ele><time>2026-04-27T17:18:53.983Z</time></trkpt><trkpt lat="43.64774542532071" lon="11.162995771916522"><ele>111.99999999999999</ele><time>2026-04-27T17:18:55.983Z</time></trkpt><trkpt lat="43.64782950376867" lon="11.162893291893768"><ele>112.0</ele><time>2026-04-27T17:18:57.983Z</time></trkpt><trkpt lat="43.64790416199855" lon="11.162798573485322"><ele>112.0</ele><time>2026-04-27T17:18:59.983Z</time></trkpt><trkpt lat="43.64797586193441" lon="11.162715027054816"><ele>112.0</ele><time>2026-04-27T17:19:01.983Z</time></trkpt><trkpt lat="43.64804027314602" lon="11.162629527366859"><ele>111.99999999999999</ele><time>2026-04-27T17:19:03.983Z</time></trkpt><trkpt lat="43.648110949784076" lon="11.162528880119371"><ele>111.99999999999999</ele><time>2026-04-27T17:19:05.983Z</time></trkpt><trkpt lat="43.64817704869562" lon="11.162417970810967"><ele>112.0</ele><time>2026-04-27T17:19:07.983Z</time></trkpt><trkpt lat="43.64825183775666" lon="11.162312145843375"><ele>112.0</ele><time>2026-04-27T17:19:09.983Z</time></trkpt><trkpt lat="43.648326460817586" lon="11.1622185400688"><ele>111.6</ele><time>2026-04-27T17:19:11.983Z</time></trkpt><trkpt lat="43.64839393038641" lon="11.162131485842524"><ele>111.19999999999999</ele><time>2026-04-27T17:19:13.983Z</time></trkpt><trkpt lat="43.64847115794626" lon="11.162030885324814"><ele>110.8</ele><time>2026-04-27T17:19:15.983Z</time></trkpt><trkpt lat="43.648540275213165" lon="11.161943118770347"><ele>110.4</ele><time>2026-04-27T17:19:17.983Z</time></trkpt><trkpt lat="43.64860902449279" lon="11.161827349884252"><ele>110.0</ele><time>2026-04-27T17:19:19.983Z</time></trkpt><trkpt lat="43.64866685369219" lon="11.161728540023084"><ele>110.0</ele><time>2026-04-27T17:19:21.983Z</time></trkpt><trkpt lat="43.648715138475545" lon="11.161608073609488"><ele>110.0</ele><time>2026-04-27T17:19:23.983Z</time></trkpt><trkpt lat="43.64876747910128" lon="11.161506062531888"><ele>110.0</ele><time>2026-04-27T17:19:25.983Z</time></trkpt><trkpt lat="43.64882448600148" lon="11.161388354994594"><ele>110.0</ele><time>2026-04-27T17:19:27.983Z</time></trkpt><trkpt lat="43.64888846496808" lon="11.161270651341756"><ele>110.0</ele><time>2026-04-27T17:19:29.983Z</time></trkpt><trkpt lat="43.648945959766195" lon="11.161150758556877"><ele>109.8</ele><time>2026-04-27T17:19:31.983Z</time></trkpt><trkpt lat="43.64901022232763" lon="11.16102778677523"><ele>109.6</ele><time>2026-04-27T17:19:33.983Z</time></trkpt><trkpt lat="43.64906696838184" lon="11.160907355453936"><ele>109.4</ele><time>2026-04-27T17:19:35.983Z</time></trkpt><trkpt lat="43.64912138957479" lon="11.160791524361006"><ele>109.2</ele><time>2026-04-27T17:19:37.982Z</time></trkpt><trkpt lat="43.64918651367713" lon="11.16067477943849"><ele>109.0</ele><time>2026-04-27T17:19:39.983Z</time></trkpt><trkpt lat="43.6492478643975" lon="11.16055649855932"><ele>108.80000000000001</ele><time>2026-04-27T17:19:41.983Z</time></trkpt><trkpt lat="43.64930792883237" lon="11.1604420064549"><ele>108.60000000000001</ele><time>2026-04-27T17:19:43.983Z</time></trkpt><trkpt lat="43.64936955852286" lon="11.160328031322098"><ele>108.4</ele><time>2026-04-27T17:19:45.983Z</time></trkpt><trkpt lat="43.649430567645474" lon="11.16021351105968"><ele>108.2</ele><time>2026-04-27T17:19:47.983Z</time></trkpt><trkpt lat="43.64949213423651" lon="11.16009901524999"><ele>108.0</ele><time>2026-04-27T17:19:49.983Z</time></trkpt><trkpt lat="43.64955188012429" lon="11.15999656795044"><ele>107.80000000000001</ele><time>2026-04-27T17:19:51.983Z</time></trkpt><trkpt lat="43.64960468770322" lon="11.159889082910093"><ele>107.60000000000001</ele><time>2026-04-27T17:19:53.983Z</time></trkpt><trkpt lat="43.6496694123771" lon="11.159778749909771"><ele>107.39999999999999</ele><time>2026-04-27T17:19:55.983Z</time></trkpt><trkpt lat="43.649725622388374" lon="11.15966354263237"><ele>107.19999999999999</ele><time>2026-04-27T17:19:57.983Z</time></trkpt><trkpt lat="43.64978222343173" lon="11.159555897684788"><ele>107.0</ele><time>2026-04-27T17:19:59.983Z</time></trkpt><trkpt lat="43.64983842325213" lon="11.159450563146008"><ele>107.0</ele><time>2026-04-27T17:20:01.983Z</time></trkpt><trkpt lat="43.64989904120781" lon="11.159346696002759"><ele>106.99999999999999</ele><time>2026-04-27T17:20:03.983Z</time></trkpt><trkpt lat="43.649952380790644" lon="11.159233021104287"><ele>106.99999999999999</ele><time>2026-04-27T17:20:05.983Z</time></trkpt><trkpt lat="43.649991096539125" lon="11.159117464488451"><ele>107.0</ele><time>2026-04-27T17:20:07.983Z</time></trkpt><trkpt lat="43.65003079161184" lon="11.1589912430956"><ele>107.0</ele><time>2026-04-27T17:20:09.983Z</time></trkpt><trkpt lat="43.650062343565594" lon="11.158860779567787"><ele>107.0</ele><time>2026-04-27T17:20:11.983Z</time></trkpt><trkpt lat="43.650090450539174" lon="11.158737217003013"><ele>106.99999999999999</ele><time>2026-04-27T17:20:13.983Z</time></trkpt><trkpt lat="43.65010843543795" lon="11.158606936609525"><ele>106.99999999999999</ele><time>2026-04-27T17:20:15.983Z</time></trkpt><trkpt lat="43.65013073893993" lon="11.158483185512273"><ele>107.0</ele><time>2026-04-27T17:20:17.983Z</time></trkpt><trkpt lat="43.65015500970747" lon="11.158343947615888"><ele>107.0</ele><time>2026-04-27T17:20:19.983Z</time></trkpt><trkpt lat="43.650179629933746" lon="11.158218603572056"><ele>107.0</ele><time>2026-04-27T17:20:21.983Z</time></trkpt><trkpt lat="43.650195686883535" lon="11.158088344498848"><ele>106.99999999999999</ele><time>2026-04-27T17:20:23.983Z</time></trkpt><trkpt lat="43.650209423650686" lon="11.157956425559517"><ele>106.99999999999999</ele><time>2026-04-27T17:20:25.983Z</time></trkpt><trkpt lat="43.650230980300265" lon="11.157829996591616"><ele>107.0</ele><time>2026-04-27T17:20:27.983Z</time></trkpt><trkpt lat="43.650266542710824" lon="11.157700327953707"><ele>107.0</ele><time>2026-04-27T17:20:29.983Z</time></trkpt><trkpt lat="43.65032374566253" lon="11.157592254612123"><ele>107.0</ele><time>2026-04-27T17:20:31.983Z</time></trkpt><trkpt lat="43.6503854243303" lon="11.157488324952004"><ele>106.99999999999999</ele><time>2026-04-27T17:20:33.983Z</time></trkpt><trkpt lat="43.650451749257655" lon="11.157387637422179"><ele>106.99999999999999</ele><time>2026-04-27T17:20:35.983Z</time></trkpt><trkpt lat="43.65051929911402" lon="11.157288236195077"><ele>107.0</ele><time>2026-04-27T17:20:37.983Z</time></trkpt><trkpt lat="43.65058261259481" lon="11.157178995906094"><ele>107.0</ele><time>2026-04-27T17:20:39.983Z</time></trkpt><trkpt lat="43.65064173688017" lon="11.157068568010834"><ele>106.8</ele><time>2026-04-27T17:20:41.983Z</time></trkpt><trkpt lat="43.650697860653864" lon="11.156957325543578"><ele>106.6</ele><time>2026-04-27T17:20:43.983Z</time></trkpt><trkpt lat="43.65075015919767" lon="11.156846088461036"><ele>106.39999999999999</ele><time>2026-04-27T17:20:45.983Z</time></trkpt><trkpt lat="43.65080871057668" lon="11.156757740885373"><ele>106.19999999999999</ele><time>2026-04-27T17:20:47.983Z</time></trkpt><trkpt lat="43.650855200629735" lon="11.156656495200815"><ele>106.0</ele><time>2026-04-27T17:20:49.983Z</time></trkpt><trkpt lat="43.65091811264451" lon="11.156567860787156"><ele>105.83333333333334</ele><time>2026-04-27T17:20:51.983Z</time></trkpt><trkpt lat="43.650965651352635" lon="11.156472574519677"><ele>105.66666666666667</ele><time>2026-04-27T17:20:53.983Z</time></trkpt><trkpt lat="43.65101718853154" lon="11.156372760863093"><ele>105.5</ele><time>2026-04-27T17:20:55.983Z</time></trkpt><trkpt lat="43.65106420483119" lon="11.156268007340683"><ele>105.33333333333334</ele><time>2026-04-27T17:20:57.983Z</time></trkpt><trkpt lat="43.65110595748728" lon="11.156157957025245"><ele>105.16666666666667</ele><time>2026-04-27T17:20:59.983Z</time></trkpt><trkpt lat="43.65114213665483" lon="11.156054284871665"><ele>105.0</ele><time>2026-04-27T17:21:01.983Z</time></trkpt><trkpt lat="43.65118429042574" lon="11.155952101721915"><ele>105.14285714285714</ele><time>2026-04-27T17:21:03.983Z</time></trkpt><trkpt lat="43.651223438957466" lon="11.15585875552687"><ele>105.28571428571428</ele><time>2026-04-27T17:21:05.983Z</time></trkpt><trkpt lat="43.65126861798424" lon="11.155777535110328"><ele>105.42857142857143</ele><time>2026-04-27T17:21:07.983Z</time></trkpt><trkpt lat="43.651317285192775" lon="11.155707065698609"><ele>105.57142857142857</ele><time>2026-04-27T17:21:09.983Z</time></trkpt><trkpt lat="43.65137159847376" lon="11.15565591852573"><ele>105.71428571428571</ele><time>2026-04-27T17:21:11.983Z</time></trkpt><trkpt lat="43.65142114293014" lon="11.155598523931456"><ele>105.85714285714286</ele><time>2026-04-27T17:21:13.983Z</time></trkpt><trkpt lat="43.65147596454488" lon="11.155549479342861"><ele>106.0</ele><time>2026-04-27T17:21:15.983Z</time></trkpt><trkpt lat="43.65153810393564" lon="11.155486940662481"><ele>106.0</ele><time>2026-04-27T17:21:17.983Z</time></trkpt><trkpt lat="43.651607104522256" lon="11.155422619744142"><ele>106.0</ele><time>2026-04-27T17:21:19.983Z</time></trkpt><trkpt lat="43.651663993036735" lon="11.15536812833408"><ele>106.0</ele><time>2026-04-27T17:21:21.983Z</time></trkpt><trkpt lat="43.65172215261409" lon="11.155314639316554"><ele>106.0</ele><time>2026-04-27T17:21:23.983Z</time></trkpt><trkpt lat="43.651781071932085" lon="11.15526217487744"><ele>106.0</ele><time>2026-04-27T17:21:25.983Z</time></trkpt><trkpt lat="43.6518405458694" lon="11.155207038055016"><ele>106.0</ele><time>2026-04-27T17:21:27.983Z</time></trkpt><trkpt lat="43.651897656218615" lon="11.155138697932967"><ele>106.0</ele><time>2026-04-27T17:21:29.983Z</time></trkpt><trkpt lat="43.65195041047569" lon="11.155060710079379"><ele>106.00000000000001</ele><time>2026-04-27T17:21:31.983Z</time></trkpt><trkpt lat="43.65201244591004" lon="11.154982673603758"><ele>106.0</ele><time>2026-04-27T17:21:33.983Z</time></trkpt><trkpt lat="43.65206098227415" lon="11.154892536190708"><ele>106.0</ele><time>2026-04-27T17:21:35.983Z</time></trkpt><trkpt lat="43.652104980396814" lon="11.154793175957598"><ele>106.0</ele><time>2026-04-27T17:21:37.982Z</time></trkpt><trkpt lat="43.65214592463223" lon="11.154687261506847"><ele>106.00000000000001</ele><time>2026-04-27T17:21:39.982Z</time></trkpt><trkpt lat="43.65218119211296" lon="11.154582822773156"><ele>106.0</ele><time>2026-04-27T17:21:41.983Z</time></trkpt><trkpt lat="43.65223100221455" lon="11.15447952321869"><ele>106.0</ele><time>2026-04-27T17:21:43.983Z</time></trkpt><trkpt lat="43.6522880063506" lon="11.15437990750663"><ele>106.0</ele><time>2026-04-27T17:21:45.982Z</time></trkpt><trkpt lat="43.65236138737093" lon="11.154295070605093"><ele>106.0</ele><time>2026-04-27T17:21:47.982Z</time></trkpt><trkpt lat="43.65244181350366" lon="11.154219637610808"><ele>106.0</ele><time>2026-04-27T17:21:49.982Z</time></trkpt><trkpt lat="43.652522725824696" lon="11.1541584036298"><ele>106.0</ele><time>2026-04-27T17:21:51.982Z</time></trkpt><trkpt lat="43.652600922277976" lon="11.154095719158548"><ele>105.4</ele><time>2026-04-27T17:21:53.982Z</time></trkpt><trkpt lat="43.652681733580934" lon="11.154027437054388"><ele>104.8</ele><time>2026-04-27T17:21:55.982Z</time></trkpt><trkpt lat="43.652755905567936" lon="11.153956276715224"><ele>104.2</ele><time>2026-04-27T17:21:57.982Z</time></trkpt><trkpt lat="43.65283307112309" lon="11.15388070784324"><ele>103.60000000000001</ele><time>2026-04-27T17:21:59.981Z</time></trkpt><trkpt lat="43.652901537757" lon="11.153784756562958"><ele>103.0</ele><time>2026-04-27T17:22:01.981Z</time></trkpt><trkpt lat="43.6529595663168" lon="11.153684413021521"><ele>103.0</ele><time>2026-04-27T17:22:03.981Z</time></trkpt><trkpt lat="43.65300758196481" lon="11.153566099588154"><ele>103.0</ele><time>2026-04-27T17:22:05.981Z</time></trkpt><trkpt lat="43.65304958875208" lon="11.153445884686324"><ele>103.0</ele><time>2026-04-27T17:22:07.981Z</time></trkpt><trkpt lat="43.653082496365485" lon="11.153312140514101"><ele>103.0</ele><time>2026-04-27T17:22:09.981Z</time></trkpt><trkpt lat="43.653121575504215" lon="11.153182528430625"><ele>103.0</ele><time>2026-04-27T17:22:11.981Z</time></trkpt><trkpt lat="43.65315909046809" lon="11.153060777230856"><ele>102.60000000000001</ele><time>2026-04-27T17:22:13.981Z</time></trkpt><trkpt lat="43.65320707788224" lon="11.152939589678041"><ele>102.2</ele><time>2026-04-27T17:22:15.981Z</time></trkpt><trkpt lat="43.653269881087645" lon="11.152823188657766"><ele>101.8</ele><time>2026-04-27T17:22:17.981Z</time></trkpt><trkpt lat="43.65334321936968" lon="11.152709303119437"><ele>101.4</ele><time>2026-04-27T17:22:19.981Z</time></trkpt><trkpt lat="43.65340572003346" lon="11.152593762321674"><ele>101.0</ele><time>2026-04-27T17:22:21.981Z</time></trkpt><trkpt lat="43.65347959864212" lon="11.152483811111352"><ele>101.0</ele><time>2026-04-27T17:22:23.981Z</time></trkpt><trkpt lat="43.65355508242367" lon="11.152374867278919"><ele>101.0</ele><time>2026-04-27T17:22:25.981Z</time></trkpt><trkpt lat="43.65362270490475" lon="11.152262992433807"><ele>101.0</ele><time>2026-04-27T17:22:27.981Z</time></trkpt><trkpt lat="43.65368451491644" lon="11.152154456179007"><ele>101.0</ele><time>2026-04-27T17:22:29.981Z</time></trkpt><trkpt lat="43.65375696290349" lon="11.152031524398359"><ele>101.0</ele><time>2026-04-27T17:22:31.981Z</time></trkpt><trkpt lat="43.65382012488851" lon="11.15191332692772"><ele>101.19999999999999</ele><time>2026-04-27T17:22:33.981Z</time></trkpt><trkpt lat="43.65389052856614" lon="11.151789285375473"><ele>101.39999999999999</ele><time>2026-04-27T17:22:35.981Z</time></trkpt><trkpt lat="43.653953655439295" lon="11.151667098721754"><ele>101.6</ele><time>2026-04-27T17:22:37.981Z</time></trkpt><trkpt lat="43.65400590806342" lon="11.151550507591782"><ele>101.8</ele><time>2026-04-27T17:22:39.981Z</time></trkpt><trkpt lat="43.65408445689336" lon="11.151440740635154"><ele>102.0</ele><time>2026-04-27T17:22:41.981Z</time></trkpt><trkpt lat="43.654141623246744" lon="11.151333381988797"><ele>102.0</ele><time>2026-04-27T17:22:43.981Z</time></trkpt><trkpt lat="43.6542157021405" lon="11.151216708406595"><ele>102.0</ele><time>2026-04-27T17:22:45.981Z</time></trkpt><trkpt lat="43.6542715401828" lon="11.151119039062378"><ele>102.0</ele><time>2026-04-27T17:22:47.981Z</time></trkpt><trkpt lat="43.6543344352876" lon="11.151028860315808"><ele>102.0</ele><time>2026-04-27T17:22:49.981Z</time></trkpt><trkpt lat="43.654405648832046" lon="11.150944049933901"><ele>102.0</ele><time>2026-04-27T17:22:51.981Z</time></trkpt><trkpt lat="43.654476259863316" lon="11.150890987383068"><ele>102.0</ele><time>2026-04-27T17:22:53.981Z</time></trkpt><trkpt lat="43.65454082187566" lon="11.150837378400437"><ele>102.0</ele><time>2026-04-27T17:22:55.981Z</time></trkpt><trkpt lat="43.65460150155321" lon="11.150759032173186"><ele>102.0</ele><time>2026-04-27T17:22:57.981Z</time></trkpt><trkpt lat="43.654665713324825" lon="11.150685164809346"><ele>102.0</ele><time>2026-04-27T17:22:59.981Z</time></trkpt><trkpt lat="43.65472409540793" lon="11.150619815733583"><ele>102.0</ele><time>2026-04-27T17:23:01.981Z</time></trkpt><trkpt lat="43.65478194056171" lon="11.150556075852597"><ele>102.0</ele><time>2026-04-27T17:23:03.981Z</time></trkpt><trkpt lat="43.654828018547136" lon="11.150486663378063"><ele>102.0</ele><time>2026-04-27T17:23:05.981Z</time></trkpt><trkpt lat="43.65491149807721" lon="11.150404964950225"><ele>102.0</ele><time>2026-04-27T17:23:08.981Z</time></trkpt><trkpt lat="43.654965026185494" lon="11.150332847861495"><ele>102.0</ele><time>2026-04-27T17:23:10.981Z</time></trkpt><trkpt lat="43.65504246611854" lon="11.150255076519866"><ele>102.0</ele><time>2026-04-27T17:23:13.981Z</time></trkpt><trkpt lat="43.65509489261118" lon="11.15017607712639"><ele>102.0</ele><time>2026-04-27T17:23:15.981Z</time></trkpt><trkpt lat="43.65513134671968" lon="11.15010188707157"><ele>102.0</ele><time>2026-04-27T17:23:17.981Z</time></trkpt><trkpt lat="43.655184467209544" lon="11.150013250329657"><ele>102.0</ele><time>2026-04-27T17:23:19.981Z</time></trkpt><trkpt lat="43.65524299855704" lon="11.149952663429762"><ele>102.0</ele><time>2026-04-27T17:23:21.981Z</time></trkpt><trkpt lat="43.65530861813551" lon="11.149870395524855"><ele>102.0</ele><time>2026-04-27T17:23:23.981Z</time></trkpt><trkpt lat="43.65537443542467" lon="11.149772860422887"><ele>102.0</ele><time>2026-04-27T17:23:25.981Z</time></trkpt><trkpt lat="43.65544741631099" lon="11.149682544625579"><ele>102.0</ele><time>2026-04-27T17:23:27.981Z</time></trkpt><trkpt lat="43.65552860337897" lon="11.149616288453693"><ele>101.5</ele><time>2026-04-27T17:23:29.981Z</time></trkpt><trkpt lat="43.655601694739275" lon="11.149542631862442"><ele>101.0</ele><time>2026-04-27T17:23:31.981Z</time></trkpt><trkpt lat="43.65566070631869" lon="11.149473427685733"><ele>100.5</ele><time>2026-04-27T17:23:33.981Z</time></trkpt><trkpt lat="43.65572144341224" lon="11.149414501387746"><ele>100.0</ele><time>2026-04-27T17:23:35.981Z</time></trkpt><trkpt lat="43.65578978970659" lon="11.14935252951514"><ele>99.5</ele><time>2026-04-27T17:23:37.981Z</time></trkpt><trkpt lat="43.65586329247769" lon="11.149273252135762"><ele>99.0</ele><time>2026-04-27T17:23:39.981Z</time></trkpt><trkpt lat="43.655936096883806" lon="11.149196755283437"><ele>99.0</ele><time>2026-04-27T17:23:41.981Z</time></trkpt><trkpt lat="43.65600230208453" lon="11.149103751855991"><ele>99.0</ele><time>2026-04-27T17:23:43.981Z</time></trkpt><trkpt lat="43.65607973531568" lon="11.149028522615064"><ele>99.0</ele><time>2026-04-27T17:23:45.982Z</time></trkpt><trkpt lat="43.65616034264589" lon="11.148959504008138"><ele>99.0</ele><time>2026-04-27T17:23:47.982Z</time></trkpt><trkpt lat="43.65624011404432" lon="11.148875786889855"><ele>99.0</ele><time>2026-04-27T17:23:49.982Z</time></trkpt><trkpt lat="43.65630621001457" lon="11.148781923835026"><ele>99.0</ele><time>2026-04-27T17:23:51.981Z</time></trkpt><trkpt lat="43.65637549576454" lon="11.148688232342256"><ele>99.0</ele><time>2026-04-27T17:23:53.981Z</time></trkpt><trkpt lat="43.65644539640049" lon="11.148592784196307"><ele>99.0</ele><time>2026-04-27T17:23:55.981Z</time></trkpt><trkpt lat="43.65651472240136" lon="11.148513304595603"><ele>99.0</ele><time>2026-04-27T17:23:57.981Z</time></trkpt><trkpt lat="43.65659115371748" lon="11.148432050149143"><ele>99.0</ele><time>2026-04-27T17:23:59.981Z</time></trkpt><trkpt lat="43.65666378342506" lon="11.148358084275797"><ele>99.0</ele><time>2026-04-27T17:24:01.981Z</time></trkpt><trkpt lat="43.656730727899266" lon="11.14828170143325"><ele>99.0</ele><time>2026-04-27T17:24:03.981Z</time></trkpt><trkpt lat="43.65679424501313" lon="11.148193383375293"><ele>99.0</ele><time>2026-04-27T17:24:05.981Z</time></trkpt><trkpt lat="43.656854688191885" lon="11.148098604998403"><ele>99.0</ele><time>2026-04-27T17:24:07.981Z</time></trkpt><trkpt lat="43.656912971395144" lon="11.147984186986866"><ele>99.0</ele><time>2026-04-27T17:24:09.981Z</time></trkpt><trkpt lat="43.65694106704091" lon="11.147860125286403"><ele>99.0</ele><time>2026-04-27T17:24:11.981Z</time></trkpt><trkpt lat="43.6569565928194" lon="11.147731432851954"><ele>99.0</ele><time>2026-04-27T17:24:13.981Z</time></trkpt><trkpt lat="43.65697142254787" lon="11.147599976773945"><ele>99.0</ele><time>2026-04-27T17:24:15.981Z</time></trkpt><trkpt lat="43.65699321178951" lon="11.147470261312682"><ele>99.0</ele><time>2026-04-27T17:24:17.981Z</time></trkpt><trkpt lat="43.65701295759657" lon="11.147330926689689"><ele>99.0</ele><time>2026-04-27T17:24:19.981Z</time></trkpt><trkpt lat="43.65703395120108" lon="11.147198084910396"><ele>98.80000000000001</ele><time>2026-04-27T17:24:21.981Z</time></trkpt><trkpt lat="43.65706133073859" lon="11.147068890197687"><ele>98.60000000000001</ele><time>2026-04-27T17:24:23.981Z</time></trkpt><trkpt lat="43.65707983374703" lon="11.146933109392249"><ele>98.4</ele><time>2026-04-27T17:24:25.981Z</time></trkpt><trkpt lat="43.6570974835944" lon="11.146807464949905"><ele>98.2</ele><time>2026-04-27T17:24:27.981Z</time></trkpt><trkpt lat="43.65711144273167" lon="11.146684954514832"><ele>98.0</ele><time>2026-04-27T17:24:29.981Z</time></trkpt><trkpt lat="43.657135846767275" lon="11.146574389097024"><ele>98.0</ele><time>2026-04-27T17:24:31.981Z</time></trkpt><trkpt lat="43.65716249380733" lon="11.146456123293348"><ele>98.0</ele><time>2026-04-27T17:24:33.981Z</time></trkpt><trkpt lat="43.65720689029867" lon="11.146352632331508"><ele>98.0</ele><time>2026-04-27T17:24:35.981Z</time></trkpt><trkpt lat="43.6572414436738" lon="11.146208402592837"><ele>98.0</ele><time>2026-04-27T17:24:37.981Z</time></trkpt><trkpt lat="43.657269483848346" lon="11.146058882686738"><ele>98.0</ele><time>2026-04-27T17:24:39.981Z</time></trkpt><trkpt lat="43.657273497198474" lon="11.145934581568165"><ele>97.99999999999999</ele><time>2026-04-27T17:24:41.981Z</time></trkpt><trkpt lat="43.65728092912295" lon="11.14581282216535"><ele>98.0</ele><time>2026-04-27T17:24:43.981Z</time></trkpt><trkpt lat="43.657286151492606" lon="11.145682188980038"><ele>98.0</ele><time>2026-04-27T17:24:45.981Z</time></trkpt><trkpt lat="43.65727665009786" lon="11.145570855023884"><ele>98.0</ele><time>2026-04-27T17:24:47.981Z</time></trkpt><trkpt lat="43.6572793167994" lon="11.145441015101964"><ele>97.99999999999999</ele><time>2026-04-27T17:24:49.981Z</time></trkpt><trkpt lat="43.657318668424125" lon="11.145330235551823"><ele>98.0</ele><time>2026-04-27T17:24:51.981Z</time></trkpt><trkpt lat="43.657363568054215" lon="11.145233959239533"><ele>97.99999999999999</ele><time>2026-04-27T17:24:53.981Z</time></trkpt><trkpt lat="43.6574116332022" lon="11.145137479204548"><ele>98.0</ele><time>2026-04-27T17:24:55.981Z</time></trkpt><trkpt lat="43.657435122549444" lon="11.145025079710113"><ele>98.0</ele><time>2026-04-27T17:24:57.981Z</time></trkpt><trkpt lat="43.65746484458363" lon="11.144913716155513"><ele>98.0</ele><time>2026-04-27T17:24:59.981Z</time></trkpt><trkpt lat="43.65750514819351" lon="11.144820226219121"><ele>97.99999999999999</ele><time>2026-04-27T17:25:01.981Z</time></trkpt><trkpt lat="43.65756709312997" lon="11.144724099320358"><ele>98.0</ele><time>2026-04-27T17:25:03.981Z</time></trkpt><trkpt lat="43.65762732169161" lon="11.144626442816858"><ele>98.0</ele><time>2026-04-27T17:25:05.981Z</time></trkpt><trkpt lat="43.65769162047677" lon="11.14452985458589"><ele>98.0</ele><time>2026-04-27T17:25:07.981Z</time></trkpt><trkpt lat="43.65774739936063" lon="11.14443521988076"><ele>98.0</ele><time>2026-04-27T17:25:09.981Z</time></trkpt><trkpt lat="43.6578260441586" lon="11.144376150597276"><ele>98.0</ele><time>2026-04-27T17:25:11.981Z</time></trkpt><trkpt lat="43.65790046731812" lon="11.14429546972108"><ele>98.0</ele><time>2026-04-27T17:25:13.981Z</time></trkpt><trkpt lat="43.65796955978256" lon="11.14421206425749"><ele>98.0</ele><time>2026-04-27T17:25:15.981Z</time></trkpt><trkpt lat="43.65803500810998" lon="11.144119869927389"><ele>98.0</ele><time>2026-04-27T17:25:17.981Z</time></trkpt><trkpt lat="43.65810924019249" lon="11.144028093516244"><ele>98.0</ele><time>2026-04-27T17:25:19.981Z</time></trkpt><trkpt lat="43.65817323560647" lon="11.143939659279335"><ele>98.0</ele><time>2026-04-27T17:25:21.981Z</time></trkpt><trkpt lat="43.65823317323567" lon="11.143843669398542"><ele>98.0</ele><time>2026-04-27T17:25:23.981Z</time></trkpt><trkpt lat="43.658290300950014" lon="11.143735956936428"><ele>98.0</ele><time>2026-04-27T17:25:25.981Z</time></trkpt><trkpt lat="43.65834820726666" lon="11.143636440100428"><ele>98.0</ele><time>2026-04-27T17:25:27.981Z</time></trkpt><trkpt lat="43.658406666226426" lon="11.143530235956307"><ele>98.0</ele><time>2026-04-27T17:25:29.981Z</time></trkpt><trkpt lat="43.658474616449595" lon="11.143443826431456"><ele>98.0</ele><time>2026-04-27T17:25:31.981Z</time></trkpt><trkpt lat="43.65854226513191" lon="11.14337124553957"><ele>98.0</ele><time>2026-04-27T17:25:33.981Z</time></trkpt><trkpt lat="43.65862538991985" lon="11.143326205575107"><ele>97.80000000000001</ele><time>2026-04-27T17:25:35.981Z</time></trkpt><trkpt lat="43.658714783844076" lon="11.143279744634123"><ele>97.6</ele><time>2026-04-27T17:25:37.981Z</time></trkpt><trkpt lat="43.658797141202015" lon="11.143227090115616"><ele>97.4</ele><time>2026-04-27T17:25:39.981Z</time></trkpt><trkpt lat="43.65887468396788" lon="11.143158349668571"><ele>97.19999999999999</ele><time>2026-04-27T17:25:41.981Z</time></trkpt><trkpt lat="43.658946493141684" lon="11.143073967331432"><ele>97.0</ele><time>2026-04-27T17:25:43.981Z</time></trkpt><trkpt lat="43.65901709877611" lon="11.142979487767724"><ele>96.6</ele><time>2026-04-27T17:25:45.981Z</time></trkpt><trkpt lat="43.659083293966816" lon="11.142877169134936"><ele>96.19999999999999</ele><time>2026-04-27T17:25:47.981Z</time></trkpt><trkpt lat="43.65915203522027" lon="11.142777459195365"><ele>95.8</ele><time>2026-04-27T17:25:49.982Z</time></trkpt><trkpt lat="43.65923069470777" lon="11.14269775434258"><ele>95.4</ele><time>2026-04-27T17:25:51.981Z</time></trkpt><trkpt lat="43.659341814155454" lon="11.142583984729113"><ele>95.0</ele><time>2026-04-27T17:25:54.981Z</time></trkpt><trkpt lat="43.65941042211372" lon="11.142494486402322"><ele>95.2</ele><time>2026-04-27T17:25:56.981Z</time></trkpt><trkpt lat="43.65949904020607" lon="11.142427091606649"><ele>95.4</ele><time>2026-04-27T17:25:58.98Z</time></trkpt><trkpt lat="43.659580256049146" lon="11.142340869247478"><ele>95.6</ele><time>2026-04-27T17:26:00.98Z</time></trkpt><trkpt lat="43.65967352769453" lon="11.14228113639043"><ele>95.8</ele><time>2026-04-27T17:26:02.98Z</time></trkpt><trkpt lat="43.6597477788501" lon="11.142185796213738"><ele>96.0</ele><time>2026-04-27T17:26:04.98Z</time></trkpt><trkpt lat="43.65983406826976" lon="11.142093230381153"><ele>96.0</ele><time>2026-04-27T17:26:06.98Z</time></trkpt><trkpt lat="43.65989768748364" lon="11.141978441278912"><ele>96.0</ele><time>2026-04-27T17:26:08.98Z</time></trkpt><trkpt lat="43.65996963098513" lon="11.141863860432906"><ele>96.0</ele><time>2026-04-27T17:26:10.98Z</time></trkpt><trkpt lat="43.66004096158884" lon="11.141749568959805"><ele>96.0</ele><time>2026-04-27T17:26:12.98Z</time></trkpt><trkpt lat="43.660109179593896" lon="11.141637124983758"><ele>96.0</ele><time>2026-04-27T17:26:14.98Z</time></trkpt><trkpt lat="43.66018237964076" lon="11.141535972964165"><ele>95.8</ele><time>2026-04-27T17:26:16.98Z</time></trkpt><trkpt lat="43.66026225735203" lon="11.141438455053358"><ele>95.6</ele><time>2026-04-27T17:26:18.98Z</time></trkpt><trkpt lat="43.66033447853652" lon="11.141322511027234"><ele>95.4</ele><time>2026-04-27T17:26:20.98Z</time></trkpt><trkpt lat="43.66042428746072" lon="11.141226378680198"><ele>95.2</ele><time>2026-04-27T17:26:22.98Z</time></trkpt><trkpt lat="43.66051666887803" lon="11.14114168706114"><ele>95.0</ele><time>2026-04-27T17:26:24.98Z</time></trkpt><trkpt lat="43.66059221895581" lon="11.141031983296221"><ele>95.0</ele><time>2026-04-27T17:26:26.98Z</time></trkpt><trkpt lat="43.66066170255987" lon="11.1409370721822"><ele>95.0</ele><time>2026-04-27T17:26:28.979Z</time></trkpt><trkpt lat="43.66072169684807" lon="11.140846826312242"><ele>95.0</ele><time>2026-04-27T17:26:30.979Z</time></trkpt><trkpt lat="43.66076682942054" lon="11.140736602569007"><ele>95.0</ele><time>2026-04-27T17:26:32.979Z</time></trkpt><trkpt lat="43.66081196469967" lon="11.140619524705436"><ele>95.0</ele><time>2026-04-27T17:26:34.979Z</time></trkpt><trkpt lat="43.66083921686133" lon="11.140499922412687"><ele>94.83333333333334</ele><time>2026-04-27T17:26:36.979Z</time></trkpt><trkpt lat="43.66086641459405" lon="11.140380690423662"><ele>94.66666666666667</ele><time>2026-04-27T17:26:38.979Z</time></trkpt><trkpt lat="43.66089404545039" lon="11.140259710295764"><ele>94.5</ele><time>2026-04-27T17:26:40.979Z</time></trkpt><trkpt lat="43.660921786910876" lon="11.140150760526497"><ele>94.33333333333333</ele><time>2026-04-27T17:26:42.979Z</time></trkpt><trkpt lat="43.66095706249128" lon="11.140039807921907"><ele>94.16666666666666</ele><time>2026-04-27T17:26:44.979Z</time></trkpt><trkpt lat="43.66097094952773" lon="11.139912500088107"><ele>94.0</ele><time>2026-04-27T17:26:46.979Z</time></trkpt><trkpt lat="43.66097274397106" lon="11.139797025215568"><ele>93.80000000000001</ele><time>2026-04-27T17:26:48.979Z</time></trkpt><trkpt lat="43.66103215065266" lon="11.13969541154508"><ele>93.60000000000001</ele><time>2026-04-27T17:26:50.979Z</time></trkpt><trkpt lat="43.66110769842237" lon="11.139612998338642"><ele>93.4</ele><time>2026-04-27T17:26:52.979Z</time></trkpt><trkpt lat="43.66117695573054" lon="11.139537011971345"><ele>93.2</ele><time>2026-04-27T17:26:54.979Z</time></trkpt><trkpt lat="43.66124162693197" lon="11.139455737357851"><ele>93.0</ele><time>2026-04-27T17:26:56.979Z</time></trkpt><trkpt lat="43.661304660547344" lon="11.139380886644721"><ele>92.66666666666667</ele><time>2026-04-27T17:26:58.979Z</time></trkpt><trkpt lat="43.66136692983475" lon="11.139313167777269"><ele>92.33333333333333</ele><time>2026-04-27T17:27:00.979Z</time></trkpt><trkpt lat="43.66142441414363" lon="11.139233344300854"><ele>92.0</ele><time>2026-04-27T17:27:02.979Z</time></trkpt><trkpt lat="43.661493953555336" lon="11.139156826839827"><ele>91.66666666666666</ele><time>2026-04-27T17:27:04.979Z</time></trkpt><trkpt lat="43.661557989359" lon="11.139091310217843"><ele>91.33333333333333</ele><time>2026-04-27T17:27:06.979Z</time></trkpt><trkpt lat="43.66162848304409" lon="11.1390258511973"><ele>91.0</ele><time>2026-04-27T17:27:08.979Z</time></trkpt><trkpt lat="43.6617006547151" lon="11.138953088114146"><ele>91.0</ele><time>2026-04-27T17:27:10.979Z</time></trkpt><trkpt lat="43.66177863913652" lon="11.138878494975573"><ele>91.0</ele><time>2026-04-27T17:27:12.979Z</time></trkpt><trkpt lat="43.66185783631079" lon="11.138811558105546"><ele>91.0</ele><time>2026-04-27T17:27:14.979Z</time></trkpt><trkpt lat="43.66193134742892" lon="11.138725342271297"><ele>91.0</ele><time>2026-04-27T17:27:16.979Z</time></trkpt><trkpt lat="43.662006019606906" lon="11.138658147920095"><ele>91.0</ele><time>2026-04-27T17:27:18.979Z</time></trkpt><trkpt lat="43.66208600325011" lon="11.138584539648338"><ele>91.19999999999999</ele><time>2026-04-27T17:27:20.979Z</time></trkpt><trkpt lat="43.66216184552468" lon="11.138506699335313"><ele>91.39999999999999</ele><time>2026-04-27T17:27:22.979Z</time></trkpt><trkpt lat="43.66223891660034" lon="11.13843596206127"><ele>91.6</ele><time>2026-04-27T17:27:24.979Z</time></trkpt><trkpt lat="43.6623186535562" lon="11.138373583271433"><ele>91.8</ele><time>2026-04-27T17:27:26.979Z</time></trkpt><trkpt lat="43.66239822726892" lon="11.138306010526332"><ele>92.0</ele><time>2026-04-27T17:27:28.979Z</time></trkpt><trkpt lat="43.66248088315487" lon="11.138245675996655"><ele>92.0</ele><time>2026-04-27T17:27:30.979Z</time></trkpt><trkpt lat="43.66256492457456" lon="11.138180043367575"><ele>92.0</ele><time>2026-04-27T17:27:32.979Z</time></trkpt><trkpt lat="43.662646320366214" lon="11.138115494788101"><ele>92.0</ele><time>2026-04-27T17:27:34.979Z</time></trkpt><trkpt lat="43.662716555230375" lon="11.138051520373294"><ele>92.0</ele><time>2026-04-27T17:27:36.979Z</time></trkpt><trkpt lat="43.66279489956028" lon="11.1380001221483"><ele>92.0</ele><time>2026-04-27T17:27:38.979Z</time></trkpt><trkpt lat="43.662869473579605" lon="11.137943994349794"><ele>92.0</ele><time>2026-04-27T17:27:40.979Z</time></trkpt><trkpt lat="43.66294565011459" lon="11.137880511812895"><ele>92.0</ele><time>2026-04-27T17:27:42.979Z</time></trkpt><trkpt lat="43.66303127098177" lon="11.137807878668198"><ele>92.0</ele><time>2026-04-27T17:27:44.979Z</time></trkpt><trkpt lat="43.66311392578394" lon="11.137743503382728"><ele>92.0</ele><time>2026-04-27T17:27:46.979Z</time></trkpt><trkpt lat="43.66319634874968" lon="11.137679330129897"><ele>92.0</ele><time>2026-04-27T17:27:48.979Z</time></trkpt><trkpt lat="43.66327313170787" lon="11.137608159458424"><ele>92.0</ele><time>2026-04-27T17:27:50.979Z</time></trkpt><trkpt lat="43.66336243279947" lon="11.137562780900312"><ele>92.0</ele><time>2026-04-27T17:27:52.979Z</time></trkpt><trkpt lat="43.66345432480742" lon="11.137513355845016"><ele>92.0</ele><time>2026-04-27T17:27:54.978Z</time></trkpt><trkpt lat="43.663549651459775" lon="11.137469471593317"><ele>92.0</ele><time>2026-04-27T17:27:56.979Z</time></trkpt><trkpt lat="43.663650012072395" lon="11.137418771803246"><ele>92.0</ele><time>2026-04-27T17:27:58.979Z</time></trkpt><trkpt lat="43.66375226765439" lon="11.13735839233594"><ele>92.0</ele><time>2026-04-27T17:28:00.979Z</time></trkpt><trkpt lat="43.66385727650831" lon="11.137293706407062"><ele>91.8</ele><time>2026-04-27T17:28:02.98Z</time></trkpt><trkpt lat="43.66395946761853" lon="11.13722775462058"><ele>91.6</ele><time>2026-04-27T17:28:04.979Z</time></trkpt><trkpt lat="43.66405979707384" lon="11.13716298921364"><ele>91.39999999999999</ele><time>2026-04-27T17:28:06.979Z</time></trkpt><trkpt lat="43.66415937219101" lon="11.137083221056438"><ele>91.19999999999999</ele><time>2026-04-27T17:28:08.979Z</time></trkpt><trkpt lat="43.664252061733414" lon="11.136999266247368"><ele>91.0</ele><time>2026-04-27T17:28:10.979Z</time></trkpt><trkpt lat="43.66435010164878" lon="11.136928870097266"><ele>91.0</ele><time>2026-04-27T17:28:12.979Z</time></trkpt><trkpt lat="43.66443350514543" lon="11.136852538276994"><ele>91.0</ele><time>2026-04-27T17:28:14.979Z</time></trkpt><trkpt lat="43.66451502531624" lon="11.136779867886123"><ele>91.0</ele><time>2026-04-27T17:28:16.979Z</time></trkpt><trkpt lat="43.6646019310777" lon="11.136686151480632"><ele>91.0</ele><time>2026-04-27T17:28:18.979Z</time></trkpt><trkpt lat="43.66467485546079" lon="11.136597130632207"><ele>91.0</ele><time>2026-04-27T17:28:20.979Z</time></trkpt><trkpt lat="43.66474085862903" lon="11.136494767700869"><ele>91.19999999999999</ele><time>2026-04-27T17:28:22.979Z</time></trkpt><trkpt lat="43.664811349611384" lon="11.136384478622698"><ele>91.39999999999999</ele><time>2026-04-27T17:28:24.979Z</time></trkpt><trkpt lat="43.664890694867836" lon="11.136299360042127"><ele>91.6</ele><time>2026-04-27T17:28:26.979Z</time></trkpt><trkpt lat="43.6649681359613" lon="11.136218178258082"><ele>91.8</ele><time>2026-04-27T17:28:28.979Z</time></trkpt><trkpt lat="43.66504684313405" lon="11.136132685602634"><ele>92.0</ele><time>2026-04-27T17:28:30.979Z</time></trkpt><trkpt lat="43.66512638617463" lon="11.136064272903898"><ele>92.0</ele><time>2026-04-27T17:28:32.979Z</time></trkpt><trkpt lat="43.66520993845321" lon="11.136004041176243"><ele>92.0</ele><time>2026-04-27T17:28:34.979Z</time></trkpt><trkpt lat="43.665293284104806" lon="11.135957118037384"><ele>92.0</ele><time>2026-04-27T17:28:36.979Z</time></trkpt><trkpt lat="43.66538006353242" lon="11.135911219482598"><ele>92.0</ele><time>2026-04-27T17:28:38.979Z</time></trkpt><trkpt lat="43.665474353090296" lon="11.135876135181789"><ele>92.0</ele><time>2026-04-27T17:28:40.979Z</time></trkpt><trkpt lat="43.665564179035655" lon="11.135843909406171"><ele>92.0</ele><time>2026-04-27T17:28:42.979Z</time></trkpt><trkpt lat="43.66566087274972" lon="11.13580916574505"><ele>92.0</ele><time>2026-04-27T17:28:44.979Z</time></trkpt><trkpt lat="43.665758500125676" lon="11.13577345332863"><ele>92.0</ele><time>2026-04-27T17:28:46.979Z</time></trkpt><trkpt lat="43.66585605476025" lon="11.135748306409042"><ele>92.0</ele><time>2026-04-27T17:28:48.979Z</time></trkpt><trkpt lat="43.66594584485419" lon="11.135724312046728"><ele>92.0</ele><time>2026-04-27T17:28:50.979Z</time></trkpt><trkpt lat="43.66601800690654" lon="11.135708531054927"><ele>91.19999999999999</ele><time>2026-04-27T17:28:52.979Z</time></trkpt><trkpt lat="43.6661165626126" lon="11.135692602169764"><ele>90.4</ele><time>2026-04-27T17:28:54.979Z</time></trkpt><trkpt lat="43.66621052345404" lon="11.135669814887082"><ele>89.6</ele><time>2026-04-27T17:28:56.979Z</time></trkpt><trkpt lat="43.66630183634782" lon="11.135648367587924"><ele>88.80000000000001</ele><time>2026-04-27T17:28:58.979Z</time></trkpt><trkpt lat="43.666410943787255" lon="11.13560416683928"><ele>88.0</ele><time>2026-04-27T17:29:00.979Z</time></trkpt><trkpt lat="43.66652894585964" lon="11.135570553450135"><ele>88.0</ele><time>2026-04-27T17:29:02.979Z</time></trkpt><trkpt lat="43.66660395767452" lon="11.135557249144226"><ele>88.0</ele><time>2026-04-27T17:29:03.979Z</time></trkpt><trkpt lat="43.666685503384095" lon="11.13555946451045"><ele>88.0</ele><time>2026-04-27T17:29:04.979Z</time></trkpt><trkpt lat="43.666755960945196" lon="11.135568927115726"><ele>88.0</ele><time>2026-04-27T17:29:05.979Z</time></trkpt><trkpt lat="43.66682241770171" lon="11.135571186055444"><ele>88.0</ele><time>2026-04-27T17:29:06.979Z</time></trkpt><trkpt lat="43.66688552701028" lon="11.135569555564869"><ele>88.0</ele><time>2026-04-27T17:29:07.979Z</time></trkpt><trkpt lat="43.66695007876586" lon="11.135564230994465"><ele>88.0</ele><time>2026-04-27T17:29:08.979Z</time></trkpt><trkpt lat="43.66707401354537" lon="11.135546961229162"><ele>88.0</ele><time>2026-04-27T17:29:10.979Z</time></trkpt><trkpt lat="43.667188540172425" lon="11.1355304030873"><ele>88.0</ele><time>2026-04-27T17:29:12.979Z</time></trkpt><trkpt lat="43.66729601068806" lon="11.135528472526643"><ele>88.0</ele><time>2026-04-27T17:29:14.979Z</time></trkpt><trkpt lat="43.6673910106787" lon="11.135534117273583"><ele>88.0</ele><time>2026-04-27T17:29:16.979Z</time></trkpt><trkpt lat="43.66750832708222" lon="11.135513617449936"><ele>88.0</ele><time>2026-04-27T17:29:18.979Z</time></trkpt><trkpt lat="43.66761436839886" lon="11.135537218581067"><ele>88.0</ele><time>2026-04-27T17:29:20.979Z</time></trkpt><trkpt lat="43.66772524996505" lon="11.135519915570066"><ele>88.0</ele><time>2026-04-27T17:29:22.979Z</time></trkpt><trkpt lat="43.66783887121725" lon="11.135505020676403"><ele>88.0</ele><time>2026-04-27T17:29:24.979Z</time></trkpt><trkpt lat="43.66794003329427" lon="11.135474824850114"><ele>88.0</ele><time>2026-04-27T17:29:26.979Z</time></trkpt><trkpt lat="43.66804029108922" lon="11.135433985124438"><ele>88.0</ele><time>2026-04-27T17:29:28.979Z</time></trkpt><trkpt lat="43.668123206388756" lon="11.13538938440063"><ele>87.83333333333333</ele><time>2026-04-27T17:29:30.979Z</time></trkpt><trkpt lat="43.66822354759169" lon="11.135353691369934"><ele>87.66666666666666</ele><time>2026-04-27T17:29:32.979Z</time></trkpt><trkpt lat="43.668310810766414" lon="11.135309085447862"><ele>87.5</ele><time>2026-04-27T17:29:34.979Z</time></trkpt><trkpt lat="43.668385953338074" lon="11.135244707151118"><ele>87.33333333333333</ele><time>2026-04-27T17:29:36.979Z</time></trkpt><trkpt lat="43.6684511604201" lon="11.13519044199542"><ele>87.16666666666667</ele><time>2026-04-27T17:29:38.979Z</time></trkpt><trkpt lat="43.66851139938396" lon="11.135130458656251"><ele>87.0</ele><time>2026-04-27T17:29:40.979Z</time></trkpt><trkpt lat="43.66857192156052" lon="11.135066542871188"><ele>87.0</ele><time>2026-04-27T17:29:42.979Z</time></trkpt><trkpt lat="43.66864278321345" lon="11.135011780758637"><ele>87.0</ele><time>2026-04-27T17:29:44.979Z</time></trkpt><trkpt lat="43.66870397928995" lon="11.134973081827233"><ele>87.0</ele><time>2026-04-27T17:29:46.979Z</time></trkpt><trkpt lat="43.668770147154184" lon="11.13491321897803"><ele>87.0</ele><time>2026-04-27T17:29:48.979Z</time></trkpt><trkpt lat="43.668823935360344" lon="11.134857270476529"><ele>87.0</ele><time>2026-04-27T17:29:50.979Z</time></trkpt><trkpt lat="43.6688887056273" lon="11.134784304082732"><ele>87.0</ele><time>2026-04-27T17:29:52.979Z</time></trkpt><trkpt lat="43.66896186461361" lon="11.134716897455336"><ele>87.0</ele><time>2026-04-27T17:29:54.979Z</time></trkpt><trkpt lat="43.669044610527884" lon="11.134642346174749"><ele>87.0</ele><time>2026-04-27T17:29:56.979Z</time></trkpt><trkpt lat="43.6691172121213" lon="11.134575818071497"><ele>87.0</ele><time>2026-04-27T17:29:58.978Z</time></trkpt><trkpt lat="43.66919645866645" lon="11.134492120015517"><ele>87.0</ele><time>2026-04-27T17:30:00.978Z</time></trkpt><trkpt lat="43.66927122503116" lon="11.134413081937012"><ele>87.0</ele><time>2026-04-27T17:30:02.978Z</time></trkpt><trkpt lat="43.66935184560152" lon="11.134339041125603"><ele>87.0</ele><time>2026-04-27T17:30:04.979Z</time></trkpt><trkpt lat="43.66943150226255" lon="11.134279420430701"><ele>87.0</ele><time>2026-04-27T17:30:06.979Z</time></trkpt><trkpt lat="43.6695023435224" lon="11.13421857174952"><ele>87.0</ele><time>2026-04-27T17:30:08.978Z</time></trkpt><trkpt lat="43.669575023237485" lon="11.134150268748575"><ele>87.0</ele><time>2026-04-27T17:30:10.978Z</time></trkpt><trkpt lat="43.66964987426694" lon="11.134061690505737"><ele>87.0</ele><time>2026-04-27T17:30:12.978Z</time></trkpt><trkpt lat="43.669722605408246" lon="11.13396983117261"><ele>86.8</ele><time>2026-04-27T17:30:14.978Z</time></trkpt><trkpt lat="43.66979719687997" lon="11.133900437542577"><ele>86.6</ele><time>2026-04-27T17:30:16.978Z</time></trkpt><trkpt lat="43.669876150320746" lon="11.133808288817523"><ele>86.39999999999999</ele><time>2026-04-27T17:30:18.978Z</time></trkpt><trkpt lat="43.66995703553663" lon="11.133720864928758"><ele>86.19999999999999</ele><time>2026-04-27T17:30:20.978Z</time></trkpt><trkpt lat="43.67004035670467" lon="11.133635478745497"><ele>86.0</ele><time>2026-04-27T17:30:22.978Z</time></trkpt><trkpt lat="43.67011477657837" lon="11.133540604263224"><ele>86.0</ele><time>2026-04-27T17:30:24.978Z</time></trkpt><trkpt lat="43.67019472919489" lon="11.133448092250383"><ele>86.0</ele><time>2026-04-27T17:30:26.978Z</time></trkpt><trkpt lat="43.67028902256792" lon="11.13336116647011"><ele>86.0</ele><time>2026-04-27T17:30:28.978Z</time></trkpt><trkpt lat="43.670364611622674" lon="11.133273962950595"><ele>86.0</ele><time>2026-04-27T17:30:30.978Z</time></trkpt><trkpt lat="43.67044512457139" lon="11.13317559308538"><ele>86.0</ele><time>2026-04-27T17:30:32.978Z</time></trkpt><trkpt lat="43.67051680023812" lon="11.133085693049077"><ele>85.8</ele><time>2026-04-27T17:30:34.978Z</time></trkpt><trkpt lat="43.6705940367709" lon="11.13299842191963"><ele>85.6</ele><time>2026-04-27T17:30:36.978Z</time></trkpt><trkpt lat="43.670675415331374" lon="11.132937734459494"><ele>85.4</ele><time>2026-04-27T17:30:38.978Z</time></trkpt><trkpt lat="43.67075347951918" lon="11.132890578143304"><ele>85.2</ele><time>2026-04-27T17:30:40.978Z</time></trkpt><trkpt lat="43.67082460773353" lon="11.13281922794921"><ele>85.0</ele><time>2026-04-27T17:30:42.978Z</time></trkpt><trkpt lat="43.67089321763121" lon="11.132749111691174"><ele>85.0</ele><time>2026-04-27T17:30:44.978Z</time></trkpt><trkpt lat="43.67097263527356" lon="11.132673262898042"><ele>85.0</ele><time>2026-04-27T17:30:46.978Z</time></trkpt><trkpt lat="43.67105046741437" lon="11.132595605694133"><ele>85.0</ele><time>2026-04-27T17:30:48.978Z</time></trkpt><trkpt lat="43.671129655585744" lon="11.132536773347795"><ele>85.0</ele><time>2026-04-27T17:30:50.978Z</time></trkpt><trkpt lat="43.67120298629492" lon="11.132476245204016"><ele>85.0</ele><time>2026-04-27T17:30:52.978Z</time></trkpt><trkpt lat="43.67129868383616" lon="11.132428065489547"><ele>84.8</ele><time>2026-04-27T17:30:54.978Z</time></trkpt><trkpt lat="43.671374881154186" lon="11.132384997794967"><ele>84.6</ele><time>2026-04-27T17:30:56.978Z</time></trkpt><trkpt lat="43.671448064489475" lon="11.132331023272819"><ele>84.4</ele><time>2026-04-27T17:30:58.978Z</time></trkpt><trkpt lat="43.671539110929906" lon="11.132282252554507"><ele>84.2</ele><time>2026-04-27T17:31:00.978Z</time></trkpt><trkpt lat="43.67163134120629" lon="11.132246736812151"><ele>84.0</ele><time>2026-04-27T17:31:02.978Z</time></trkpt><trkpt lat="43.67172698124808" lon="11.132208336721593"><ele>84.0</ele><time>2026-04-27T17:31:04.978Z</time></trkpt><trkpt lat="43.67178947890793" lon="11.132190768586444"><ele>84.0</ele><time>2026-04-27T17:31:05.978Z</time></trkpt><trkpt lat="43.67190562447797" lon="11.13216702902053"><ele>84.0</ele><time>2026-04-27T17:31:07.978Z</time></trkpt><trkpt lat="43.67199856927683" lon="11.132123613260468"><ele>84.0</ele><time>2026-04-27T17:31:09.978Z</time></trkpt><trkpt lat="43.672096298573614" lon="11.132094924270627"><ele>84.0</ele><time>2026-04-27T17:31:11.978Z</time></trkpt><trkpt lat="43.672187862116125" lon="11.132088568183562"><ele>83.5</ele><time>2026-04-27T17:31:13.978Z</time></trkpt><trkpt lat="43.672275606037" lon="11.132058687371108"><ele>83.0</ele><time>2026-04-27T17:31:15.978Z</time></trkpt><trkpt lat="43.67238065768723" lon="11.132034033280226"><ele>82.5</ele><time>2026-04-27T17:31:17.978Z</time></trkpt><trkpt lat="43.67247970629674" lon="11.131997312235267"><ele>82.0</ele><time>2026-04-27T17:31:19.978Z</time></trkpt><trkpt lat="43.6726647926647" lon="11.131999570785313"><ele>82.0</ele><time>2026-04-27T17:31:23.978Z</time></trkpt><trkpt lat="43.67276947990054" lon="11.131984268443102"><ele>82.0</ele><time>2026-04-27T17:31:25.978Z</time></trkpt><trkpt lat="43.67287254415261" lon="11.13198530412664"><ele>82.0</ele><time>2026-04-27T17:31:27.978Z</time></trkpt><trkpt lat="43.67297439629237" lon="11.13199431229033"><ele>82.0</ele><time>2026-04-27T17:31:29.978Z</time></trkpt><trkpt lat="43.67307250697022" lon="11.131989608767677"><ele>82.0</ele><time>2026-04-27T17:31:31.978Z</time></trkpt><trkpt lat="43.673162985285224" lon="11.132019870036196"><ele>82.0</ele><time>2026-04-27T17:31:33.978Z</time></trkpt><trkpt lat="43.67326498540599" lon="11.132035114982179"><ele>82.0</ele><time>2026-04-27T17:31:35.978Z</time></trkpt><trkpt lat="43.67336169779184" lon="11.132063726663816"><ele>82.0</ele><time>2026-04-27T17:31:37.978Z</time></trkpt><trkpt lat="43.6734604227163" lon="11.132063056064045"><ele>82.0</ele><time>2026-04-27T17:31:39.978Z</time></trkpt><trkpt lat="43.67355786479879" lon="11.132067068006787"><ele>82.0</ele><time>2026-04-27T17:31:41.978Z</time></trkpt><trkpt lat="43.67365312203681" lon="11.132064363707576"><ele>81.8</ele><time>2026-04-27T17:31:43.978Z</time></trkpt><trkpt lat="43.673739437993355" lon="11.132044933413143"><ele>81.6</ele><time>2026-04-27T17:31:45.978Z</time></trkpt><trkpt lat="43.67384086283709" lon="11.132036803920895"><ele>81.39999999999999</ele><time>2026-04-27T17:31:47.978Z</time></trkpt><trkpt lat="43.67393370217515" lon="11.132014714362368"><ele>81.19999999999999</ele><time>2026-04-27T17:31:49.978Z</time></trkpt><trkpt lat="43.67404003183555" lon="11.13201250757975"><ele>81.0</ele><time>2026-04-27T17:31:51.978Z</time></trkpt><trkpt lat="43.67413635945941" lon="11.131997715974228"><ele>81.0</ele><time>2026-04-27T17:31:53.978Z</time></trkpt><trkpt lat="43.6742343478749" lon="11.131995910214245"><ele>81.0</ele><time>2026-04-27T17:31:55.978Z</time></trkpt><trkpt lat="43.6743400137837" lon="11.131991719931138"><ele>81.0</ele><time>2026-04-27T17:31:57.978Z</time></trkpt><trkpt lat="43.674450776761965" lon="11.13197539942375"><ele>81.0</ele><time>2026-04-27T17:31:59.978Z</time></trkpt><trkpt lat="43.67455674166187" lon="11.131965619937478"><ele>81.0</ele><time>2026-04-27T17:32:01.978Z</time></trkpt><trkpt lat="43.67466889343312" lon="11.1319491677342"><ele>81.0</ele><time>2026-04-27T17:32:03.978Z</time></trkpt><trkpt lat="43.67476698350327" lon="11.13191327197981"><ele>81.0</ele><time>2026-04-27T17:32:05.978Z</time></trkpt><trkpt lat="43.67486582133566" lon="11.131857715966865"><ele>81.0</ele><time>2026-04-27T17:32:07.978Z</time></trkpt><trkpt lat="43.674953596572685" lon="11.131791951267695"><ele>81.0</ele><time>2026-04-27T17:32:09.977Z</time></trkpt><trkpt lat="43.67504671197041" lon="11.131749921612611"><ele>81.0</ele><time>2026-04-27T17:32:11.978Z</time></trkpt><trkpt lat="43.6751305193315" lon="11.13170514574084"><ele>81.0</ele><time>2026-04-27T17:32:13.978Z</time></trkpt><trkpt lat="43.675232433132294" lon="11.131695831456607"><ele>81.0</ele><time>2026-04-27T17:32:15.977Z</time></trkpt><trkpt lat="43.6753278406031" lon="11.131658488670805"><ele>81.0</ele><time>2026-04-27T17:32:17.977Z</time></trkpt><trkpt lat="43.67540825218612" lon="11.131615282970063"><ele>81.0</ele><time>2026-04-27T17:32:19.977Z</time></trkpt><trkpt lat="43.67549286692035" lon="11.131554243932417"><ele>81.0</ele><time>2026-04-27T17:32:21.977Z</time></trkpt><trkpt lat="43.67556569617421" lon="11.131498373867228"><ele>81.19999999999999</ele><time>2026-04-27T17:32:23.977Z</time></trkpt><trkpt lat="43.67565814482854" lon="11.131451824532254"><ele>81.39999999999999</ele><time>2026-04-27T17:32:25.977Z</time></trkpt><trkpt lat="43.675745184579995" lon="11.131410085908186"><ele>81.6</ele><time>2026-04-27T17:32:27.977Z</time></trkpt><trkpt lat="43.67582784526506" lon="11.131346635848603"><ele>81.8</ele><time>2026-04-27T17:32:29.977Z</time></trkpt><trkpt lat="43.675907949152624" lon="11.131285787780223"><ele>82.0</ele><time>2026-04-27T17:32:31.977Z</time></trkpt><trkpt lat="43.67598769709516" lon="11.131219005239714"><ele>82.0</ele><time>2026-04-27T17:32:33.977Z</time></trkpt><trkpt lat="43.67606279149387" lon="11.131148584222"><ele>82.0</ele><time>2026-04-27T17:32:35.977Z</time></trkpt><trkpt lat="43.67613733012561" lon="11.131074878019936"><ele>82.0</ele><time>2026-04-27T17:32:37.977Z</time></trkpt><trkpt lat="43.67622014473676" lon="11.131005970672723"><ele>82.0</ele><time>2026-04-27T17:32:39.977Z</time></trkpt><trkpt lat="43.67630663056502" lon="11.130941947932035"><ele>82.0</ele><time>2026-04-27T17:32:41.977Z</time></trkpt><trkpt lat="43.67639014663086" lon="11.130878621878576"><ele>81.8</ele><time>2026-04-27T17:32:43.977Z</time></trkpt><trkpt lat="43.676470687195554" lon="11.130823264124933"><ele>81.6</ele><time>2026-04-27T17:32:45.977Z</time></trkpt><trkpt lat="43.67655428074353" lon="11.130765240443305"><ele>81.39999999999999</ele><time>2026-04-27T17:32:47.977Z</time></trkpt><trkpt lat="43.67663766119027" lon="11.130706558398282"><ele>81.19999999999999</ele><time>2026-04-27T17:32:49.977Z</time></trkpt><trkpt lat="43.676714561862894" lon="11.130652421677041"><ele>81.0</ele><time>2026-04-27T17:32:51.977Z</time></trkpt><trkpt lat="43.67679573049802" lon="11.130589094642218"><ele>81.4</ele><time>2026-04-27T17:32:53.977Z</time></trkpt><trkpt lat="43.67687819136004" lon="11.130522617025415"><ele>81.8</ele><time>2026-04-27T17:32:55.977Z</time></trkpt><trkpt lat="43.676967018504726" lon="11.130458519344906"><ele>82.2</ele><time>2026-04-27T17:32:57.977Z</time></trkpt><trkpt lat="43.67705223613518" lon="11.13037903618493"><ele>82.60000000000001</ele><time>2026-04-27T17:32:59.977Z</time></trkpt><trkpt lat="43.67714076621679" lon="11.130301455607265"><ele>83.0</ele><time>2026-04-27T17:33:01.977Z</time></trkpt><trkpt lat="43.67721945465948" lon="11.130238871563469"><ele>83.2</ele><time>2026-04-27T17:33:03.977Z</time></trkpt><trkpt lat="43.6773132546368" lon="11.130180693074974"><ele>83.4</ele><time>2026-04-27T17:33:05.977Z</time></trkpt><trkpt lat="43.67741322463079" lon="11.130120181073112"><ele>83.60000000000001</ele><time>2026-04-27T17:33:07.977Z</time></trkpt><trkpt lat="43.677507561803566" lon="11.13008871428579"><ele>83.80000000000001</ele><time>2026-04-27T17:33:09.977Z</time></trkpt><trkpt lat="43.677601133849784" lon="11.130038058228486"><ele>84.0</ele><time>2026-04-27T17:33:11.977Z</time></trkpt><trkpt lat="43.67770028399352" lon="11.130004949358263"><ele>83.83333333333333</ele><time>2026-04-27T17:33:13.977Z</time></trkpt><trkpt lat="43.67779665850827" lon="11.129965103127772"><ele>83.66666666666667</ele><time>2026-04-27T17:33:15.977Z</time></trkpt><trkpt lat="43.67788709865995" lon="11.129940737063661"><ele>83.5</ele><time>2026-04-27T17:33:17.977Z</time></trkpt><trkpt lat="43.67797558459572" lon="11.129920781600717"><ele>83.33333333333334</ele><time>2026-04-27T17:33:19.977Z</time></trkpt><trkpt lat="43.67805365754837" lon="11.129905313525262"><ele>83.16666666666667</ele><time>2026-04-27T17:33:21.977Z</time></trkpt><trkpt lat="43.678131510567816" lon="11.129897890498903"><ele>83.0</ele><time>2026-04-27T17:33:23.977Z</time></trkpt><trkpt lat="43.678207235505226" lon="11.12985916618756"><ele>83.0</ele><time>2026-04-27T17:33:25.977Z</time></trkpt><trkpt lat="43.67826608705418" lon="11.12981499597177"><ele>83.0</ele><time>2026-04-27T17:33:27.977Z</time></trkpt><trkpt lat="43.67834826639238" lon="11.12978263797955"><ele>83.0</ele><time>2026-04-27T17:33:30.977Z</time></trkpt><trkpt lat="43.67841041320887" lon="11.12976144182507"><ele>83.0</ele><time>2026-04-27T17:33:32.977Z</time></trkpt><trkpt lat="43.67847852278223" lon="11.129721907431845"><ele>83.0</ele><time>2026-04-27T17:33:34.977Z</time></trkpt><trkpt lat="43.678554172621" lon="11.129681158878483"><ele>83.0</ele><time>2026-04-27T17:33:37.977Z</time></trkpt><trkpt lat="43.678612711051976" lon="11.129637300667959"><ele>83.0</ele><time>2026-04-27T17:33:40.977Z</time></trkpt><trkpt lat="43.678667038681354" lon="11.129583017944338"><ele>82.66666666666667</ele><time>2026-04-27T17:33:43.977Z</time></trkpt><trkpt lat="43.67873639847195" lon="11.129532277907515"><ele>82.33333333333334</ele><time>2026-04-27T17:33:46.977Z</time></trkpt><trkpt lat="43.678816368663604" lon="11.129484882822462"><ele>82.0</ele><time>2026-04-27T17:33:49.977Z</time></trkpt><trkpt lat="43.67888609217329" lon="11.129439917919466"><ele>81.66666666666667</ele><time>2026-04-27T17:33:52.977Z</time></trkpt><trkpt lat="43.67895221140938" lon="11.129380909297444"><ele>81.33333333333333</ele><time>2026-04-27T17:33:55.977Z</time></trkpt><trkpt lat="43.67901829709004" lon="11.129334008688877"><ele>81.0</ele><time>2026-04-27T17:33:57.977Z</time></trkpt><trkpt lat="43.679094262954386" lon="11.129293701763492"><ele>81.0</ele><time>2026-04-27T17:34:00.977Z</time></trkpt><trkpt lat="43.679171575869496" lon="11.129269619826324"><ele>81.0</ele><time>2026-04-27T17:34:03.977Z</time></trkpt><trkpt lat="43.679253651990784" lon="11.129229703678451"><ele>81.0</ele><time>2026-04-27T17:34:06.977Z</time></trkpt><trkpt lat="43.6793211092849" lon="11.129221385665494"><ele>81.0</ele><time>2026-04-27T17:34:09.978Z</time></trkpt><trkpt lat="43.67939212268432" lon="11.129173731608589"><ele>81.0</ele><time>2026-04-27T17:34:12.977Z</time></trkpt><trkpt lat="43.67947440911793" lon="11.129141503253589"><ele>81.0</ele><time>2026-04-27T17:34:15.977Z</time></trkpt><trkpt lat="43.67956551530653" lon="11.129116243958334"><ele>81.0</ele><time>2026-04-27T17:34:19.977Z</time></trkpt><trkpt lat="43.679648352987265" lon="11.129080405766372"><ele>81.0</ele><time>2026-04-27T17:34:23.977Z</time></trkpt><trkpt lat="43.67972992291184" lon="11.129036901825847"><ele>81.0</ele><time>2026-04-27T17:34:26.977Z</time></trkpt><trkpt lat="43.67980481940848" lon="11.128997311586353"><ele>81.0</ele><time>2026-04-27T17:34:29.977Z</time></trkpt><trkpt lat="43.67987526190816" lon="11.128961829161584"><ele>81.0</ele><time>2026-04-27T17:34:32.977Z</time></trkpt><trkpt lat="43.67993548679989" lon="11.128922998742041"><ele>81.0</ele><time>2026-04-27T17:34:35.977Z</time></trkpt><trkpt lat="43.68000577347969" lon="11.128876002401432"><ele>81.0</ele><time>2026-04-27T17:34:38.977Z</time></trkpt><trkpt lat="43.680063251327354" lon="11.128823330932578"><ele>81.0</ele><time>2026-04-27T17:34:41.977Z</time></trkpt><trkpt lat="43.680112613737286" lon="11.12876860602334"><ele>81.0</ele><time>2026-04-27T17:34:44.977Z</time></trkpt><trkpt lat="43.68017080631532" lon="11.12870642865997"><ele>81.0</ele><time>2026-04-27T17:34:47.977Z</time></trkpt><trkpt lat="43.680235718367264" lon="11.128638768323825"><ele>81.0</ele><time>2026-04-27T17:34:50.977Z</time></trkpt><trkpt lat="43.680292080474636" lon="11.128585230885502"><ele>81.0</ele><time>2026-04-27T17:34:53.977Z</time></trkpt><trkpt lat="43.680350561070185" lon="11.128542253943307"><ele>81.0</ele><time>2026-04-27T17:34:56.977Z</time></trkpt><trkpt lat="43.6804195320063" lon="11.12848812589779"><ele>80.85714285714286</ele><time>2026-04-27T17:35:00.977Z</time></trkpt><trkpt lat="43.68047791285173" lon="11.12843242120751"><ele>80.71428571428571</ele><time>2026-04-27T17:35:03.977Z</time></trkpt><trkpt lat="43.680535256095915" lon="11.12839384814015"><ele>80.57142857142857</ele><time>2026-04-27T17:35:06.977Z</time></trkpt><trkpt lat="43.680601598733375" lon="11.128339459608373"><ele>80.42857142857143</ele><time>2026-04-27T17:35:09.977Z</time></trkpt><trkpt lat="43.68065950512932" lon="11.128292927947204"><ele>80.28571428571429</ele><time>2026-04-27T17:35:12.977Z</time></trkpt><trkpt lat="43.68071954788343" lon="11.128254575153646"><ele>80.14285714285714</ele><time>2026-04-27T17:35:14.977Z</time></trkpt><trkpt lat="43.680794642928916" lon="11.128190393302988"><ele>80.0</ele><time>2026-04-27T17:35:17.977Z</time></trkpt><trkpt lat="43.68086885611882" lon="11.128136010421388"><ele>79.83333333333334</ele><time>2026-04-27T17:35:20.977Z</time></trkpt><trkpt lat="43.68095178577422" lon="11.12807992965042"><ele>79.66666666666667</ele><time>2026-04-27T17:35:23.977Z</time></trkpt><trkpt lat="43.68102643711245" lon="11.128024169957202"><ele>79.5</ele><time>2026-04-27T17:35:26.977Z</time></trkpt><trkpt lat="43.68110205160194" lon="11.12796694072734"><ele>79.33333333333333</ele><time>2026-04-27T17:35:29.977Z</time></trkpt><trkpt lat="43.68116244299498" lon="11.127927904406373"><ele>79.16666666666666</ele><time>2026-04-27T17:35:31.977Z</time></trkpt><trkpt lat="43.68124114939406" lon="11.127915643030324"><ele>79.0</ele><time>2026-04-27T17:35:34.977Z</time></trkpt><trkpt lat="43.681322882561616" lon="11.127863334967053"><ele>78.83333333333333</ele><time>2026-04-27T17:35:37.977Z</time></trkpt><trkpt lat="43.68139393568513" lon="11.12780775496447"><ele>78.66666666666666</ele><time>2026-04-27T17:35:40.977Z</time></trkpt><trkpt lat="43.6814759940094" lon="11.127766372625146"><ele>78.5</ele><time>2026-04-27T17:35:43.977Z</time></trkpt><trkpt lat="43.6815541174813" lon="11.127717603917064"><ele>78.33333333333333</ele><time>2026-04-27T17:35:46.977Z</time></trkpt><trkpt lat="43.68161583778089" lon="11.127679859540565"><ele>78.16666666666667</ele><time>2026-04-27T17:35:49.977Z</time></trkpt><trkpt lat="43.68169904925612" lon="11.127642998816567"><ele>78.0</ele><time>2026-04-27T17:35:52.977Z</time></trkpt><trkpt lat="43.681776253475306" lon="11.127598526632013"><ele>78.0</ele><time>2026-04-27T17:35:55.977Z</time></trkpt><trkpt lat="43.68185306285654" lon="11.127571743919662"><ele>78.0</ele><time>2026-04-27T17:35:58.977Z</time></trkpt><trkpt lat="43.681937389000005" lon="11.127586143436412"><ele>78.0</ele><time>2026-04-27T17:36:02.977Z</time></trkpt><trkpt lat="43.68198598246597" lon="11.127665268303387"><ele>78.0</ele><time>2026-04-27T17:36:06.977Z</time></trkpt><trkpt lat="43.68201243922125" lon="11.12775185372627"><ele>78.0</ele><time>2026-04-27T17:36:09.976Z</time></trkpt><trkpt lat="43.682061242311846" lon="11.127816701817911"><ele>78.0</ele><time>2026-04-27T17:36:11.976Z</time></trkpt><trkpt lat="43.68209727301902" lon="11.12789135247735"><ele>78.0</ele><time>2026-04-27T17:36:13.976Z</time></trkpt><trkpt lat="43.682142005710915" lon="11.127963978427703"><ele>78.14285714285715</ele><time>2026-04-27T17:36:15.977Z</time></trkpt><trkpt lat="43.68219238285275" lon="11.128041092563727"><ele>78.28571428571428</ele><time>2026-04-27T17:36:17.977Z</time></trkpt><trkpt lat="43.68223355485278" lon="11.128109730206454"><ele>78.42857142857143</ele><time>2026-04-27T17:36:19.977Z</time></trkpt><trkpt lat="43.68227161350942" lon="11.128200325959588"><ele>78.57142857142858</ele><time>2026-04-27T17:36:21.977Z</time></trkpt><trkpt lat="43.68231645470249" lon="11.128281999026635"><ele>78.71428571428572</ele><time>2026-04-27T17:36:23.977Z</time></trkpt><trkpt lat="43.682361706522265" lon="11.128362067157394"><ele>78.85714285714286</ele><time>2026-04-27T17:36:25.977Z</time></trkpt><trkpt lat="43.682411192907615" lon="11.128442334972652"><ele>79.0</ele><time>2026-04-27T17:36:27.977Z</time></trkpt><trkpt lat="43.68244741793283" lon="11.12852617200414"><ele>79.00000000000001</ele><time>2026-04-27T17:36:29.977Z</time></trkpt><trkpt lat="43.68249055275816" lon="11.128601312513963"><ele>79.0</ele><time>2026-04-27T17:36:31.977Z</time></trkpt><trkpt lat="43.682531463092545" lon="11.128676588253509"><ele>79.0</ele><time>2026-04-27T17:36:33.977Z</time></trkpt><trkpt lat="43.68256790539545" lon="11.128752887428666"><ele>79.0</ele><time>2026-04-27T17:36:35.977Z</time></trkpt><trkpt lat="43.68261269765324" lon="11.128823179933253"><ele>79.0</ele><time>2026-04-27T17:36:37.977Z</time></trkpt><trkpt lat="43.68266214809745" lon="11.128892950297452"><ele>79.00000000000001</ele><time>2026-04-27T17:36:39.977Z</time></trkpt><trkpt lat="43.68272159477314" lon="11.12898099464664"><ele>79.0</ele><time>2026-04-27T17:36:42.977Z</time></trkpt><trkpt lat="43.68278245540912" lon="11.129051531543679"><ele>79.5</ele><time>2026-04-27T17:36:45.977Z</time></trkpt><trkpt lat="43.682821745256255" lon="11.129126658644735"><ele>80.0</ele><time>2026-04-27T17:36:48.977Z</time></trkpt><trkpt lat="43.68286852399573" lon="11.129215247452787"><ele>80.5</ele><time>2026-04-27T17:36:51.977Z</time></trkpt><trkpt lat="43.68291832534859" lon="11.129306507199427"><ele>81.0</ele><time>2026-04-27T17:36:54.977Z</time></trkpt><trkpt lat="43.68294711892549" lon="11.129392507672133"><ele>81.5</ele><time>2026-04-27T17:36:57.977Z</time></trkpt><trkpt lat="43.682996631942764" lon="11.12948154239102"><ele>82.0</ele><time>2026-04-27T17:37:01.977Z</time></trkpt><trkpt lat="43.683055642232674" lon="11.12954266072439"><ele>81.99999999999999</ele><time>2026-04-27T17:37:05.977Z</time></trkpt><trkpt lat="43.68310371217837" lon="11.129486155633673"><ele>82.0</ele><time>2026-04-27T17:37:10.977Z</time></trkpt><trkpt lat="43.68316060346439" lon="11.129435003163112"><ele>82.0</ele><time>2026-04-27T17:37:15.977Z</time></trkpt><trkpt lat="43.68322443220405" lon="11.129417041104116"><ele>82.0</ele><time>2026-04-27T17:37:22.977Z</time></trkpt><trkpt lat="43.68327437922233" lon="11.129474361358662"><ele>82.0</ele><time>2026-04-27T17:37:45.977Z</time></trkpt><trkpt lat="43.683335066097584" lon="11.129438319420819"><ele>81.99999999999999</ele><time>2026-04-27T17:38:01.976Z</time></trkpt><trkpt lat="43.68339158680583" lon="11.129386297736323"><ele>82.0</ele><time>2026-04-27T17:38:08.976Z</time></trkpt><trkpt lat="43.68345569048796" lon="11.12933408274669"><ele>82.0</ele><time>2026-04-27T17:38:43.976Z</time></trkpt><trkpt lat="43.68351914868543" lon="11.129262284133935"><ele>82.0</ele><time>2026-04-27T17:38:47.976Z</time></trkpt><trkpt lat="43.683584204574636" lon="11.129202383695464"><ele>82.0</ele><time>2026-04-27T17:38:50.976Z</time></trkpt><trkpt lat="43.6836408324847" lon="11.129153922546102"><ele>82.0</ele><time>2026-04-27T17:38:53.976Z</time></trkpt><trkpt lat="43.68370386822158" lon="11.129087330713197"><ele>82.0</ele><time>2026-04-27T17:39:02.976Z</time></trkpt><trkpt lat="43.68377794915866" lon="11.129013474960837"><ele>82.0</ele><time>2026-04-27T17:39:05.976Z</time></trkpt><trkpt lat="43.6838324238027" lon="11.128966452406159"><ele>82.0</ele><time>2026-04-27T17:39:07.976Z</time></trkpt><trkpt lat="43.683898995139394" lon="11.128899824914667"><ele>82.0</ele><time>2026-04-27T17:39:10.976Z</time></trkpt><trkpt lat="43.68395787967805" lon="11.128843507814139"><ele>82.0</ele><time>2026-04-27T17:39:12.976Z</time></trkpt><trkpt lat="43.68402443426314" lon="11.128784580815951"><ele>82.0</ele><time>2026-04-27T17:39:15.976Z</time></trkpt><trkpt lat="43.684077763646" lon="11.128735737526123"><ele>82.0</ele><time>2026-04-27T17:39:18.976Z</time></trkpt><trkpt lat="43.68415364277434" lon="11.12877105559216"><ele>82.0</ele><time>2026-04-27T17:39:22.976Z</time></trkpt><trkpt lat="43.684222288848325" lon="11.128818624116393"><ele>81.99999999999999</ele><time>2026-04-27T17:39:25.976Z</time></trkpt><trkpt lat="43.684259773507854" lon="11.128891527901843"><ele>82.0</ele><time>2026-04-27T17:39:28.976Z</time></trkpt><trkpt lat="43.68430421760256" lon="11.128978584383429"><ele>82.0</ele><time>2026-04-27T17:39:31.976Z</time></trkpt><trkpt lat="43.68435002661527" lon="11.129088125389876"><ele>82.0</ele><time>2026-04-27T17:39:34.976Z</time></trkpt><trkpt lat="43.684378834853504" lon="11.129174855547534"><ele>82.0</ele><time>2026-04-27T17:39:36.976Z</time></trkpt><trkpt lat="43.6843918550941" lon="11.129268071103525"><ele>81.99999999999999</ele><time>2026-04-27T17:39:38.976Z</time></trkpt><trkpt lat="43.68442426583687" lon="11.129355201779006"><ele>82.0</ele><time>2026-04-27T17:39:40.976Z</time></trkpt><trkpt lat="43.68446469066534" lon="11.129440402767628"><ele>82.28571428571428</ele><time>2026-04-27T17:39:42.976Z</time></trkpt><trkpt lat="43.684492427532795" lon="11.12952428783415"><ele>82.57142857142857</ele><time>2026-04-27T17:39:44.976Z</time></trkpt><trkpt lat="43.684522868619695" lon="11.129628237023072"><ele>82.85714285714286</ele><time>2026-04-27T17:39:46.976Z</time></trkpt><trkpt lat="43.68454825285277" lon="11.129721021683034"><ele>83.14285714285714</ele><time>2026-04-27T17:39:48.976Z</time></trkpt><trkpt lat="43.68458145570168" lon="11.12982042912448"><ele>83.42857142857143</ele><time>2026-04-27T17:39:50.976Z</time></trkpt><trkpt lat="43.68460116650079" lon="11.12991081656526"><ele>83.71428571428571</ele><time>2026-04-27T17:39:52.976Z</time></trkpt><trkpt lat="43.68464468404891" lon="11.129999231077706"><ele>84.0</ele><time>2026-04-27T17:39:54.976Z</time></trkpt><trkpt lat="43.68468378441451" lon="11.130091018367695"><ele>84.0</ele><time>2026-04-27T17:39:56.976Z</time></trkpt><trkpt lat="43.68472386657699" lon="11.13017645810887"><ele>84.0</ele><time>2026-04-27T17:39:58.976Z</time></trkpt><trkpt lat="43.6847546762744" lon="11.130266903348295"><ele>84.0</ele><time>2026-04-27T17:40:00.976Z</time></trkpt><trkpt lat="43.68477667680964" lon="11.130360430469342"><ele>84.0</ele><time>2026-04-27T17:40:02.976Z</time></trkpt><trkpt lat="43.684826478837515" lon="11.130444466607784"><ele>84.0</ele><time>2026-04-27T17:40:04.976Z</time></trkpt><trkpt lat="43.68485391547745" lon="11.130543818803353"><ele>84.0</ele><time>2026-04-27T17:40:06.976Z</time></trkpt><trkpt lat="43.68489038721127" lon="11.130635633292101"><ele>84.0</ele><time>2026-04-27T17:40:08.976Z</time></trkpt><trkpt lat="43.68492408371226" lon="11.130733341773478"><ele>84.0</ele><time>2026-04-27T17:40:10.976Z</time></trkpt><trkpt lat="43.68495818659011" lon="11.130824382661435"><ele>84.0</ele><time>2026-04-27T17:40:12.976Z</time></trkpt><trkpt lat="43.684982975650016" lon="11.130907526434935"><ele>84.0</ele><time>2026-04-27T17:40:14.976Z</time></trkpt><trkpt lat="43.685013793141785" lon="11.130994069380584"><ele>84.0</ele><time>2026-04-27T17:40:16.976Z</time></trkpt><trkpt lat="43.6850508929027" lon="11.131115449693617"><ele>84.0</ele><time>2026-04-27T17:40:19.976Z</time></trkpt><trkpt lat="43.68508556018049" lon="11.131242859681803"><ele>84.0</ele><time>2026-04-27T17:40:22.976Z</time></trkpt><trkpt lat="43.68509103084596" lon="11.131334487019172"><ele>84.0</ele><time>2026-04-27T17:40:24.976Z</time></trkpt><trkpt lat="43.68509384650903" lon="11.131461640264837"><ele>84.0</ele><time>2026-04-27T17:40:27.976Z</time></trkpt><trkpt lat="43.68511605793315" lon="11.131589604375222"><ele>84.0</ele><time>2026-04-27T17:40:30.976Z</time></trkpt><trkpt lat="43.68513951908666" lon="11.131678193405662"><ele>84.0</ele><time>2026-04-27T17:40:32.976Z</time></trkpt><trkpt lat="43.68519828922291" lon="11.13177817386286"><ele>84.0</ele><time>2026-04-27T17:40:35.976Z</time></trkpt><trkpt lat="43.68524345763403" lon="11.131843512045409"><ele>84.0</ele><time>2026-04-27T17:40:37.976Z</time></trkpt><trkpt lat="43.685286291313695" lon="11.13191503573118"><ele>84.71428571428571</ele><time>2026-04-27T17:40:39.975Z</time></trkpt><trkpt lat="43.685341730144216" lon="11.131974008488621"><ele>85.42857142857143</ele><time>2026-04-27T17:40:41.975Z</time></trkpt><trkpt lat="43.68539116717229" lon="11.132035828776129"><ele>86.14285714285714</ele><time>2026-04-27T17:40:43.975Z</time></trkpt><trkpt lat="43.68543861245556" lon="11.132099303384742"><ele>86.85714285714286</ele><time>2026-04-27T17:40:45.975Z</time></trkpt><trkpt lat="43.68548331324014" lon="11.132161843676172"><ele>87.57142857142857</ele><time>2026-04-27T17:40:47.975Z</time></trkpt><trkpt lat="43.685528618951395" lon="11.132234238230637"><ele>88.28571428571428</ele><time>2026-04-27T17:40:49.975Z</time></trkpt><trkpt lat="43.685569411495" lon="11.132307586088967"><ele>89.0</ele><time>2026-04-27T17:40:51.975Z</time></trkpt><trkpt lat="43.68559858740514" lon="11.132389549105847"><ele>88.83333333333334</ele><time>2026-04-27T17:40:53.975Z</time></trkpt><trkpt lat="43.685621799043126" lon="11.132472111929866"><ele>88.66666666666667</ele><time>2026-04-27T17:40:55.975Z</time></trkpt><trkpt lat="43.68566835081907" lon="11.132591109445604"><ele>88.5</ele><time>2026-04-27T17:40:58.975Z</time></trkpt><trkpt lat="43.685700046554864" lon="11.13266966847103"><ele>88.33333333333333</ele><time>2026-04-27T17:41:00.975Z</time></trkpt><trkpt lat="43.68572921067655" lon="11.132784614622514"><ele>88.16666666666666</ele><time>2026-04-27T17:41:03.975Z</time></trkpt><trkpt lat="43.685761720126614" lon="11.132860796439402"><ele>88.0</ele><time>2026-04-27T17:41:05.975Z</time></trkpt><trkpt lat="43.685805891468135" lon="11.132978964232137"><ele>88.0</ele><time>2026-04-27T17:41:08.974Z</time></trkpt><trkpt lat="43.685835997875955" lon="11.133100809521205"><ele>88.0</ele><time>2026-04-27T17:41:11.974Z</time></trkpt><trkpt lat="43.685862642558995" lon="11.133185594080308"><ele>88.0</ele><time>2026-04-27T17:41:13.974Z</time></trkpt><trkpt lat="43.685888259474304" lon="11.133266393310079"><ele>88.0</ele><time>2026-04-27T17:41:15.974Z</time></trkpt><trkpt lat="43.685911523301016" lon="11.13334857323476"><ele>88.0</ele><time>2026-04-27T17:41:17.973Z</time></trkpt><trkpt lat="43.685933463745464" lon="11.133434958671204"><ele>88.0</ele><time>2026-04-27T17:41:19.973Z</time></trkpt><trkpt lat="43.68597993434491" lon="11.133501135301628"><ele>88.0</ele><time>2026-04-27T17:41:21.973Z</time></trkpt><trkpt lat="43.68603365135923" lon="11.133547211656566"><ele>88.66666666666666</ele><time>2026-04-27T17:41:23.973Z</time></trkpt><trkpt lat="43.68610358388029" lon="11.13363556926554"><ele>89.33333333333333</ele><time>2026-04-27T17:41:26.973Z</time></trkpt><trkpt lat="43.68617344429135" lon="11.133720952502987"><ele>90.0</ele><time>2026-04-27T17:41:29.973Z</time></trkpt><trkpt lat="43.6862217880368" lon="11.13377924069775"><ele>90.66666666666667</ele><time>2026-04-27T17:41:31.973Z</time></trkpt><trkpt lat="43.68629455586109" lon="11.13384589487263"><ele>91.33333333333334</ele><time>2026-04-27T17:41:34.973Z</time></trkpt><trkpt lat="43.68635956560875" lon="11.133802335556505"><ele>92.0</ele><time>2026-04-27T17:41:37.973Z</time></trkpt><trkpt lat="43.68642860983542" lon="11.133763567749153"><ele>92.0</ele><time>2026-04-27T17:41:40.973Z</time></trkpt><trkpt lat="43.68650461360106" lon="11.133734542120642"><ele>92.0</ele><time>2026-04-27T17:41:43.973Z</time></trkpt><trkpt lat="43.6865811164539" lon="11.133706814030168"><ele>92.0</ele><time>2026-04-27T17:41:46.972Z</time></trkpt><trkpt lat="43.686658607151564" lon="11.133675921992346"><ele>92.0</ele><time>2026-04-27T17:41:48.972Z</time></trkpt><trkpt lat="43.686739722102864" lon="11.133640190018879"><ele>92.0</ele><time>2026-04-27T17:41:51.972Z</time></trkpt><trkpt lat="43.68682283709915" lon="11.133585988000785"><ele>92.0</ele><time>2026-04-27T17:41:54.972Z</time></trkpt><trkpt lat="43.68688925188454" lon="11.133520865204519"><ele>92.0</ele><time>2026-04-27T17:41:57.972Z</time></trkpt><trkpt lat="43.686882448955465" lon="11.133417638471437"><ele>92.0</ele><time>2026-04-27T17:42:01.972Z</time></trkpt><trkpt lat="43.68681383530502" lon="11.13345513157529"><ele>92.0</ele><time>2026-04-27T17:42:06.972Z</time></trkpt><trkpt lat="43.68675753138992" lon="11.133518658769264"><ele>92.0</ele><time>2026-04-27T17:42:10.972Z</time></trkpt><trkpt lat="43.68670208120193" lon="11.133455167125819"><ele>92.0</ele><time>2026-04-27T17:42:13.972Z</time></trkpt><trkpt lat="43.6866709979476" lon="11.133356312191133"><ele>92.0</ele><time>2026-04-27T17:42:17.972Z</time></trkpt><trkpt lat="43.686640932946304" lon="11.133278334471504"><ele>92.0</ele><time>2026-04-27T17:42:25.972Z</time></trkpt></trkseg></trk></gpx>